     2              OBSERVATION DATA    GPS                 RINEX VERSION / TYPE
ASHTORIN MIT 09                                             PGM / RUN BY / DATE
                                                            COMMENT
Original Marker Name: WIDE                                  COMMENT
Campaign Name: STRC/NBC 1997                                COMMENT
4-Character Station Name: WIDE                              COMMENT
6-Character Antenna Code: DMRCHT                            COMMENT
Vertical Measurement Point: BCR                             COMMENT
Vertical Offset to Rinex Ref. Point: 0.0349                 COMMENT
Radial Measurement Point: ECF                               COMMENT
Radial Offset to Rinex Ref. Point: 0.1896                   COMMENT
Antenna Height from Field Measurement: 1.5960 m             COMMENT
Additional Antenna Identification Info.:                    COMMENT
Turborogue and Ashtech Choke Ring                           COMMENT
Original XYZ: 0.0000 0.0000 0.0000                          COMMENT
New XYZ position is based on association with SCEC monument COMMENT
E1D0U3V0+0011. Position of that monument is believed to be  COMMENT
valid to within 1 m horizontally; vertical accuracy         COMMENT
should be no worse than 3-times this value.                 COMMENT
                                                            COMMENT
Revised Rinex header created by UCSD GPS archive for        COMMENT
GSAC on 14-Apr-1999 (1999:104) 00:29:59 GMT                 COMMENT
For assistance contact dagnew@ucsd.edu or hjohnson@ucsd.edu COMMENT
                                                            COMMENT
WIDE                                                        MARKER NAME
                                                            MARKER NUMBER
RER UNAVCO                                                  OBSERVER / AGENCY
391 ASHTECH Z12-XII3 1E951D0                                REC # / TYPE / VERS
733 DORNE-MARGOL. TYPE T                                    ANT # / TYPE
 -2356149.0000 -4745123.0000  3540396.0000                  APPROX POSITION XYZ
        1.5498        0.0000        0.0000                  ANTENNA: DELTA H/E/N
     1     1     0                                          WAVELENGTH FACT L1/2
     7    L1    L2    C1    P1    P2    D1    D2            # / TYPES OF OBSERV
    30                                                      INTERVAL
  1997     3    12     0     0   30.000000                  TIME OF FIRST OBS
  1997     3    12    16     1   30.000000                  TIME OF LAST OBS
     0                                                      # OF SATELLITES
                                                            END OF HEADER
 97  3 12  0  0 30.0000000  0  7  4 24  9  7  5 16 30                0.000000000
 -29754053.584 9 -21479539.19849  20889324.356    20889324.2624   20889329.5804
        -0.000          -0.000
 -30090650.444 9 -22231622.58049  20481267.548    20481267.1644   20481273.5824
        -0.000          -0.000
 -25747079.709 9 -19766381.24448  21473469.584    21473469.1574   21473474.9994
        -0.000          -0.000
  -6191684.651 9  -4504204.85946  23388105.219    23388104.3324   23388111.0904
        -0.000          -0.000
 -23882009.465 9 -18363155.42048  21680735.326    21680734.5604   21680740.4424
        -0.000          -0.000
  -2199147.972 9  -1599430.19246  24654515.778    24654514.9944   24654522.8404
        -0.000          -0.000
  -7337390.335 9  -5435675.37845  24131257.502    24131257.6474   24131264.1234
        -0.000          -0.000
 97  3 12  0  1  0.0000000  0  7  4 24  9  7  5 16 30               -0.000007662
 -29725357.247 9 -21457178.41549  20894785.084    20894784.9914   20894790.2764
        -0.000          -0.000
 -30138972.166 9 -22269275.84849  20472072.230    20472071.8504   20472078.2624
        -0.000          -0.000
 -25728149.487 9 -19751630.44048  21477071.875    21477071.4734   21477077.3214
        -0.000          -0.000
  -6141239.102 9  -4464896.65646  23397704.662    23397703.7984   23397710.6084
        -0.000          -0.000
 -23971122.130 9 -18432593.83248  21663777.701    21663776.9504   21663782.8374
        -0.000          -0.000
  -2198531.225 9  -1598949.56746  24654633.394    24654632.4734   24654639.9254
        -0.000          -0.000
  -7452942.495 9  -5525715.98645  24109268.653    24109268.8114   24109275.2034
        -0.000          -0.000
 97  3 12  0  1 29.9990000  0  8 10  4 24  9  7  5 16 30            -0.000018791
  -5995028.36118  -3677687.18855  24624516.569    24624515.7935   24624523.9745
        -0.000          -0.000
 -29696167.196 9 -21434432.92049  20900339.756    20900339.6664   20900344.9644
        -0.000          -0.000
 -30186755.727 9 -22306509.77149  20462979.285    20462978.9244   20462985.3054
        -0.000          -0.000
 -25708745.231 9 -19736510.25348  21480764.397    21480763.9764   21480769.8324
        -0.000          -0.000
  -6090790.641 9  -4425586.21346  23407304.646    23407303.7504   23407310.6094
        -0.000          -0.000
 -24060013.174 9 -18501859.56248  21646862.276    21646861.5504   21646867.4474
        -0.000          -0.000
  -2197392.302 9  -1598062.12046  24654849.851    24654849.0634   24654857.0094
        -0.000          -0.000
  -7568522.263 9  -5615778.08345  24087274.642    24087274.7574   24087280.9774
        -0.000          -0.000
 97  3 12  0  1 59.9990000  0  8 10  4 24  9  7  5 16 30            -0.000029985
  -6105936.849 9  -3764109.36045  24603411.295    24603410.3234   24603418.6964
        -0.000          -0.000
 -29666486.612 9 -21411305.19049  20905987.782    20905987.6864   20905993.0234
        -0.000          -0.000
 -30233996.646 9 -22343320.85649  20453989.592    20453989.2384   20453995.6144
        -0.000          -0.000
 -25688871.424 9 -19721024.18148  21484546.244    21484545.8484   21484551.7034
        -0.000          -0.000
  -6040350.083 9  -4386281.90846  23416903.140    23416902.2764   23416909.2074
        -0.000          -0.000
 -24148711.788 9 -18570975.34548  21629983.446    21629982.7154   21629988.6084
        -0.000          -0.000
  -2195758.740 9  -1596789.16746  24655160.899    24655160.1084   24655167.6924
        -0.000          -0.000
  -7684139.825 9  -5705869.62745  24065273.349    24065273.4984   24065279.7074
        -0.000          -0.000
 97  3 12  0  2 29.9990000  0  8 10  4 24  9  7  5 16 30            -0.000041203
  -6216962.274 8  -3850622.65945  24582283.887    24582282.9504   24582291.2214
        -0.000          -0.000
 -29636300.453 9 -21387783.50549  20911731.997    20911731.9094   20911737.2354
        -0.000          -0.000
 -30280668.501 9 -22379688.51649  20445108.222    20445107.8464   20445114.2234
        -0.000          -0.000
 -25668499.280 9 -19705149.79148  21488422.925    21488422.5344   21488428.3944
        -0.000          -0.000
  -5989897.877 9  -4346968.53146  23426503.849    23426502.9504   23426509.9824
        -0.000          -0.000
 -24237210.017 9 -18639934.98448  21613142.742    21613142.0234   21613147.9174
        -0.000          -0.000
  -2193623.990 9  -1595125.73446  24655566.760    24655566.0874   24655574.0564
        -0.000          -0.000
  -7799763.122 9  -5795965.63445  24043270.952    24043270.9904   24043277.1464
        -0.000          -0.000
 97  3 12  0  2 59.9990000  0  8 10  4 24  9  7  5 16 30            -0.000052445
  -6328111.867 9  -3937232.67545  24561132.712    24561131.8324   24561140.1224
        -0.000          -0.000
 -29605618.340 9 -21363875.36549  20917570.612    20917570.5074   20917575.8264
        -0.000          -0.000
 -30326783.321 9 -22415622.12349  20436332.838    20436332.4914   20436338.8654
        -0.000          -0.000
 -25647627.110 9 -19688885.77548  21492394.784    21492394.3754   21492400.2324
        -0.000          -0.000
  -5939433.766 9  -4307645.87446  23436106.854    23436105.9824   23436112.9704
        -0.000          -0.000
 -24325528.523 9 -18708754.58248  21596336.223    21596335.5084   21596341.4124
        -0.000          -0.000
  -2191006.695 9  -1593086.25546  24656065.071    24656064.2324   24656072.0594
        -0.000          -0.000
  -7915375.831 9  -5886053.40545  24021270.585    24021270.5114   24021276.7644
        -0.000          -0.000
 97  3 12  0  3 29.9990000  0  8 10  4 24  9  7  5 16 30            -0.000063696
  -6439363.757 8  -4023922.42445  24539962.302    24539961.1994   24539969.4814
        -0.000          -0.000
 -29574451.571 9 -21339589.57349  20923501.418    20923501.3214   20923506.6734
        -0.000          -0.000
 -30372342.957 9 -22451123.11849  20427663.117    20427662.7434   20427669.1284
        -0.000          -0.000
 -25626251.152 9 -19672229.20148  21496462.517    21496462.1294   21496467.9724
        -0.000          -0.000
  -5888947.493 9  -4268305.97046  23445714.123    23445713.3104   23445720.2664
        -0.000          -0.000
 -24413667.227 9 -18777434.07148  21579563.992    21579563.2994   21579569.1864
        -0.000          -0.000
  -2187909.036 9  -1590672.49446  24656654.538    24656653.7734   24656661.4484
        -0.000          -0.000
  -8030946.304 9  -5976108.23045  23999278.191    23999278.1564   23999284.3644
        -0.000          -0.000
 97  3 12  0  3 59.9990000  0  8 10  4 24  9  7  5 16 30            -0.000074937
  -6550706.015 8  -4110682.54745  24518774.521    24518773.3964   24518781.7984
        -0.000          -0.000
 -29542822.652 9 -21314943.66149  20929520.228    20929520.1354   20929525.4804
        -0.000          -0.000
 -30417374.874 9 -22486212.90349  20419093.788    20419093.4264   20419099.8194
        -0.000          -0.000
 -25604370.341 9 -19655179.23148  21500626.330    21500625.9064   21500631.7474
        -0.000          -0.000
  -5838423.668 9  -4228936.78046  23455328.580    23455327.7344   23455334.7284
        -0.000          -0.000
 -24501625.759 9 -18845973.17048  21562826.036    21562825.3274   21562831.1874
        -0.000          -0.000
  -2184329.339 9  -1587883.11446  24657335.682    24657334.8924   24657342.6034
        -0.000          -0.000
  -8146448.741 9  -6066110.07645  23977298.804    23977298.8114   23977305.0324
        -0.000          -0.000
 97  3 12  0  4 29.9990000  0  8 10  4 24  9  7  5 16 30            -0.000086177
  -6662144.063 8  -4197517.31845  24497568.442    24497567.4274   24497575.8234
        -0.000          -0.000
 -29510773.760 9 -21289970.49649  20935618.884    20935618.8034   20935624.1494
        -0.000          -0.000
 -30461920.541 9 -22520923.78949  20410617.000    20410616.6544   20410623.0434
        -0.000          -0.000
 -25582003.834 9 -19637750.80048  21504882.550    21504882.1204   21504887.9604
        -0.000          -0.000
  -5787888.457 9  -4189558.73646  23464945.188    23464944.4164   23464951.2984
        -0.000          -0.000
 -24589411.266 9 -18914377.44148  21546120.967    21546120.2814   21546126.1304
        -0.000          -0.000
  -2180287.613 9  -1584733.69746  24658104.658    24658104.0104   24658111.6374
        -0.000          -0.000
  -8261916.789 9  -6156085.12046  23955325.891    23955325.9234   23955332.1124
        -0.000          -0.000
 97  3 12  0  4 59.9990000  0  7 10  4 24  9  7  5 30               -0.000097410
  -6773649.614 8  -4284404.66645  24476349.534    24476348.4874   24476356.8784
        -0.000          -0.000
 -29478294.084 9 -21264661.65749  20941799.541    20941799.4644   20941804.8274
        -0.000          -0.000
 -30505972.247 9 -22555249.77749  20402234.203    20402233.8484   20402240.2344
        -0.000          -0.000
 -25559143.016 9 -19619937.18748  21509232.812    21509232.3784   21509238.2104
        -0.000          -0.000
  -5737339.269 9  -4150169.78846  23474564.412    23474563.5984   23474570.5244
        -0.000          -0.000
 -24677000.497 9 -18982628.78048  21529453.298    21529452.6004   21529458.4814
        -0.000          -0.000
  -8377349.039 9  -6246032.25846  23933359.720    23933359.6804   23933366.0644
        -0.000          -0.000
 97  3 12  0  5 29.9990000  0  7 10  4 24  9  7  5 30               -0.000108620
  -6885223.503 8  -4371345.27645  24455117.889    24455116.7154   24455125.0144
        -0.000          -0.000
 -29445383.163 9 -21239016.78249  20948062.309    20948062.2384   20948067.6084
        -0.000          -0.000
 -30549539.531 9 -22589198.28949  20393943.627    20393943.2774   20393949.6424
        -0.000          -0.000
 -25535800.784 9 -19601748.44648  21513674.650    21513674.2534   21513680.1084
        -0.000          -0.000
  -5686787.882 9  -4110779.14646  23484184.105    23484183.2884   23484190.1664
        -0.000          -0.000
 -24764375.385 9 -19050713.09348  21512826.392    21512825.7014   21512831.5894
        -0.000          -0.000
  -8492757.191 9  -6335960.64046  23911398.218    23911398.2634   23911404.6744
        -0.000          -0.000
 97  3 12  0  5 59.9990000  0  7 10  4 24  9  7  5 30               -0.000119849
  -6996897.852 8  -4458364.16945  24433867.018    24433865.8564   24433873.9114
        -0.000          -0.000
 -29412056.282 9 -21213047.78249  20954404.176    20954404.1084   20954409.4614
        -0.000          -0.000
 -30592636.087 9 -22622779.99949  20385742.624    20385742.2644   20385748.6504
        -0.000          -0.000
 -25511996.016 9 -19583199.29748  21518204.579    21518204.1874   21518210.0504
        -0.000          -0.000
  -5636248.610 9  -4071397.92546  23493801.450    23493800.6204   23493807.4964
        -0.000          -0.000
 -24851534.706 9 -19118629.43748  21496240.524    21496239.7934   21496245.6894
        -0.000          -0.000
  -8608190.804 9  -6425908.83046  23889431.767    23889431.8814   23889438.3294
        -0.000          -0.000
 97  3 12  0  6 29.9990000  0  7 10  4 24  9  7  5 30               -0.000131111
  -7108681.356 8  -4545468.08845  24412595.322    24412594.1334   24412602.1854
        -0.000          -0.000
 -29378312.782 9 -21186754.14549  20960825.371    20960825.3034   20960830.6544
        -0.000          -0.000
 -30635246.756 9 -22655983.09849  20377634.076    20377633.7284   20377640.1004
        -0.000          -0.000
 -25487742.631 9 -19564300.56748  21522819.852    21522819.4624   21522825.3314
        -0.000          -0.000
  -5585737.548 9  -4032038.68146  23503413.444    23503412.6164   23503419.4814
        -0.000          -0.000
 -24938474.545 9 -19186374.75548  21479696.422    21479695.6864   21479701.5774
        -0.000          -0.000
  -8723661.420 9  -6515885.86646  23867458.321    23867458.4334   23867464.9654
        -0.000          -0.000
 97  3 12  0  6 59.9990000  0  7 10  4 24  9  7  5 30               -0.000142406
  -7220586.071 8  -4632666.48645  24391300.319    24391299.2854   24391307.3554
        -0.000          -0.000
 -29344142.170 9 -21160127.69649  20967327.815    20967327.7414   20967333.0874
        -0.000          -0.000
 -30677367.098 9 -22688804.12349  20369618.836    20369618.4874   20369624.8524
        -0.000          -0.000
 -25463064.128 9 -19545070.57948  21527516.008    21527515.5914   21527521.4834
        -0.000          -0.000
  -5535236.661 9  -3992687.37046  23513023.386    23513022.5144   23513029.5094
        -0.000          -0.000
 -25025204.238 9 -19253956.31948  21463192.323    21463191.5924   21463197.4564
        -0.000          -0.000
  -8839154.113 9  -6605880.12446  23845480.777    23845480.7774   23845487.4074
        -0.000          -0.000
 97  3 12  0  7 29.9990000  0  7 10  4 24  9  7  5 30               -0.000153729
  -7332609.821 9  -4719957.64645  24369982.797    24369981.7034   24369989.9404
        -0.000          -0.000
 -29309558.111 9 -21133179.07949  20973908.982    20973908.9054   20973914.2444
        -0.000          -0.000
 -30718992.992 9 -22721239.86749  20361697.718    20361697.3304   20361703.6744
        -0.000          -0.000
 -25437965.201 9 -19525512.98448  21532292.215    21532291.7654   21532297.6804
        -0.000          -0.000
  -5484739.322 9  -3953338.84546  23522632.658    23522631.7914   23522638.8834
        -0.000          -0.000
 -25111728.548 9 -19321377.85448  21446727.293    21446726.5604   21446732.3964
        -0.000          -0.000
  -8954660.309 9  -6695884.89146  23823500.592    23823500.7144   23823507.2324
        -0.000          -0.000
 97  3 12  0  7 59.9990000  0  7 10  4 24  9  7  5 30               -0.000165069
  -7444725.082 9  -4807320.11645  24348647.851    24348646.8834   24348654.9954
        -0.000          -0.000
 -29274550.330 9 -21105900.29349  20980570.745    20980570.6334   20980575.9584
        -0.000          -0.000
 -30760098.644 9 -22753270.22649  20353875.548    20353875.1654   20353881.5034
        -0.000          -0.000
 -25412423.141 9 -19505610.09748  21537152.696    21537152.2804   21537158.1804
        -0.000          -0.000
  -5434230.708 9  -3913981.50446  23532244.168    23532243.2274   23532250.3784
        -0.000          -0.000
 -25198041.165 9 -19388634.42448  21430302.574    21430301.8514   21430307.6564
        -0.000          -0.000
  -9070157.151 9  -6785882.36646  23801522.218    23801522.3094   23801528.8404
        -0.000          -0.000
 97  3 12  0  8 29.9990000  0  7 10  4 24  9  7  5 30               -0.000176433
  -7556945.806 9  -4894764.78545  24327293.097    24327291.9464   24327300.0534
        -0.000          -0.000
 -29239135.327 9 -21078304.18849  20987310.011    20987309.9084   20987315.2454
        -0.000          -0.000
 -30800726.872 9 -22784928.56949  20346144.210    20346143.8284   20346150.1634
        -0.000          -0.000
 -25386467.782 9 -19485385.15948  21542091.863    21542091.4204   21542097.3224
        -0.000          -0.000
  -5383753.215 9  -3874648.41646  23541849.760    23541848.8174   23541855.9814
        -0.000          -0.000
 -25284190.369 9 -19455763.66548  21413908.942    21413908.1904   21413913.9804
        -0.000          -0.000
  -9185653.501 9  -6875879.46346  23779543.989    23779544.0544   23779550.5914
        -0.000          -0.000
 97  3 12  0  8 59.9990000  0  7 10  4 24  9  7  5 30               -0.000187821
  -7669250.786 9  -4982275.11045  24305922.084    24305920.9124   24305928.9984
        -0.000          -0.000
 -29203299.325 9 -21050380.03049  20994129.403    20994129.2874   20994134.5884
        -0.000          -0.000
 -30840876.926 9 -22816214.30349  20338503.910    20338503.5274   20338509.8394
        -0.000          -0.000
 -25360074.441 9 -19464818.93248  21547114.342    21547113.9044   21547119.8224
        -0.000          -0.000
  -5333293.519 9  -3835329.21846  23551451.955    23551451.0004   23551458.0914
        -0.000          -0.000
 -25370170.177 9 -19522760.90448  21397547.517    21397546.7674   21397552.5434
        -0.000          -0.000
  -9301157.555 9  -6965882.54646  23757564.294    23757564.3414   23757570.7744
        -0.000          -0.000
 97  3 12  0  9 29.9990000  0  7 10  4 24  9  7  5 30               -0.000199219
  -7781607.215 8  -5069825.54745  24284541.347    24284540.1734   24284548.1984
        -0.000          -0.000
 -29167026.876 9 -21022115.78249  21001031.846    21001031.7384   21001037.0074
        -0.000          -0.000
 -30880524.505 9 -22847108.49949  20330959.193    20330958.8004   20330965.1074
        -0.000          -0.000
 -25333201.951 9 -19443879.34748  21552228.017    21552227.5734   21552233.5014
        -0.000          -0.000
  -5282844.040 9  -3796017.95946  23561052.100    23561051.1734   23561058.3564
        -0.000          -0.000
 -25455956.376 9 -19589607.28048  21381222.955    21381222.1884   21381227.9524
        -0.000          -0.000
  -9416655.377 9  -7055880.78946  23735585.790    23735585.8464   23735592.2384
        -0.000          -0.000
 97  3 12  0  9 59.9990000  0  7 10  4 24  9  7  5 30               -0.000210627
  -7894006.988 8  -5157409.74545  24263152.351    24263151.1504   24263159.3954
        -0.000          -0.000
 -29130301.877 9 -20993498.90548  21008020.344    21008020.2404   21008025.5334
        -0.000          -0.000
 -30919674.319 9 -22877614.83549  20323509.217    20323508.8484   20323515.1444
        -0.000          -0.000
 -25305835.376 9 -19422554.76248  21557435.712    21557435.2284   21557441.1904
        -0.000          -0.000
  -5232410.632 9  -3756719.23146  23570649.245    23570648.3304   23570655.5584
        -0.000          -0.000
 -25541533.661 9 -19656290.86848  21364938.111    21364937.3324   21364943.1134
        -0.000          -0.000
  -9532141.716 9  -7145870.07546  23713609.411    23713609.4804   23713615.8494
        -0.000          -0.000
 97  3 12  0 10 29.9990000  0  7 10  4 24  9  7  5 30               -0.000222059
  -8006471.122 9  -5245044.10045  24241750.959    24241749.8464   24241758.0834
        -0.000          -0.000
 -29093130.751 9 -20964534.39048  21015093.765    21015093.6734   21015098.9464
        -0.000          -0.000
 -30958335.895 9 -22907740.71849  20316152.132    20316151.7514   20316158.0564
        -0.000          -0.000
 -25277998.666 9 -19400863.83748  21562732.840    21562732.3714   21562738.3284
        -0.000          -0.000
  -5181990.594 9  -3717430.92246  23580243.911    23580242.9174   23580250.2064
        -0.000          -0.000
 -25626900.027 9 -19722810.10048  21348693.392    21348692.6284   21348698.4204
        -0.000          -0.000
  -9647638.186 9  -7235867.26246  23691631.104    23691631.1854   23691637.6884
        -0.000          -0.000
 97  3 12  0 10 59.9990000  0  7 10  4 24  9  7  5 30               -0.000233511
  -8118992.438 8  -5332723.01045  24220338.784    24220337.7094   24220346.0164
        -0.000          -0.000
 -29055519.718 9 -20935227.09348  21022250.917    21022250.8094   21022256.1004
        -0.000          -0.000
 -30996483.095 9 -22937465.79249  20308892.941    20308892.5664   20308898.8704
        -0.000          -0.000
 -25249700.015 9 -19378812.95348  21568117.912    21568117.4534   21568123.4084
        -0.000          -0.000
  -5131568.914 9  -3678141.32746  23589838.748    23589837.8654   23589845.0444
        -0.000          -0.000
 -25712025.844 9 -19789141.88948  21332494.469    21332493.7124   21332499.5164
        -0.000          -0.000
  -9763134.833 9  -7325864.59046  23669652.811    23669652.8314   23669659.2544
        -0.000          -0.000
 97  3 12  0 11 29.9990000  0  7 10  4 24  9  7  5 30               -0.000244982
  -8231586.381 8  -5420458.51345  24198912.971    24198911.8324   24198920.0434
        -0.000          -0.000
 -29017486.910 9 -20905591.13748  21029488.318    21029488.1884   21029493.4934
        -0.000          -0.000
 -31034115.014 9 -22966789.34949  20301731.851    20301731.4844   20301737.7534
        -0.000          -0.000
 -25220954.323 9 -19356413.72848  21573588.074    21573587.6164   21573593.5684
        -0.000          -0.000
  -5081150.158 9  -3638854.02146  23599433.114    23599432.3834   23599439.4774
        -0.000          -0.000
 -25796898.803 9 -19855276.64548  21316343.670    21316342.9234   21316348.7014
        -0.000          -0.000
  -9878606.536 9  -7415842.50146  23647679.295    23647679.2524   23647685.4894
        -0.000          -0.000
 97  3 12  0 11 59.9990000  0  7 10  4 24  9  7  5 30               -0.000256477
  -8344270.431 8  -5508264.20745  24177469.921    24177468.7074   24177477.0524
        -0.000          -0.000
 -28979042.545 9 -20875634.48948  21036804.000    21036803.9044   21036809.1954
        -0.000          -0.000
 -31071240.586 9 -22995718.34549  20294667.077    20294666.6854   20294672.9454
        -0.000          -0.000
 -25191780.561 9 -19333680.94348  21579139.648    21579139.2034   21579145.1844
        -0.000          -0.000
  -5030737.438 9  -3599571.40446  23609026.442    23609025.7114   23609032.7974
        -0.000          -0.000
 -25881515.068 9 -19921211.38148  21300241.758    21300240.9904   21300246.7664
        -0.000          -0.000
  -9994054.818 9  -7505802.10246  23625710.156    23625710.0524   23625716.3344
        -0.000          -0.000
 97  3 12  0 12 29.9990000  0  7 10  4 24  9  7  5 30               -0.000267995
  -8457041.906 9  -5596138.02346  24156010.134    24156008.9934   24156017.2594
        -0.000          -0.000
 -28940198.990 9 -20845366.78848  21044195.650    21044195.5674   21044200.8394
        -0.000          -0.000
 -31107846.668 9 -23024242.55249  20287701.150    20287700.7674   20287707.0234
        -0.000          -0.000
 -25162188.172 9 -19310621.95948  21584770.877    21584770.4544   21584776.4264
        -0.000          -0.000
  -4980317.236 9  -3560282.98246  23618621.128    23618620.3904   23618627.5004
        -0.000          -0.000
 -25965891.751 9 -19986959.43148  21284185.405    21284184.6264   21284190.4054
        -0.000          -0.000
 -10109475.015 9  -7595739.87446  23603746.365    23603746.2474   23603752.5274
        -0.000          -0.000
 97  3 12  0 12 59.9990000  0  7 10  4 24  9  7  5 30               -0.000279519
  -8569872.269 9  -5684057.73346  24134539.149    24134537.9674   24134546.2554
        -0.000          -0.000
 -28900971.422 9 -20814799.85448  21051660.426    21051660.3494   21051665.6184
        -0.000          -0.000
 -31143928.603 9 -23052358.32849  20280834.947    20280834.5804   20280840.8354
        -0.000          -0.000
 -25132145.564 9 -19287212.15348  21590487.829    21590487.4064   21590493.3744
        -0.000          -0.000
  -4929901.173 9  -3520997.77046  23628215.072    23628214.2974   23628221.4384
        -0.000          -0.000
 -26050027.451 9 -20052519.70748  21268174.886    21268174.1194   21268179.8844
        -0.000          -0.000
 -10224839.114 9  -7685633.91046  23581793.273    23581793.0844   23581799.4114
        -0.000          -0.000
 97  3 12  0 13 29.9990000  0  7 10  4 24  9  7  5 30               -0.000291044
  -8682750.989 9  -5772015.11646  24113059.058    24113057.8574   24113066.1364
        -0.000          -0.000
 -28861357.891 9 -20783932.17248  21059198.625    21059198.5404   21059203.8314
        -0.000          -0.000
 -31179494.494 9 -23080071.99549  20274066.954    20274066.5664   20274072.8274
        -0.000          -0.000
 -25101626.644 9 -19263431.19848  21596295.454    21596295.0264   21596300.9694
        -0.000          -0.000
  -4879480.982 9  -3481709.35246  23637809.794    23637808.9664   23637816.0504
        -0.000          -0.000
 -26133933.905 9 -20117901.34548  21252207.964    21252207.2134   21252212.9884
        -0.000          -0.000
 -10340151.458 9  -7775487.62446  23559849.992    23559849.8264   23559856.0624
        -0.000          -0.000
 97  3 12  0 13 59.9990000  0  7 10  4 24  9  7  5 30               -0.000302579
  -8795666.335 9  -5860001.02646  24091571.997    24091570.7134   24091579.0494
        -0.000          -0.000
 -28821357.582 9 -20752763.10048  21066810.465    21066810.3714   21066815.6534
        -0.000          -0.000
 -31214547.001 9 -23107385.61849  20267396.681    20267396.3134   20267402.5734
        -0.000          -0.000
 -25070641.085 9 -19239286.62648  21602191.864    21602191.4044   21602197.3554
        -0.000          -0.000
  -4829062.360 9  -3442422.16246  23647404.199    23647403.3134   23647410.4524
        -0.000          -0.000
 -26217629.784 9 -20183118.89848  21236281.125    21236280.3694   21236286.1424
        -0.000          -0.000
 -10455439.592 9  -7865322.47546  23537911.393    23537911.1744   23537917.4814
        -0.000          -0.000
 97  3 12  0 14 29.9990000  0  7 10  4 24  9  7  5 30               -0.000314116
  -8908597.321 9  -5947999.15146  24070081.905    24070080.5814   24070088.8484
        -0.000          -0.000
 -28780961.280 9 -20721285.46248  21074497.607    21074497.5094   21074502.8234
        -0.000          -0.000
 -31249075.492 9 -23134290.91849  20260826.165    20260825.7624   20260832.0214
        -0.000          -0.000
 -25039179.538 9 -19214771.15048  21608178.778    21608178.3294   21608184.3094
        -0.000          -0.000
  -4778638.467 9  -3403130.84546  23656999.458    23656998.6614   23657005.8714
        -0.000          -0.000
 -26301102.423 9 -20248162.49448  21220396.782    21220396.0364   21220401.7954
        -0.000          -0.000
 -10570689.133 9  -7955127.24946  23515979.996    23515979.8754   23515986.1474
        -0.000          -0.000
 97  3 12  0 14 59.9990000  0  7 10  4 24  9  7  5 30               -0.000325668
  -9021558.649 8  -6036020.91746  24048585.956    24048584.6414   24048592.8454
        -0.000          -0.000
 -28740167.915 9 -20689498.42648  21082260.313    21082260.2254   21082265.5604
        -0.000          -0.000
 -31283100.052 9 -23160803.54349  20254351.436    20254351.0254   20254357.3114
        -0.000          -0.000
 -25007262.095 9 -19189900.43148  21614252.430    21614252.0054   21614257.9974
        -0.000          -0.000
  -4728230.732 9  -3363852.13746  23666591.723    23666590.9404   23666598.2004
        -0.000          -0.000
 -26384334.657 9 -20313018.76948  21204558.208    21204557.4504   21204563.2194
        -0.000          -0.000
 -10685916.795 9  -8044915.00146  23494052.866    23494052.7864   23494058.9884
        -0.000          -0.000
 97  3 12  0 15 29.9990000  0  7 10  4 24  9  7  5 30               -0.000337241
  -9134558.159 9  -6124072.43946  24027082.728    24027081.4884   24027089.7394
        -0.000          -0.000
 -28698954.074 9 -20657383.74548  21090103.048    21090102.9364   21090108.2914
        -0.000          -0.000
 -31316620.670 9 -23186923.48849  20247972.693    20247972.2714   20247978.5644
        -0.000          -0.000
 -24974916.497 9 -19164696.09148  21620407.622    21620407.1744   21620413.1744
        -0.000          -0.000
  -4677822.388 9  -3324572.93945  23676184.048    23676183.3194   23676190.5474
        -0.000          -0.000
 -26467325.780 9 -20377687.15948  21188765.499    21188764.7534   21188770.5014
        -0.000          -0.000
 -10801124.887 9  -8134687.46846  23472129.467    23472129.3434   23472135.5324
        -0.000          -0.000
 97  3 12  0 15 59.9990000  0  7 10  4 24  9  7  5 30               -0.000348832
  -9247592.353 9  -6212150.98046  24005573.059    24005571.8794   24005579.9604
        -0.000          -0.000
 -28657309.227 9 -20624933.21848  21098027.817    21098027.6994   21098033.0764
        -0.000          -0.000
 -31349621.587 9 -23212638.47349  20241692.782    20241692.3684   20241698.6624
        -0.000          -0.000
 -24942157.022 9 -19139169.24748  21626641.556    21626641.1384   21626647.1404
        -0.000          -0.000
  -4627412.530 9  -3285292.56245  23685776.739    23685775.9784   23685783.1444
        -0.000          -0.000
 -26550052.203 9 -20442149.29348  21173023.207    21173022.4424   21173028.2004
        -0.000          -0.000
 -10916285.577 9  -8224423.04146  23450215.095    23450215.0244   23450221.1914
        -0.000          -0.000
 97  3 12  0 16 29.9990000  0  7 10  4 24  9  7  5 30               -0.000360441
  -9360670.995 9  -6300264.14746  23984054.815    23984053.7654   23984061.8034
        -0.000          -0.000
 -28615250.962 9 -20592160.54748  21106031.209    21106031.1094   21106036.4954
        -0.000          -0.000
 -31382118.590 9 -23237960.79349  20235508.778    20235508.3494   20235514.6654
        -0.000          -0.000
 -24909005.720 9 -19113337.07748  21632950.050    21632949.6114   21632955.6264
        -0.000          -0.000
  -4577014.493 9  -3246021.40645  23695367.182    23695366.4494   23695373.6264
        -0.000          -0.000
 -26632524.529 9 -20506413.43048  21157329.242    21157328.4964   21157334.2414
        -0.000          -0.000
 -11031392.780 9  -8314116.91946  23428310.895    23428310.8774   23428317.0324
        -0.000          -0.000
 97  3 12  0 16 59.9990000  0  7 10  4 24  9  7  5 30               -0.000372060
  -9473775.101 9  -6388397.14046  23962531.746    23962530.7054   23962538.6924
        -0.000          -0.000
 -28572775.974 9 -20559063.15548  21114113.938    21114113.8134   21114119.1994
        -0.000          -0.000
 -31414093.023 9 -23262875.91349  20229424.189    20229423.8014   20229430.1094
        -0.000          -0.000
 -24875455.264 9 -19087193.88148  21639334.507    21639334.0914   21639340.1044
        -0.000          -0.000
  -4526608.290 9  -3206743.87445  23704959.209    23704958.5284   23704965.4924
        -0.000          -0.000
 -26714735.321 9 -20570473.77348  21141685.029    21141684.2864   21141690.0274
        -0.000          -0.000
 -11146433.351 9  -8403758.88646  23406419.371    23406419.3934   23406425.4874
        -0.000          -0.000
 97  3 12  0 17 29.9990000  0  7 10  4 24  9  7  5 30               -0.000383684
  -9586904.839 9  -6476550.11246  23941003.907    23941002.6894   23941010.7474
        -0.000          -0.000
 -28529910.045 9 -20525661.13748  21122271.021    21122270.9364   21122276.2794
        -0.000          -0.000
 -31445549.374 9 -23287387.33849  20223438.263    20223437.8754   20223444.1834
        -0.000          -0.000
 -24841500.569 9 -19060735.69848  21645795.844    21645795.4284   21645801.4594
        -0.000          -0.000
  -4476188.619 9  -3167455.84645  23714553.865    23714553.0674   23714560.1054
        -0.000          -0.000
 -26796696.220 9 -20634339.39848  21126088.357    21126087.6344   21126093.3584
        -0.000          -0.000
 -11261405.688 9  -8493347.68446  23384540.861    23384540.8694   23384546.8984
        -0.000          -0.000
 97  3 12  0 17 59.9990000  0  7 10  4 24  9  7  5 30               -0.000395320
  -9700066.117 9  -6564727.65946  23919470.145    23919468.7764   23919476.8664
        -0.000          -0.000
 -28486677.302 9 -20491973.28448  21130497.974    21130497.8814   21130503.1954
        -0.000          -0.000
 -31476497.558 9 -23311502.78649  20217548.996    20217548.6224   20217554.9354
        -0.000          -0.000
 -24807130.258 9 -19033953.65248  21652336.263    21652335.8704   21652341.9084
        -0.000          -0.000
  -4425772.370 9  -3128170.47745  23724147.825    23724147.0054   23724154.0454
        -0.000          -0.000
 -26878404.944 9 -20698008.51848  21110539.707    21110538.9784   21110544.7004
        -0.000          -0.000
 -11376325.117 9  -8582895.26146  23362672.383    23362672.4684   23362678.4324
        -0.000          -0.000
 97  3 12  0 18 29.9990000  0  7 10  4 24  9  7  5 30               -0.000406953
  -9813220.273 9  -6652899.64946  23897937.424    23897936.2224   23897944.2264
        -0.000          -0.000
 -28443066.136 9 -20457990.55848  21138796.902    21138796.8154   21138802.1064
        -0.000          -0.000
 -31506915.514 9 -23335205.06949  20211760.652    20211760.2604   20211766.5554
        -0.000          -0.000
 -24772294.494 9 -19006808.91948  21658965.325    21658964.9204   21658970.9664
        -0.000          -0.000
  -4375333.175 9  -3088867.23845  23733746.145    23733745.2604   23733752.2834
        -0.000          -0.000
 -26959832.949 9 -20761458.89448  21095044.469    21095043.7154   21095049.4404
        -0.000          -0.000
 -11491180.377 9  -8672392.81546  23340816.103    23340816.1594   23340821.9854
        -0.000          -0.000
 97  3 12  0 18 59.9990000  0  7 10  4 24  9  7  5 30               -0.000418593
  -9926381.647 9  -6741077.27046  23876403.435    23876402.3014   23876410.2494
        -0.000          -0.000
 -28399088.729 9 -20423722.45048  21147165.549    21147165.4424   21147170.7214
        -0.000          -0.000
 -31536818.701 9 -23358506.23849  20206070.214    20206069.8194   20206076.1194
        -0.000          -0.000
 -24736995.861 9 -18979303.51648  21665682.461    21665682.0314   21665688.1224
        -0.000          -0.000
  -4324880.160 9  -3049553.23045  23743347.001    23743346.1544   23743353.2864
        -0.000          -0.000
 -27040982.740 9 -20824692.48848  21079602.178    21079601.4264   21079607.1534
        -0.000          -0.000
 -11605992.166 9  -8761856.51246  23318968.121    23318968.1544   23318974.0934
        -0.000          -0.000
 97  3 12  0 19 29.9990000  0  7 10  4 24  9  7  5 30               -0.000430252
 -10039563.750 9  -6829271.04146  23854865.364    23854864.3524   23854872.2634
        -0.000          -0.000
 -28354740.468 9 -20389165.36748  21155604.728    21155604.6204   21155609.9154
        -0.000          -0.000
 -31566235.126 9 -23381428.11149  20200472.451    20200472.0944   20200478.3774
        -0.000          -0.000
 -24701245.898 9 -18951446.42048  21672485.419    21672484.9914   21672491.1184
        -0.000          -0.000
  -4274441.178 9  -3010250.16945  23752945.223    23752944.3094   23752951.5614
        -0.000          -0.000
 -27121869.400 9 -20887721.04548  21064209.943    21064209.2014   21064214.9324
        -0.000          -0.000
 -11720776.204 9  -8851298.58446  23297125.459    23297125.5454   23297131.4004
        -0.000          -0.000
 97  3 12  0 19 59.9990000  0  7 10  4 24  9  7  5 30               -0.000441934
 -10152750.165 9  -6917468.15346  23833326.605    23833325.5324   23833333.3774
        -0.000          -0.000
 -28310003.262 9 -20354305.20748  21164117.938    21164117.8464   21164123.1514
        -0.000          -0.000
 -31595155.815 9 -23403963.69549  20194968.996    20194968.6244   20194974.9144
        -0.000          -0.000
 -24665055.935 9 -18923246.47048  21679372.122    21679371.7134   21679377.8524
        -0.000          -0.000
  -4224023.357 9  -2970963.57145  23762539.462    23762538.5774   23762545.8914
        -0.000          -0.000
 -27202492.914 9 -20950544.55448  21048867.763    21048867.0134   21048872.7604
        -0.000          -0.000
 -11835527.191 9  -8940714.89646  23275289.013    23275289.1034   23275294.9614
        -0.000          -0.000
 97  3 12  0 20 29.9990000  0  7 10  4 24  9  7  5 30               -0.000453636
 -10265943.921 9  -7005671.02446  23811786.676    23811785.4344   23811793.2684
        -0.000          -0.000
 -28264877.456 9 -20319142.24548  21172705.076    21172704.9624   21172710.3054
        -0.000          -0.000
 -31623585.341 9 -23426116.55749  20189559.022    20189558.6494   20189564.9444
        -0.000          -0.000
 -24628463.626 9 -18894733.00848  21686335.484    21686335.0224   21686341.1384
        -0.000          -0.000
  -4173622.758 9  -2931690.41145  23772130.355    23772129.4174   23772136.8794
        -0.000          -0.000
 -27282861.964 9 -21013169.77848  21033573.963    21033573.2404   21033579.0174
        -0.000          -0.000
 -11950235.341 9  -9030097.85046  23253460.714    23253460.8044   23253466.5704
        -0.000          -0.000
 97  3 12  0 20 59.9990000  0  7 10  4 24  9  7  5 30               -0.000465359
 -10379151.106 9  -7093884.35846  23790243.993    23790242.7984   23790250.5004
        -0.000          -0.000
 -28219351.523 9 -20283667.49748  21181368.338    21181368.2544   21181373.6254
        -0.000          -0.000
 -31651535.813 9 -23447896.12949  20184240.209    20184239.8324   20184246.1284
        -0.000          -0.000
 -24591505.240 9 -18865934.28248  21693368.467    21693368.0144   21693374.1184
        -0.000          -0.000
  -4123237.389 9  -2892429.11745  23781718.395    23781717.5004   23781724.9764
        -0.000          -0.000
 -27362985.086 9 -21075603.37648  21018327.065    21018326.3164   21018332.1104
        -0.000          -0.000
 -12064882.793 9  -9119433.47646  23231643.965    23231643.9684   23231649.8704
        -0.000          -0.000
 97  3 12  0 21 29.9990000  0  7 10  4 24  9  7  5 30               -0.000477087
 -10492353.973 9  -7182094.33146  23768702.095    23768700.8814   23768708.6954
        -0.000          -0.000
 -28173425.472 9 -20247880.96748  21190107.791    21190107.6944   21190113.0604
        -0.000          -0.000
 -31678996.185 9 -23469293.80649  20179014.648    20179014.2794   20179020.5654
        -0.000          -0.000
 -24554171.300 9 -18836842.92048  21700472.890    21700472.4564   21700478.5404
        -0.000          -0.000
  -4072853.283 9  -2853168.80145  23791306.123    23791305.1624   23791312.7124
        -0.000          -0.000
 -27442854.820 9 -21137839.53048  21003128.360    21003127.6274   21003133.4104
        -0.000          -0.000
 -12179447.310 9  -9208704.48946  23209842.987    23209843.0104   23209848.8954
        -0.000          -0.000
 97  3 12  0 21 59.9990000  0  7 10  4 24  9  7  5 30               -0.000488810
 -10605539.057 8  -7270290.45746  23747163.597    23747162.4724   23747170.2524
        -0.000          -0.000
 -28127122.916 9 -20211801.05848  21198918.896    21198918.7944   21198924.1574
        -0.000          -0.000
 -31705953.133 9 -23490299.20349  20173884.925    20173884.5604   20173890.8384
        -0.000          -0.000
 -24516464.998 9 -18807461.40948  21707648.129    21707647.7184   21707653.8044
        -0.000          -0.000
  -4022446.186 9  -2813890.57845  23800898.275    23800897.2424   23800904.8414
        -0.000          -0.000
 -27522461.595 9 -21199870.77148  20987979.679    20987978.9454   20987984.6984
        -0.000          -0.000
 -12293923.170 9  -9297906.38846  23188058.962    23188058.9404   23188064.8504
        -0.000          -0.000
 97  3 12  0 22 29.9990000  0  7 10  4 24  9  7  5 30               -0.000500524
 -10718708.323 9  -7358474.24546  23725628.147    23725627.0314   23725634.8034
        -0.000          -0.000
 -28080455.740 9 -20175437.03048  21207799.364    21207799.2564   21207804.6134
        -0.000          -0.000
 -31732396.411 9 -23510904.33549  20168852.906    20168852.5444   20168858.8194
        -0.000          -0.000
 -24478364.696 9 -18777772.88448  21714898.398    21714897.9894   21714904.1094
        -0.000          -0.000
  -3971997.728 9  -2774580.12145  23810498.380    23810497.4754   23810504.9664
        -0.000          -0.000
 -27601803.751 9 -21261695.81948  20972881.339    20972880.6074   20972886.3634
        -0.000          -0.000
 -12408305.276 9  -9387035.27246  23166292.810    23166292.7294   23166298.6864
        -0.000          -0.000
 97  3 12  0 22 59.9990000  0  7 10  4 24  9  7  5 30               -0.000512229
 -10831843.472 9  -7446631.45746  23704099.343    23704098.0744   23704105.7654
        -0.000          -0.000
 -28033421.174 9 -20138786.72548  21216749.740    21216749.6304   21216755.0064
        -0.000          -0.000
 -31758322.717 9 -23531106.63549  20163919.257    20163918.9004   20163925.1764
        -0.000          -0.000
 -24439833.962 9 -18747748.95548  21722230.570    21722230.1434   21722236.2594
        -0.000          -0.000
  -3921515.203 9  -2735243.13045  23820105.004    23820104.1754   23820111.3984
        -0.000          -0.000
 -27680879.709 9 -21323313.44148  20957833.701    20957832.9644   20957838.7304
        -0.000          -0.000
 -12522601.522 9  -9476097.21846  23144542.885    23144542.8264   23144548.8174
        -0.000          -0.000
 97  3 12  0 23 29.9990000  0  7 10  4 24  9  7  5 30               -0.000523940
 -10944953.243 9  -7534768.90246  23682575.233    23682574.0254   23682581.7434
        -0.000          -0.000
 -27986045.477 9 -20101870.60548  21225765.058    21225764.9494   21225770.2864
        -0.000          -0.000
 -31783727.348 9 -23550902.43349  20159084.900    20159084.5464   20159090.8024
        -0.000          -0.000
 -24400868.017 9 -18717385.90248  21729645.534    21729645.1304   21729651.2104
        -0.000          -0.000
  -3871019.341 9  -2695895.73845  23829714.090    23829713.2624   23829720.4284
        -0.000          -0.000
 -27759699.525 9 -21384731.47548  20942834.802    20942834.0484   20942839.8154
        -0.000          -0.000
 -12636837.220 9  -9565111.99546  23122804.558    23122804.4364   23122810.4014
        -0.000          -0.000
 97  3 12  0 23 59.9990000  0  7 10  4 24  9  7  5 30               -0.000535664
 -11058039.490 9  -7622888.01246  23661055.513    23661054.4334   23661062.1644
        -0.000          -0.000
 -27938310.711 9 -20064674.69048  21234848.670    21234848.5604   21234853.9294
        -0.000          -0.000
 -31808592.165 9 -23570277.59549  20154353.258    20154352.9024   20154359.1524
        -0.000          -0.000
 -24361462.104 9 -18686680.01148  21737144.256    21737143.8584   21737149.9114
        -0.000          -0.000
  -3820516.042 8  -2656542.55245  23839324.565    23839323.8094   23839331.0334
        -0.000          -0.000
 -27838244.151 9 -21445935.06749  20927888.215    20927887.4954   20927893.2364
        -0.000          -0.000
 -12751000.452 9  -9654070.31446  23101079.922    23101079.9054   23101085.7944
        -0.000          -0.000
 97  3 12  0 24 29.9990000  0  7 10  4 24  9  7  5 30               -0.000547410
 -11171113.842 9  -7710997.83646  23639538.035    23639537.0494   23639544.7374
        -0.000          -0.000
 -27890215.166 9 -20027197.65248  21244000.924    21244000.8444   21244006.2234
        -0.000          -0.000
 -31832924.698 9 -23589237.99449  20149722.898    20149722.5474   20149728.8084
        -0.000          -0.000
 -24321626.348 9 -18655639.17948  21744724.712    21744724.2814   21744730.3744
        -0.000          -0.000
  -3770027.618 9  -2617200.96745  23848932.167    23848931.3784   23848938.7384
        -0.000          -0.000
 -27916504.047 9 -21506916.79749  20912995.848    20912995.1254   20913000.8694
        -0.000          -0.000
 -12865083.456 9  -9742966.12246  23079370.626    23079370.5744   23079376.4654
        -0.000          -0.000
 97  3 12  0 24 59.9990000  0  7 10  4 24  9  7  5 30               -0.000559171
 -11284167.367 9  -7799091.45446  23618024.656    23618023.6334   23618031.3504
        -0.000          -0.000
 -27841748.007 9 -19989431.03848  21253223.874    21253223.8094   21253229.1684
        -0.000          -0.000
 -31856734.384 9 -23607790.98149  20145192.039    20145191.7044   20145197.9904
        -0.000          -0.000
 -24281378.905 9 -18624277.56148  21752383.521    21752383.1294   21752389.2214
        -0.000          -0.000
  -3719548.348 9  -2577866.51445  23858538.026    23858537.2584   23858544.5964
        -0.000          -0.000
 -27994437.186 9 -21567643.91149  20898165.653    20898164.9424   20898170.6884
        -0.000          -0.000
 -12979072.067 9  -9831788.35646  23057679.223    23057679.2304   23057685.1244
        -0.000          -0.000
 97  3 12  0 25 29.9990000  0  7 10  4 24  9  7  5 30               -0.000570953
 -11397220.852 9  -7887185.04446  23596511.253    23596510.1964   23596517.9024
        -0.000          -0.000
 -27792927.935 9 -19951389.43348  21262514.019    21262513.9784   21262519.3544
        -0.000          -0.000
 -31880023.893 9 -23625938.63549  20140760.169    20140759.8224   20140766.1234
        -0.000          -0.000
 -24240737.970 9 -18592609.31448  21760117.186    21760116.8244   21760122.9444
        -0.000          -0.000
  -3669070.121 9  -2538532.88045  23868143.725    23868142.9884   23868150.3834
        -0.000          -0.000
 -28072036.304 9 -21628110.74749  20883399.049    20883398.3244   20883404.0754
        -0.000          -0.000
 -13092971.187 9  -9920540.87446  23036004.914    23036004.9164   23036010.7504
        -0.000          -0.000
 97  3 12  0 25 59.9990000  0  7 10  4 24  9  7  5 30               -0.000582757
 -11510275.995 9  -7975279.91146  23574997.426    23574996.4104   23575004.2344
        -0.000          -0.000
 -27743757.850 9 -19913075.08548  21271870.750    21271870.7204   21271876.1164
        -0.000          -0.000
 -31902822.852 9 -23643704.04749  20136421.647    20136421.3164   20136427.6264
        -0.000          -0.000
 -24199719.931 9 -18560647.22048  21767922.648    21767922.3014   21767928.4494
        -0.000          -0.000
  -3618580.845 9  -2499190.63345  23877751.442    23877750.7474   23877758.2074
        -0.000          -0.000
 -28149298.401 9 -21688314.96649  20868696.532    20868695.8034   20868701.5624
        -0.000          -0.000
 -13206796.531 9 -10009235.90746  23014344.611    23014344.6314   23014350.4714
        -0.000          -0.000
 97  3 12  0 26 29.9990000  0  7 10  4 24  9  7  5 30               -0.000594574
 -11623322.671 9  -8063368.17846  23553485.294    23553484.2524   23553492.0634
        -0.000          -0.000
 -27694243.878 9 -19874492.77848  21281292.946    21281292.8974   21281298.3084
        -0.000          -0.000
 -31925156.350 9 -23661106.75849  20132171.723    20132171.3884   20132177.6934
        -0.000          -0.000
 -24158334.771 9 -18528399.06448  21775797.996    21775797.6594   21775803.8264
        -0.000          -0.000
  -3568067.280 9  -2459829.43745  23887363.931    23887363.1924   23887370.6674
        -0.000          -0.000
 -28226229.600 9 -21748261.34749  20854056.955    20854056.2374   20854062.0204
        -0.000          -0.000
 -13320560.207 9 -10097882.90646  22992696.097    22992696.1184   22992701.9444
        -0.000          -0.000
 97  3 12  0 26 59.9990000  0  7 10  4 24  9  7  5 30               -0.000606402
 -11736349.917 9  -8151441.28946  23531976.900    23531975.8634   23531983.7134
        -0.000          -0.000
 -27644369.844 9 -19835629.89448  21290783.646    21290783.6074   21290788.9984
        -0.000          -0.000
 -31947015.773 9 -23678140.06049  20128011.979    20128011.6574   20128017.9744
        -0.000          -0.000
 -24116560.081 9 -18495847.37748  21783747.518    21783747.1564   21783753.2804
        -0.000          -0.000
  -3517518.829 9  -2420441.05945  23896983.152    23896982.2734   23896989.7724
        -0.000          -0.000
 -28302844.567 9 -21807961.30449  20839477.588    20839476.8704   20839482.6634
        -0.000          -0.000
 -13434261.680 9 -10186481.41046  22971059.360    22971059.3274   22971065.2544
        -0.000          -0.000
 97  3 12  0 27 29.9990000  0  7 10  4 24  9  7  5 30               -0.000618255
 -11849362.610 9  -8239503.05846  23510471.230    23510470.1914   23510478.0924
        -0.000          -0.000
 -27594151.396 9 -19796498.64148  21300339.970    21300339.9014   21300345.2784
        -0.000          -0.000
 -31968413.628 9 -23694813.69849  20123940.054    20123939.7264   20123946.0474
        -0.000          -0.000
 -24074404.488 9 -18462998.88348  21791769.473    21791769.0924   21791775.2054
        -0.000          -0.000
  -3466969.109 9  -2381051.69545  23906602.501    23906601.5544   23906609.0394
        -0.000          -0.000
 -28379193.244 9 -21867453.76249  20824948.878    20824948.1684   20824953.9724
        -0.000          -0.000
 -13547921.224 9 -10275047.25446  22949430.562    22949430.5504   22949436.5064
        -0.000          -0.000
 97  3 12  0 27 59.9990000  0  7 10  4 24  9  7  5 30               -0.000630122
 -11962335.660 9  -8327533.93146  23488973.084    23488972.0534   23488979.9254
        -0.000          -0.000
 -27543577.411 9 -19757090.34248  21309963.880    21309963.7994   21309969.1904
        -0.000          -0.000
 -31989337.398 9 -23711117.92049  20119958.383    20119958.0434   20119964.3594
        -0.000          -0.000
 -24031874.000 9 -18429858.25448  21799862.771    21799862.3794   21799868.4734
        -0.000          -0.000
  -3416424.173 9  -2341666.05845  23916220.993    23916220.0454   23916227.5744
        -0.000          -0.000
 -28455267.277 9 -21926732.21949  20810472.443    20810471.7404   20810477.5664
        -0.000          -0.000
 -13661505.298 9 -10363554.28746  22927816.191    22927816.1934   22927822.1424
        -0.000          -0.000
 97  3 12  0 28 29.9990000  0  7 10  4 24  9  7  5 30               -0.000642002
 -12075262.004 9  -8415528.41746  23467483.912    23467482.8204   23467490.7204
        -0.000          -0.000
 -27492644.358 9 -19717402.25548  21319656.044    21319655.9894   21319661.3854
        -0.000          -0.000
 -32009766.404 9 -23727036.61349  20116070.887    20116070.5444   20116076.8514
        -0.000          -0.000
 -23988965.525 9 -18396423.10248  21808028.014    21808027.6364   21808033.7124
        -0.000          -0.000
  -3365900.914 9  -2302297.30245  23925835.290    23925834.3104   23925841.7954
        -0.000          -0.000
 -28531066.081 9 -21985796.21449  20796048.389    20796047.7064   20796053.5254
        -0.000          -0.000
 -13774988.614 9 -10451982.81846  22906221.004    22906221.0234   22906226.9444
        -0.000          -0.000
 97  3 12  0 28 59.9990000  0  7 10  4 24  9  7  5 30               -0.000653894
 -12188128.116 9  -8503475.97646  23446006.160    23446005.0694   23446012.9264
        -0.000          -0.000
 -27441369.398 9 -19677447.74548  21329413.351    21329413.3144   21329418.7354
        -0.000          -0.000
 -32029687.992 9 -23742559.91149  20112279.910    20112279.5694   20112285.8834
        -0.000          -0.000
 -23945679.999 9 -18362694.13348  21816264.997    21816264.6044   21816270.7254
        -0.000          -0.000
  -3315402.413 9  -2262947.85045  23935444.832    23935443.8474   23935451.4364
        -0.000          -0.000
 -28606584.423 9 -22044641.66649  20781677.710    20781677.0144   20781682.8204
        -0.000          -0.000
 -13888361.673 9 -10540325.42446  22884646.831    22884646.8194   22884652.7254
        -0.000          -0.000
 97  3 12  0 29 29.9990000  0  7 10  4 24  9  7  5 30               -0.000665783
 -12300909.538 9  -8591357.52146  23424544.496    23424543.4564   23424551.2644
        -0.000          -0.000
 -27389766.385 9 -19637237.61948  21339233.103    21339233.0764   21339238.4824
        -0.000          -0.000
 -32049097.047 9 -23757683.83549  20108586.488    20108586.1364   20108592.4284
        -0.000          -0.000
 -23902022.398 9 -18328675.23948  21824572.741    21824572.3834   21824578.5294
        -0.000          -0.000
  -3264909.885 9  -2223603.05145  23945053.222    23945052.2354   23945059.8764
        -0.000          -0.000
 -28681784.356 9 -22103239.00649  20767367.647    20767366.9514   20767372.7264
        -0.000          -0.000
 -14001605.859 9 -10628567.60546  22863097.157    22863097.1474   22863103.0744
        -0.000          -0.000
 97  3 12  0 29 59.9990000  0  7 10  4 24  9  7  5 30               -0.000677673
 -12413625.918 9  -8679188.40046  23403095.206    23403094.1654   23403101.9864
        -0.000          -0.000
 -27337858.957 9 -19596790.27748  21349110.758    21349110.7184   21349116.1264
        -0.000          -0.000
 -32068016.600 9 -23772426.32849  20104986.199    20104985.8584   20104992.1574
        -0.000          -0.000
 -23858008.327 9 -18294378.57848  21832948.387    21832948.0154   21832954.1694
        -0.000          -0.000
  -3214429.254 9  -2184267.52245  23954659.302    23954658.3854   23954666.0154
        -0.000          -0.000
 -28756668.883 9 -22161590.57349  20753117.607    20753116.8864   20753122.6674
        -0.000          -0.000
 -14114728.433 9 -10716715.02246  22841570.649    22841570.6304   22841576.4994
        -0.000          -0.000
 97  3 12  0 30 29.9990000  0  7 10  4 24  9  7  5 30               -0.000689556
 -12526265.250 9  -8766959.25646  23381660.647    23381659.6144   23381667.4094
        -0.000          -0.000
 -27285636.719 9 -19556097.63748  21359048.300    21359048.2594   21359053.6514
        -0.000          -0.000
 -32086447.303 9 -23786787.90049  20101478.951    20101478.6064   20101484.9074
        -0.000          -0.000
 -23813616.724 9 -18259787.73348  21841395.918    21841395.5364   21841401.6724
        -0.000          -0.000
  -3163940.671 8  -2144925.80945  23964266.957    23964266.1244   23964273.8244
        -0.000          -0.000
 -28831233.567 9 -22219692.91449  20738928.427    20738927.7194   20738933.4744
        -0.000          -0.000
 -14227732.880 9 -10804770.39646  22820066.616    22820066.6074   22820072.4404
        -0.000          -0.000
 97  3 12  0 30 59.9990000  0  7 10  4 24  9  7  5 30               -0.000701433
 -12638829.009 9  -8854671.20346  23360240.380    23360239.3634   23360247.1114
        -0.000          -0.000
 -27233120.951 9 -19515176.27148  21369041.723    21369041.6704   21369047.0444
        -0.000          -0.000
 -32104393.379 9 -23800771.84549  20098063.904    20098063.5604   20098069.8654
        -0.000          -0.000
 -23768858.333 9 -18224911.08548  21849913.159    21849912.7904   21849918.9294
        -0.000          -0.000
  -3113444.152 9  -2105577.91345  23973876.089    23973875.2214   23973882.8024
        -0.000          -0.000
 -28905481.345 9 -22277548.32249  20724799.556    20724798.8504   20724804.5654
        -0.000          -0.000
 -14340618.559 9 -10892733.22746  22798585.209    22798585.1784   22798590.9564
        -0.000          -0.000
 97  3 12  0 31 29.9990000  0  7 10  4 24  9  7  5 30               -0.000713313
 -12751332.238 9  -8942336.00146  23338831.598    23338830.6144   23338838.4014
        -0.000          -0.000
 -27180298.733 9 -19474016.11348  21379093.524    21379093.4614   21379098.8214
        -0.000          -0.000
 -32121856.903 9 -23814379.77749  20094740.667    20094740.3214   20094746.6424
        -0.000          -0.000
 -23723740.073 9 -18189754.02048  21858498.895    21858498.4974   21858504.6624
        -0.000          -0.000
  -3062941.592 8  -2066225.30645  23983486.413    23983485.5184   23983493.1504
        -0.000          -0.000
 -28979418.107 9 -22335161.37249  20710729.880    20710729.1514   20710734.8784
        -0.000          -0.000
 -14453389.033 9 -10980606.28546  22777125.693    22777125.7044   22777131.4224
        -0.000          -0.000
 97  3 12  0 31 59.9990000  0  7 10  4 24  9  7  5 30               -0.000725209
 -12863778.345 9  -9029956.29846  23317433.859    23317432.7874   23317440.5954
        -0.000          -0.000
 -27127149.359 9 -19432601.02448  21389207.491    21389207.4404   21389212.8234
        -0.000          -0.000
 -32138826.835 9 -23827603.09149  20091511.371    20091511.0164   20091517.3244
        -0.000          -0.000
 -23678272.170 9 -18154324.50548  21867151.140    21867150.7574   21867156.8824
        -0.000          -0.000
  -3012439.655 8  -2026873.18445  23993096.706    23993095.8064   23993103.4374
        -0.000          -0.000
 -29053060.829 9 -22392545.29949  20696716.114    20696715.4024   20696721.1464
        -0.000          -0.000
 -14566053.129 9 -11068396.44347  22755686.386    22755686.3964   22755692.1194
        -0.000          -0.000
 97  3 12  0 32 29.9990000  0  7 10  4 24  9  7  5 30               -0.000737129
 -12976168.755 9  -9117533.18346  23296046.694    23296045.5934   23296053.3804
        -0.000          -0.000
 -27073680.591 9 -19390937.06548  21399382.298    21399382.2264   21399387.6334
        -0.000          -0.000
 -32155286.528 9 -23840428.81849  20088379.175    20088378.8454   20088385.1354
        -0.000          -0.000
 -23632468.137 9 -18118633.07048  21875867.364    21875866.9824   21875873.1084
        -0.000          -0.000
  -2961929.460 9  -1987514.62045  24002708.439    24002707.5514   24002715.1624
        -0.000          -0.000
 -29126407.551 9 -22449698.57749  20682758.725    20682758.0044   20682763.7314
        -0.000          -0.000
 -14678613.267 9 -11156105.60147  22734266.905    22734266.8554   22734272.5794
        -0.000          -0.000
 97  3 12  0 32 59.9990000  0  7 10  4 24  9  7  5 30               -0.000749074
 -13088502.952 9  -9205066.26346  23274670.087    23274668.9524   23274676.8674
        -0.000          -0.000
 -27019896.520 9 -19349027.40948  21409617.024    21409616.9604   21409622.3754
        -0.000          -0.000
 -32171227.597 9 -23852850.42049  20085345.675    20085345.3454   20085351.6474
        -0.000          -0.000
 -23586331.264 9 -18082682.27348  21884646.970    21884646.5644   21884652.6934
        -0.000          -0.000
  -2911402.585 8  -1948143.03945  24012323.411    24012322.3764   24012330.2574
        -0.000          -0.000
 -29199445.896 9 -22506611.56549  20668859.976    20668859.2374   20668864.9724
        -0.000          -0.000
 -14791065.367 9 -11243730.57947  22712867.931    22712867.9294   22712873.6524
        -0.000          -0.000
 97  3 12  0 33 29.9990000  0  7 10  4 24  9  7  5 30               -0.000761048
 -13200784.055 9  -9292557.97746  23253303.685    23253302.5734   23253310.3594
        -0.000          -0.000
 -26965786.554 9 -19306863.80448  21419913.804    21419913.7424   21419919.1784
        -0.000          -0.000
 -32186652.576 9 -23864869.87049  20082410.363    20082410.0374   20082416.3404
        -0.000          -0.000
 -23539850.931 9 -18046463.84948  21893491.905    21893491.5214   21893497.6314
        -0.000          -0.000
  -2860854.725 8  -1908755.11845  24021942.351    24021941.3464   24021949.2254
        -0.000          -0.000
 -29272170.795 9 -22563280.30649  20655020.863    20655020.1374   20655025.8704
        -0.000          -0.000
 -14903423.049 9 -11331281.97447  22691486.907    22691486.8614   22691492.5944
        -0.000          -0.000
 97  3 12  0 33 59.9990000  0  7 10  4 24  9  7  5 30               -0.000773041
 -13312994.700 9  -9379994.78546  23231950.605    23231949.5664   23231957.3544
        -0.000          -0.000
 -26911358.717 9 -19264452.51248  21430271.097    21430271.0424   21430276.4654
        -0.000          -0.000
 -32201558.287 9 -23876484.70149  20079573.886    20079573.5804   20079579.8984
        -0.000          -0.000
 -23493002.317 9 -18009958.45648  21902406.909    21902406.5104   21902412.6224
        -0.000          -0.000
  -2810288.081 8  -1869352.54845  24031564.990    24031563.9044   24031571.6814
        -0.000          -0.000
 -29344569.688 9 -22619695.02249  20641243.759    20641243.0554   20641248.7844
        -0.000          -0.000
 -15015672.210 9 -11418748.80847  22670126.564    22670126.5584   22670132.2534
        -0.000          -0.000
 97  3 12  0 34 29.9990000  0  8 10  4  6 24  9  7  5 30            -0.000785086
 -13425141.211 9  -9467381.63046  23210609.711    23210608.7404   23210616.5074
        -0.000          -0.000
 -26856635.420 9 -19221810.99848  21440684.613    21440684.5634   21440689.9714
        -0.000          -0.000
  -4301956.85518  -2684393.66355  24624452.713    24624452.4275   24624460.4605
        -0.000          -0.000
 -32215968.657 9 -23887713.54549  20076831.668    20076831.3394   20076837.6444
        -0.000          -0.000
 -23445781.751 9 -17973163.23348  21911392.632    21911392.2294   21911398.3694
        -0.000          -0.000
  -2759720.200 8  -1829949.02845  24041187.647    24041186.7524   24041194.4524
        -0.000          -0.000
 -29416641.521 9 -22675854.88749  20627528.952    20627528.2494   20627533.9704
        -0.000          -0.000
 -15127814.225 9 -11506132.17747  22648786.635    22648786.6024   22648792.2694
        -0.000          -0.000
 97  3 12  0 34 59.9990000  0  8 10  4  6 24  9  7  5 30            -0.000797115
 -13537223.500 9  -9554718.41746  23189281.192    23189280.1864   23189287.9014
        -0.000          -0.000
 -26801620.440 9 -19178942.18748  21451153.657    21451153.5664   21451158.9494
        -0.000          -0.000
  -4391579.170 8  -2754229.16645  24607398.008    24607397.5544   24607405.7404
        -0.000          -0.000
 -32229909.339 9 -23898576.40249  20074178.846    20074178.5354   20074184.8384
        -0.000          -0.000
 -23398190.370 9 -17936079.06248  21920448.919    21920448.5394   21920454.7124
        -0.000          -0.000
  -2709177.592 8  -1790565.14445  24050805.348    24050804.2444   24050812.1434
        -0.000          -0.000
 -29488394.367 9 -22731766.18449  20613874.818    20613874.1324   20613879.8494
        -0.000          -0.000
 -15239863.191 9 -11593443.03047  22627464.299    22627464.2834   22627469.9714
        -0.000          -0.000
 97  3 12  0 35 29.9990000  0  8 10  4  6 24  9  7  5 30            -0.000809160
 -13649204.836 9  -9641976.55846  23167971.821    23167970.7584   23167978.4804
        -0.000          -0.000
 -26746296.087 9 -19135832.31348  21461681.514    21461681.4474   21461686.8134
        -0.000          -0.000
  -4481175.970 8  -2824044.74945  24590348.230    24590347.6774   24590355.9184
        -0.000          -0.000
 -32243368.442 9 -23909064.00349  20071617.643    20071617.3194   20071623.6294
        -0.000          -0.000
 -23350222.633 9 -17898701.62448  21929576.880    21929576.5004   21929582.6934
        -0.000          -0.000
  -2658654.286 8  -1751196.36545  24060419.494    24060418.4984   24060426.4054
        -0.000          -0.000
 -29559809.970 9 -22787414.70049  20600284.887    20600284.2004   20600289.8854
        -0.000          -0.000
 -15351805.215 9 -11680670.54247  22606162.378    22606162.3804   22606168.0834
        -0.000          -0.000
 97  3 12  0 35 59.9990000  0  8 10  4  6 24  9  7  5 30            -0.000821223
 -13761084.463 9  -9729155.43646  23146681.820    23146680.7864   23146688.3784
        -0.000          -0.000
 -26690677.317 9 -19092493.01448  21472265.403    21472265.3304   21472270.7244
        -0.000          -0.000
  -4570763.488 8  -2893853.13345  24573300.287    24573299.7294   24573307.6514
        -0.000          -0.000
 -32256361.448 9 -23919188.40949  20069145.126    20069144.8004   20069151.1344
        -0.000          -0.000
 -23301911.562 9 -17861056.65848  21938770.208    21938769.7764   21938776.0004
        -0.000          -0.000
  -2608157.112 8  -1711847.95445  24070028.755    24070028.1584   24070035.4674
        -0.000          -0.000
 -29630904.078 9 -22842812.69849  20586756.122    20586755.4364   20586761.0924
        -0.000          -0.000
 -15463639.133 9 -11767813.82047  22584881.020    22584881.0334   22584886.7824
        -0.000          -0.000
 97  3 12  0 36 29.9990000  0  8 10  4  6 24  9  7  5 30            -0.000833302
 -13872854.489 9  -9816248.92046  23125412.658    23125411.6814   23125419.2304
        -0.000          -0.000
 -26634763.130 9 -19048923.53148  21482905.502    21482905.4444   21482910.8704
        -0.000          -0.000
  -4660344.358 8  -2963656.31445  24556253.565    24556252.9304   24556260.9704
        -0.000          -0.000
 -32268887.566 9 -23928949.00949  20066761.451    20066761.1204   20066767.4594
        -0.000          -0.000
 -23253288.227 9 -17823168.36548  21948022.915    21948022.5104   21948028.7474
        -0.000          -0.000
  -2557670.541 8  -1672507.81545  24079636.102    24079635.2464   24079642.7734
        -0.000          -0.000
 -29701674.600 9 -22897958.55649  20573288.908    20573288.2294   20573293.8884
        -0.000          -0.000
 -15575358.398 9 -11854867.76747  22563621.482    22563621.5404   22563627.2694
        -0.000          -0.000
 97  3 12  0 36 59.9990000  0  8 10  4  6 24  9  7  5 30            -0.000845383
 -13984504.798 9  -9903249.12546  23104166.396    23104165.2694   23104172.8554
        -0.000          -0.000
 -26578559.277 9 -19005128.33048  21493600.737    21493600.6704   21493606.1154
        -0.000          -0.000
  -4749902.562 8  -3033441.85445  24539211.250    24539210.6984   24539218.5654
        -0.000          -0.000
 -32280943.156 9 -23938342.96449  20064467.362    20064467.0294   20064473.3504
        -0.000          -0.000
 -23204355.201 9 -17785038.76048  21957334.590    21957334.1644   21957340.4554
        -0.000          -0.000
  -2507166.768 8  -1633154.26845  24089246.691    24089245.9024   24089253.4914
        -0.000          -0.000
 -29772107.312 9 -22952841.18549  20559886.015    20559885.3384   20559890.9934
        -0.000          -0.000
 -15686959.504 9 -11941829.65247  22542384.493    22542384.5424   22542390.2824
        -0.000          -0.000
 97  3 12  0 37 29.9990000  0  8 10  4  6 24  9  7  5 30            -0.000857461
 -14096050.353 9  -9990167.67646  23082939.921    23082938.8244   23082946.3774
        -0.000          -0.000
 -26522061.056 9 -18961103.75348  21504351.963    21504351.9074   21504357.4014
        -0.000          -0.000
  -4839429.934 8  -3103203.31945  24522174.530    24522174.0224   24522182.0474
        -0.000          -0.000
 -32292541.878 9 -23947380.91849  20062260.177    20062259.8374   20062266.1474
        -0.000          -0.000
 -23155119.973 9 -17746673.66848  21966703.773    21966703.3584   21966709.6754
        -0.000          -0.000
  -2456637.139 8  -1593780.54645  24098862.353    24098861.5854   24098869.0204
        -0.000          -0.000
 -29842206.551 9 -23007463.97049  20546546.584    20546545.8924   20546551.5354
        -0.000          -0.000
 -15798426.887 9 -12028687.34047  22521172.945    22521173.0164   22521178.7414
        -0.000          -0.000
 97  3 12  0 37 59.9990000  0  8 10  4  6 24  9  7  5 30            -0.000869542
 -14207517.868 9 -10077025.43546  23061728.261    23061727.2394   23061734.7834
        -0.000          -0.000
 -26465271.592 9 -18916852.23648  21515158.618    21515158.5764   21515164.0634
        -0.000          -0.000
  -4928929.314 8  -3172943.01245  24505143.202    24505142.8034   24505150.7484
        -0.000          -0.000
 -32303692.069 9 -23956069.37149  20060138.347    20060138.0064   20060144.3204
        -0.000          -0.000
 -23105579.709 9 -17708070.88548  21976130.926    21976130.5314   21976136.8684
        -0.000          -0.000
  -2406091.066 8  -1554394.00945  24108481.131    24108480.3164   24108487.7754
        -0.000          -0.000
 -29911970.420 9 -23061825.42449  20533270.951    20533270.2534   20533275.9094
        -0.000          -0.000
 -15909749.919 9 -12115432.52347  22499988.915    22499988.9614   22499994.6614
        -0.000          -0.000
 97  3 12  0 38 29.9990000  0  8 10  4  6 24  9  7  5 30            -0.000881624
 -14318909.174 9 -10163823.77546  23040531.121    23040530.1334   23040537.7094
        -0.000          -0.000
 -26408197.650 9 -18872379.05048  21526019.449    21526019.4174   21526024.8754
        -0.000          -0.000
  -5018397.002 8  -3242657.99845  24488118.088    24488117.6694   24488125.3984
        -0.000          -0.000
 -32314404.282 9 -23964416.54149  20058099.839    20058099.5074   20058105.8394
        -0.000          -0.000
 -23055725.668 9 -17669223.60948  21985617.839    21985617.4444   21985623.8284
        -0.000          -0.000
  -2355528.986 9  -1514995.00846  24118102.828    24118102.0054   24118109.4574
        -0.000          -0.000
 -29981380.864 9 -23115911.47949  20520062.570    20520061.8674   20520067.5154
        -0.000          -0.000
 -16020921.500 9 -12202059.70547  22478833.700    22478833.7084   22478839.3714
        -0.000          -0.000
 97  3 12  0 38 59.9990000  0  8 10  4  6 24  9  7  5 30            -0.000893708
 -14430227.293 9 -10250565.11246  23019348.019    23019346.9584   23019354.5464
        -0.000          -0.000
 -26350826.567 9 -18827674.32248  21536936.839    21536936.7994   21536942.2214
        -0.000          -0.000
  -5107837.696 8  -3312351.92245  24471097.966    24471097.6914   24471105.5134
        -0.000          -0.000
 -32324675.111 9 -23972419.77549  20056145.365    20056145.0304   20056151.3684
        -0.000          -0.000
 -23005543.874 9 -17630120.93348  21995167.055    21995166.6834   21995173.0874
        -0.000          -0.000
  -2304942.960 9  -1475577.34546  24127729.147    24127728.2814   24127735.8364
        -0.000          -0.000
 -30050421.778 9 -23169709.58949  20506924.525    20506923.8124   20506929.5034
        -0.000          -0.000
 -16131933.454 9 -12288562.51347  22457708.805    22457708.8314   22457714.4584
        -0.000          -0.000
 97  3 12  0 39 29.9990000  0  8 10  4  6 24  9  7  5 30            -0.000905801
 -14541465.253 9 -10337244.00246  22998180.079    22998179.0524   22998186.5744
        -0.000          -0.000
 -26293152.591 9 -18782733.57448  21547911.844    21547911.8014   21547917.1944
        -0.000          -0.000
  -5197261.664 8  -3382032.86245  24454081.190    24454080.8124   24454088.7214
        -0.000          -0.000
 -32334494.856 9 -23980071.52149  20054276.729    20054276.3934   20054282.7284
        -0.000          -0.000
 -22955042.054 9 -17590768.89048  22004777.254    22004776.8904   22004783.2594
        -0.000          -0.000
  -2254347.922 9  -1436152.64846  24137357.127    24137356.2664   24137363.8404
        -0.000          -0.000
 -30119091.249 9 -23223218.26749  20493857.114    20493856.4184   20493862.1104
        -0.000          -0.000
 -16242774.217 9 -12374931.91447  22436616.506    22436616.5044   22436622.1424
        -0.000          -0.000
 97  3 12  0 39 59.9990000  0  7 10  4  6 24  9  5 30               -0.000917881
 -14652588.382 9 -10423833.39646  22977033.988    22977033.0114   22977040.4414
        -0.000          -0.000
 -26235190.657 9 -18737568.44248  21558941.650    21558941.6154   21558947.0074
        -0.000          -0.000
  -5286679.116 8  -3451708.71245  24437065.541    24437065.0624   24437073.1494
        -0.000          -0.000
 -32343832.407 9 -23987347.52949  20052499.848    20052499.5144   20052505.8374
        -0.000          -0.000
 -22904215.920 9 -17551164.13548  22014449.182    22014448.8344   22014455.1834
        -0.000          -0.000
 -30187370.552 9 -23276422.91349  20480863.961    20480863.2834   20480868.9804
        -0.000          -0.000
 -16353445.273 9 -12461169.07547  22415556.480    22415556.4834   22415562.1374
        -0.000          -0.000
 97  3 12  0 40 29.9990000  0  7 10  4  6 24  9  5 30               -0.000930016
 -14763599.237 9 -10510335.30346  22955909.257    22955908.3164   22955915.7464
        -0.000          -0.000
 -26176965.284 9 -18692198.03248  21570021.575    21570021.5454   21570026.9464
        -0.000          -0.000
  -5376117.275 8  -3521400.69445  24420045.876    24420045.4944   24420053.6494
        -0.000          -0.000
 -32352699.662 9 -23994257.06749  20050812.475    20050812.1224   20050818.4444
        -0.000          -0.000
 -22853087.177 9 -17511323.57548  22024178.672    22024178.3194   22024184.6434
        -0.000          -0.000
 -30255286.930 9 -23329344.76249  20467939.864    20467939.2014   20467944.8984
        -0.000          -0.000
 -16463964.021 9 -12547287.56047  22394525.439    22394525.4634   22394531.0824
        -0.000          -0.000
 97  3 12  0 40 59.9990000  0  7 10  4  6 24  9  5 30               -0.000942185
 -14874500.204 9 -10596751.59946  22934805.438    22934804.5154   22934811.9674
        -0.000          -0.000
 -26118480.077 9 -18646625.15948  21581150.930    21581150.8804   21581156.3404
        -0.000          -0.000
  -5465577.347 8  -3591109.77945  24403022.008    24403021.7104   24403029.9004
        -0.000          -0.000
 -32361085.466 9 -24000791.45549  20049216.675    20049216.3464   20049222.6764
        -0.000          -0.000
 -22801668.195 9 -17471256.86048  22033963.414    22033963.0844   22033969.3824
        -0.000          -0.000
 -30322866.506 9 -23382004.16849  20455079.917    20455079.2434   20455084.9364
        -0.000          -0.000
 -16574353.792 9 -12633305.54447  22373518.913    22373518.9254   22373524.5704
        -0.000          -0.000
 97  3 12  0 41 29.9990000  0  7 10  4  6 24  9  5 30               -0.000954381
 -14985270.535 9 -10683066.08946  22913726.554    22913725.6284   22913733.0494
        -0.000          -0.000
 -26059735.030 9 -18600849.80648  21592329.740    21592329.7014   21592335.1814
        -0.000          -0.000
  -5555046.038 8  -3660825.59245  24385996.672    24385996.4054   24386004.0654
        -0.000          -0.000
 -32368975.347 9 -24006939.40549  20047715.300    20047714.9764   20047721.3034
        -0.000          -0.000
 -22749948.116 9 -17430955.52347  22043805.450    22043805.1214   22043811.4204
        -0.000          -0.000
 -30390110.740 9 -23434402.26349  20442283.763    20442283.0724   20442288.7904
        -0.000          -0.000
 -16684616.923 9 -12719224.83647  22352536.561    22352536.5514   22352542.2194
        -0.000          -0.000
 97  3 12  0 41 59.9990000  0  7 10  4  6 24  9  5 30               -0.000966610
 -15095925.782 9 -10769290.91746  22892669.642    22892668.6054   22892675.9664
        -0.000          -0.000
 -26000740.005 9 -18554879.66448  21603556.127    21603556.0794   21603561.5964
        -0.000          -0.000
  -5644521.846 8  -3730546.93945  24368969.975    24368969.7334   24368977.5044
        -0.000          -0.000
 -32376377.260 9 -24012707.12449  20046306.759    20046306.4314   20046312.7504
        -0.000          -0.000
 -22697936.639 9 -17390427.12747  22053702.948    22053702.6294   22053708.9114
        -0.000          -0.000
 -30457039.843 9 -23486554.80749  20429547.616    20429546.9194   20429552.6264
        -0.000          -0.000
 -16794759.927 9 -12805050.52247  22331576.978    22331576.9814   22331582.6404
        -0.000          -0.000
 97  3 12  0 42 29.9990000  0  7 10  4  6 24  9  5 30               -0.000978861
 -15206470.763 9 -10855429.81846  22871633.496    22871632.5584   22871639.9234
        -0.000          -0.000
 -25941489.862 9 -18508710.72548  21614831.065    21614831.0144   21614836.5444
        -0.000          -0.000
  -5733980.905 8  -3800255.24845  24351946.456    24351946.2184   24351953.9794
        -0.000          -0.000
 -32383301.508 9 -24018102.63349  20044989.108    20044988.7734   20044995.0824
        -0.000          -0.000
 -22645629.283 9 -17349668.17047  22063656.807    22063656.4494   22063662.7074
        -0.000          -0.000
 -30523645.496 9 -23538455.30849  20416873.003    20416872.2834   20416877.9984
        -0.000          -0.000
 -16904778.177 9 -12890778.99547  22310641.130    22310641.1254   22310646.8084
        -0.000          -0.000
 97  3 12  0 42 59.9990000  0  7 10  4  6 24  9  5 30               -0.000991134
 -15316906.091 9 -10941483.27646  22850618.394    22850617.3874   22850624.7154
        -0.000          -0.000
 -25881988.428 9 -18462345.98348  21626153.838    21626153.7854   21626159.3164
        -0.000          -0.000
  -5823416.688 8  -3869945.43245  24334927.340    24334927.0414   24334934.6734
        -0.000          -0.000
 -32389755.729 9 -24023131.88949  20043760.916    20043760.5734   20043766.8894
        -0.000          -0.000
 -22593034.008 9 -17308684.86447  22073665.349    22073665.0094   22073671.2774
        -0.000          -0.000
 -30589916.924 9 -23590095.37349  20404261.937    20404261.2244   20404266.9584
        -0.000          -0.000
 -17014679.915 9 -12976416.68947  22289727.511    22289727.5134   22289733.1774
        -0.000          -0.000
 97  3 12  0 43 29.9990000  0  7 10  4  6 24  9  5 30               -0.001003424
 -15427219.541 9 -11027441.76646  22829626.401    22829625.4094   22829632.7284
        -0.000          -0.000
 -25822234.651 9 -18415784.60248  21637524.601    21637524.5534   21637530.0754
        -0.000          -0.000
  -5912819.929 8  -3939610.24445  24317914.338    24317914.0894   24317921.7314
        -0.000          -0.000
 -32395745.040 9 -24027798.87449  20042621.161    20042620.8224   20042627.1494
        -0.000          -0.000
 -22540139.626 9 -17267468.48647  22083730.830    22083730.4624   22083736.7254
        -0.000          -0.000
 -30655823.152 9 -23641450.86949  20391720.404    20391719.6964   20391725.4064
        -0.000          -0.000
 -17124429.998 9 -13061936.21647  22268842.720    22268842.7714   22268848.4014
        -0.000          -0.000
 97  3 12  0 43 59.9980000  0  7 10  4  6 24  9  5 30               -0.001015736
 -15537417.027 9 -11113309.90146  22808656.516    22808655.4974   22808662.7824
        -0.000          -0.000
 -25762253.999 9 -18369046.43948  21648938.549    21648938.5024   21648944.0004
        -0.000          -0.000
  -6002209.827 9  -4009264.63845  24300903.906    24300903.6244   24300911.4114
        -0.000          -0.000
 -32401295.433 9 -24032123.85049  20041564.942    20041564.6034   20041570.9084
        -0.000          -0.000
 -22486971.244 9 -17226038.59847  22093848.449    22093848.0674   22093854.3474
        -0.000          -0.000
 -30721374.514 9 -23692529.84849  20379246.406    20379245.7224   20379251.3874
        -0.000          -0.000
 -17234030.233 9 -13147338.96947  22247986.466    22247986.5004   22247992.1224
        -0.000          -0.000
 97  3 12  0 44 29.9980000  0  7 10  4  6 24  9  5 30               -0.001028054
 -15647464.317 9 -11199061.00047  22787715.268    22787714.2144   22787721.4534
        -0.000          -0.000
 -25702016.699 9 -18322108.28848  21660401.351    21660401.2664   21660406.7574
        -0.000          -0.000
  -6091582.217 8  -4078905.40645  24283896.960    24283896.6094   24283904.4104
        -0.000          -0.000
 -32406401.143 9 -24036102.32149  20040593.390    20040593.0464   20040599.3444
        -0.000          -0.000
 -22433509.892 9 -17184380.42747  22104021.854    22104021.4544   22104027.7524
        -0.000          -0.000
 -30786542.953 9 -23743310.44649  20366845.252    20366844.5674   20366850.2504
        -0.000          -0.000
 -17343472.333 9 -13232618.49647  22227160.273    22227160.2874   22227165.9444
        -0.000          -0.000
 97  3 12  0 44 59.9980000  0  7 10  4  6 24  9  5 30               -0.001040376
 -15757354.484 9 -11284689.66347  22766803.908    22766802.8304   22766810.0124
        -0.000          -0.000
 -25641522.720 9 -18274970.12648  21671912.977    21671912.9074   21671918.3344
        -0.000          -0.000
  -6180940.651 9  -4148535.27545  24266892.554    24266892.2204   24266900.1964
        -0.000          -0.000
 -32411060.488 9 -24039732.97149  20039706.739    20039706.3804   20039712.7004
        -0.000          -0.000
 -22379767.679 9 -17142503.40747  22114248.690    22114248.2454   22114254.5554
        -0.000          -0.000
 -30851331.804 9 -23793795.25849  20354516.306    20354515.6124   20354521.3194
        -0.000          -0.000
 -17452752.798 9 -13317772.07347  22206364.858    22206364.8634   22206370.5264
        -0.000          -0.000
 97  3 12  0 45 29.9980000  0  7 10  4  6 24  9  5 30               -0.001052702
 -15867069.129 9 -11370181.56247  22745925.828    22745924.7944   22745931.9714
        -0.000          -0.000
 -25580784.616 9 -18227641.74448  21683471.082    21683470.9754   21683476.3924
        -0.000          -0.000
  -6270295.124 9  -4218162.06545  24249888.902    24249888.6224   24249896.3324
        -0.000          -0.000
 -32415272.720 9 -24043015.22149  20038905.176    20038904.8254   20038911.1164
        -0.000          -0.000
 -22325743.532 9 -17100406.69047  22124529.100    22124528.6784   22124535.0184
        -0.000          -0.000
 -30915746.490 9 -23843988.51149  20342258.569    20342257.8984   20342263.5814
        -0.000          -0.000
 -17561863.167 9 -13402793.10747  22185601.842    22185601.8584   22185607.5334
        -0.000          -0.000
 97  3 12  0 45 59.9980000  0  7 10  4  6 24  9  5 30               -0.001065034
 -15976598.459 9 -11455529.05047  22725083.049    22725082.0034   22725089.1514
        -0.000          -0.000
 -25519798.256 9 -18180119.91748  21695076.379    21695076.3114   21695081.7374
        -0.000          -0.000
  -6359650.351 9  -4287789.42345  24232884.949    24232884.9234   24232892.7494
        -0.000          -0.000
 -32419034.435 9 -24045946.42249  20038189.340    20038188.9804   20038195.3024
        -0.000          -0.000
 -22271436.806 9 -17058089.78047  22134863.345    22134862.9444   22134869.2894
        -0.000          -0.000
 -30979785.065 9 -23893888.69449  20330072.447    20330071.7644   20330077.4344
        -0.000          -0.000
 -17670814.708 9 -13487690.39347  22164869.030    22164869.0404   22164874.7134
        -0.000          -0.000
 97  3 12  0 46 29.9980000  0  7 10  4  6 24  9  5 30               -0.001077362
 -16085935.523 9 -11540726.73747  22704276.816    22704275.8174   22704282.9314
        -0.000          -0.000
 -25458558.111 9 -18132400.33448  21706729.947    21706729.8944   21706735.3874
        -0.000          -0.000
  -6448981.293 9  -4357397.87845  24215885.954    24215885.8404   24215893.6604
        -0.000          -0.000
 -32422337.618 9 -24048520.32649  20037560.765    20037560.4264   20037566.7274
        -0.000          -0.000
 -22216830.808 9 -17015539.67547  22145254.492    22145254.1004   22145260.4514
        -0.000          -0.000
 -31043430.372 9 -23943482.43849  20317961.116    20317960.4494   20317966.0814
        -0.000          -0.000
 -17779591.455 9 -13572451.46847  22144169.474    22144169.5204   22144175.1494
        -0.000          -0.000
 97  3 12  0 46 59.9980000  0  7 10  4  6 24  9  5 30               -0.001089705
 -16195104.190 9 -11625793.19447  22683502.680    22683501.6784   22683508.7384
        -0.000          -0.000
 -25397094.341 9 -18084506.50148  21718426.080    21718426.0464   21718431.5534
        -0.000          -0.000
  -6538296.512 9  -4426994.03845  24198889.574    24198889.4684   24198897.3104
        -0.000          -0.000
 -32425192.087 9 -24050744.58449  20037017.565    20037017.2324   20037023.5324
        -0.000          -0.000
 -22161931.009 9 -16972760.63947  22155701.543    22155701.1574   22155707.5524
        -0.000          -0.000
 -31106692.686 9 -23992777.74349  20305922.692    20305922.0134   20305927.6594
        -0.000          -0.000
 -17888186.986 9 -13657071.34347  22123504.441    22123504.4664   22123510.0474
        -0.000          -0.000
 97  3 12  0 47 29.9980000  0  7 10  4  6 24  9  5 30               -0.001102065
 -16304110.914 9 -11710733.46147  22662759.385    22662758.3494   22662765.4504
        -0.000          -0.000
 -25335410.591 9 -18036441.25648  21730164.116    21730164.0804   21730169.6314
        -0.000          -0.000
  -6627607.993 9  -4496587.33145  24181894.514    24181894.4234   24181902.2284
        -0.000          -0.000
 -32427606.680 9 -24052626.08049  20036558.048    20036557.7404   20036564.0534
        -0.000          -0.000
 -22106742.145 9 -16929756.35447  22166203.628    22166203.2574   22166209.6904
        -0.000          -0.000
 -31169571.060 9 -24041773.87549  20293957.338    20293956.6664   20293962.3094
        -0.000          -0.000
 -17996585.262 9 -13741537.49047  22102876.907    22102876.9274   22102882.5494
        -0.000          -0.000
 97  3 12  0 47 59.9980000  0  7 10  4  6 24  9  5 30               -0.001114442
 -16412978.128 9 -11795565.01947  22642042.569    22642041.5614   22642048.6514
        -0.000          -0.000
 -25273494.608 9 -17988195.05248  21741946.354    21741946.3144   21741951.8534
        -0.000          -0.000
  -6716901.743 9  -4566166.78645  24164902.139    24164901.9984   24164909.7764
        -0.000          -0.000
 -32429582.519 9 -24054165.68849  20036182.071    20036181.7504   20036188.0614
        -0.000          -0.000
 -22051267.542 9 -16886529.41447  22176760.075    22176759.6694   22176766.1704
        -0.000          -0.000
 -31232061.918 9 -24090468.04549  20282065.707    20282065.0484   20282070.7074
        -0.000          -0.000
 -18104776.214 9 -13825842.09847  22082288.833    22082288.8394   22082294.4474
        -0.000          -0.000
 97  3 12  0 48 29.9980000  0  7 10  4  6 24  9  5 30               -0.001126833
 -16521723.098 9 -11880301.31847  22621348.961    22621347.9774   22621355.1534
        -0.000          -0.000
 -25211352.027 9 -17939772.27048  21753771.738    21753771.6874   21753777.1894
        -0.000          -0.000
  -6806175.792 9  -4635730.90245  24147913.947    24147913.7864   24147921.3244
        -0.000          -0.000
 -32431122.926 9 -24055365.99949  20035888.928    20035888.6134   20035894.8984
        -0.000          -0.000
 -21995519.309 9 -16843089.25647  22187368.623    22187368.2244   22187374.7044
        -0.000          -0.000
 -31294187.677 9 -24138877.72349  20270243.563    20270242.8934   20270248.5414
        -0.000          -0.000
 -18212743.637 9 -13909972.54347  22061743.346    22061743.3134   22061748.9044
        -0.000          -0.000
 97  3 12  0 48 59.9980000  0  7 10  4  6 24  9  5 30               -0.001139241
 -16630344.272 9 -11964941.17447  22600678.992    22600678.0064   22600685.1804
        -0.000          -0.000
 -25148971.624 9 -17891164.17548  21765642.330    21765642.3094   21765647.8314
        -0.000          -0.000
  -6895439.179 9  -4705286.70145  24130927.836    24130927.5574   24130935.1194
        -0.000          -0.000
 -32432214.268 9 -24056216.38549  20035681.207    20035680.9074   20035687.1834
        -0.000          -0.000
 -21939503.337 9 -16799440.46747  22198028.127    22198027.7554   22198034.2294
        -0.000          -0.000
 -31355949.323 9 -24187003.67649  20258490.716    20258490.0494   20258495.6904
        -0.000          -0.000
 -18320486.623 9 -13993928.08647  22041240.518    22041240.4974   22041246.0404
        -0.000          -0.000
 97  3 12  0 49 29.9980000  0  7 10  4  6 24  9  5 30               -0.001151671
 -16738851.757 9 -12049492.42447  22580030.662    22580029.7014   22580036.8714
        -0.000          -0.000
 -25086358.948 9 -17842375.09148  21777557.138    21777557.1214   21777562.6164
        -0.000          -0.000
  -6984702.922 9  -4774842.80645  24113941.300    24113941.1764   24113948.4624
        -0.000          -0.000
 -32432863.759 9 -24056722.47449  20035557.602    20035557.2924   20035563.5634
        -0.000          -0.000
 -21883238.296 9 -16755597.60047  22208734.998    22208734.5934   22208741.1184
        -0.000          -0.000
 -31417363.257 9 -24234858.69249  20246804.038    20246803.3604   20246808.9884
        -0.000          -0.000
 -18428027.782 9 -14077726.37247  22020776.059    22020776.0644   22020781.5744
        -0.000          -0.000
 97  3 12  0 49 59.9980000  0  7 10  4  6 24  9  5 30               -0.001164104
 -16847215.785 9 -12133931.88947  22559409.664    22559408.6664   22559415.8024
        -0.000          -0.000
 -25023496.985 9 -17793391.74848  21789519.369    21789519.3404   21789524.8374
        -0.000          -0.000
  -7073936.313 9  -4844375.23445  24096960.822    24096960.4034   24096967.9564
        -0.000          -0.000
 -32433054.852 9 -24056871.37049  20035521.242    20035520.9284   20035527.2064
        -0.000          -0.000
 -21826704.392 9 -16711545.22647  22219493.004    22219492.6354   22219499.2044
        -0.000          -0.000
 -31478416.446 9 -24282432.59949  20235186.006    20235185.3234   20235190.9634
        -0.000          -0.000
 -18535371.380 9 -14161370.70647  22000349.212    22000349.2254   22000354.7444
        -0.000          -0.000
 97  3 12  0 50 29.9980000  0  7 10  4  6 24  9  5 30               -0.001176544
 -16955409.315 9 -12218238.49647  22538821.106    22538820.0404   22538827.2384
        -0.000          -0.000
 -24960392.352 9 -17744219.32847  21801527.745    21801527.7364   21801533.2234
        -0.000          -0.000
  -7163157.593 9  -4913898.24445  24079982.369    24079981.9864   24079989.6654
        -0.000          -0.000
 -32432795.422 9 -24056669.21249  20035570.549    20035570.2634   20035576.5494
        -0.000          -0.000
 -21769908.292 9 -16667288.54447  22230300.996    22230300.6434   22230307.1864
        -0.000          -0.000
 -31539103.181 9 -24329720.96249  20223637.664    20223636.9974   20223642.6474
        -0.000          -0.000
 -18642542.975 9 -14244881.01147  21979955.108    21979955.1534   21979960.6964
        -0.000          -0.000
 97  3 12  0 50 59.9980000  0  7 10  4  6 24  9  5 30               -0.001188994
 -17063403.078 9 -12302389.43947  22518270.487    22518269.4664   22518276.6984
        -0.000          -0.000
 -24897040.207 9 -17694854.03047  21813583.269    21813583.2304   21813588.7304
        -0.000          -0.000
  -7252369.686 9  -4983414.09545  24063005.780    24063005.3674   24063012.8524
        -0.000          -0.000
 -32432078.194 9 -24056110.32749  20035707.058    20035706.7494   20035713.0364
        -0.000          -0.000
 -21712833.021 9 -16622814.33047  22241162.073    22241161.7244   22241168.2634
        -0.000          -0.000
 -31599383.060 9 -24376692.29349  20212166.800    20212166.1194   20212171.7714
        -0.000          -0.000
 -18749554.363 9 -14328266.48847  21959591.442    21959591.4914   21959597.0694
        -0.000          -0.000
 97  3 12  0 51 29.9980000  0  7 10  4  6 24  9  5 30               -0.001201451
 -17171184.100 9 -12386374.60747  22497760.431    22497759.3464   22497766.6344
        -0.000          -0.000
 -24833451.868 9 -17645304.68747  21825683.743    21825683.7134   21825689.2064
        -0.000          -0.000
  -7341575.109 8  -5052924.75245  24046030.586    24046030.2104   24046037.5894
        -0.000          -0.000
 -32430925.549 9 -24055212.15749  20035926.393    20035926.0774   20035932.3514
        -0.000          -0.000
 -21655496.144 9 -16578136.26247  22252072.950    22252072.6014   22252079.1394
        -0.000          -0.000
 -31659251.479 9 -24423343.00349  20200774.184    20200773.5164   20200779.1934
        -0.000          -0.000
 -18856420.861 9 -14411539.06047  21939255.411    21939255.4404   21939261.0494
        -0.000          -0.000
 97  3 12  0 51 59.9980000  0  7 10  4  6 24  9  5 30               -0.001213919
 -17278737.333 9 -12470182.27747  22477293.682    22477292.5944   22477299.9354
        -0.000          -0.000
 -24769634.521 9 -17595576.90247  21837827.787    21837827.7374   21837833.2844
        -0.000          -0.000
  -7430788.700 9  -5122441.74845  24029053.759    24029053.3824   24029060.7364
        -0.000          -0.000
 -32429349.418 9 -24053983.99649  20036226.339    20036226.0194   20036232.3034
        -0.000          -0.000
 -21597913.783 9 -16533266.91547  22263030.541    22263030.1854   22263036.7244
        -0.000          -0.000
 -31718701.172 9 -24469667.43549  20189461.299    20189460.6174   20189466.2924
        -0.000          -0.000
 -18963154.422 9 -14494708.03747  21918944.697    21918944.6914   21918950.3284
        -0.000          -0.000
 97  3 12  0 52 29.9980000  0  7 10  4  6 24  9  5 30               -0.001226406
 -17386064.313 9 -12553813.65947  22456870.025    22456868.9234   22456876.2774
        -0.000          -0.000
 -24705605.556 9 -17545684.21147  21850012.088    21850012.0514   21850017.6104
        -0.000          -0.000
  -7520016.822 9  -5191970.09146  24012074.301    24012073.8384   24012081.0784
        -0.000          -0.000
 -32427344.517 9 -24052421.72949  20036607.833    20036607.5054   20036613.7924
        -0.000          -0.000
 -21540089.953 9 -16488209.40547  22274034.070    22274033.6874   22274040.2574
        -0.000          -0.000
 -31777726.543 9 -24515661.22749  20178229.121    20178228.4334   20178234.1304
        -0.000          -0.000
 -19069730.422 9 -14577754.24847  21898663.970    21898663.9604   21898669.5594
        -0.000          -0.000
 97  3 12  0 52 59.9980000  0  7 10  4  6 24  9  5 30               -0.001238909
 -17493177.886 9 -12637278.73747  22436486.937    22436485.8744   22436493.1714
        -0.000          -0.000
 -24641370.750 9 -17495631.13747  21862235.580    21862235.5394   21862241.1234
        -0.000          -0.000
  -7609244.166 9  -5261497.79746  23995094.695    23995094.2624   23995101.7324
        -0.000          -0.000
 -32424915.869 9 -24050529.26949  20037069.989    20037069.6654   20037075.9494
        -0.000          -0.000
 -21482043.560 9 -16442978.47047  22285079.990    22285079.5804   22285086.1304
        -0.000          -0.000
 -31836330.989 9 -24561327.02249  20167077.065    20167076.3744   20167082.0944
        -0.000          -0.000
 -19176120.734 9 -14660655.77247  21878418.578    21878418.5464   21878424.1224
        -0.000          -0.000
 97  3 12  0 53 29.9980000  0  7 10  4  6 24  9  5 30               -0.001251413
 -17600082.462 9 -12720580.96647  22416143.640    22416142.5884   22416149.8764
        -0.000          -0.000
 -24576934.823 9 -17445421.34347  21874497.324    21874497.2904   21874502.9114
        -0.000          -0.000
  -7698458.223 9  -5331015.16745  23978117.690    23978117.1754   23978124.7514
        -0.000          -0.000
 -32422079.049 9 -24048318.75649  20037609.803    20037609.4724   20037615.7504
        -0.000          -0.000
 -21423801.419 9 -16397595.01147  22296163.119    22296162.7084   22296169.2594
        -0.000          -0.000
 -31894534.565 9 -24606680.44849  20156001.254    20156000.5914   20156006.3024
        -0.000          -0.000
 -19282310.411 9 -14743400.95547  21858211.329    21858211.3154   21858216.8714
        -0.000          -0.000
 97  3 12  0 53 59.9980000  0  7 10  4  6 24  9  5 30               -0.001263921
 -17706778.184 9 -12803720.47347  22395840.066    22395839.0234   22395846.3244
        -0.000          -0.000
 -24512298.408 9 -17395055.31947  21886797.263    21886797.2164   21886802.8284
        -0.000          -0.000
  -7787649.052 9  -5400514.44445  23961145.146    23961144.7454   23961152.2324
        -0.000          -0.000
 -32418807.571 9 -24045769.54849  20038232.387    20038232.0514   20038238.3214
        -0.000          -0.000
 -21365349.122 9 -16352047.78647  22307286.239    22307285.8674   22307292.3704
        -0.000          -0.000
 -31952328.407 9 -24651714.60949  20145003.454    20145002.7654   20145008.4724
        -0.000          -0.000
 -19388259.430 9 -14825958.61247  21838049.871    21838049.8724   21838055.4044
        -0.000          -0.000
 97  3 12  0 54 29.9980000  0  7 10  4  6 24  9  5 30               -0.001276447
 -17813301.598 9 -12886725.69847  22375569.261    22375568.2764   22375575.5524
        -0.000          -0.000
 -24447484.595 9 -17344551.06747  21899130.903    21899130.8674   21899136.4644
        -0.000          -0.000
  -7876826.970 9  -5470003.64945  23944175.068    23944174.6734   23944182.2394
        -0.000          -0.000
 -32415122.128 9 -24042897.76949  20038933.692    20038933.3654   20038939.6384
        -0.000          -0.000
 -21306705.304 9 -16306351.32247  22318445.812    22318445.4324   22318451.9384
        -0.000          -0.000
 -32009736.516 9 -24696448.19849  20134079.054    20134078.3584   20134084.0434
        -0.000          -0.000
 -19493965.778 9 -14908327.16647  21817934.570    21817934.5684   21817940.1274
        -0.000          -0.000
 97  3 12  0 54 59.9980000  0  7 10  4  6 24  9  5 30               -0.001288986
 -17919642.572 9 -12969588.76847  22355333.264    22355332.2664   22355339.5084
        -0.000          -0.000
 -24382482.552 9 -17293900.13747  21911500.367    21911500.3844   21911505.9324
        -0.000          -0.000
  -7965983.930 9  -5539476.52245  23927208.960    23927208.5194   23927216.0954
        -0.000          -0.000
 -32411021.654 9 -24039702.59049  20039713.976    20039713.6454   20039719.9024
        -0.000          -0.000
 -21247869.200 9 -16260505.03947  22329641.931    22329641.5714   22329648.0554
        -0.000          -0.000
 -32066743.885 9 -24740869.52549  20123230.896    20123230.1784   20123235.8634
        -0.000          -0.000
 -19599429.782 9 -14990506.87847  21797865.416    21797865.4424   21797870.9644
        -0.000          -0.000
 97  3 12  0 55 29.9980000  0  7 10  4  6 24  9  5 30               -0.001301543
 -18025780.947 9 -13052293.95847  22335135.764    22335134.8184   22335142.0414
        -0.000          -0.000
 -24317289.870 9 -17243100.66147  21923906.153    21923906.1354   21923911.6964
        -0.000          -0.000
  -8055112.724 9  -5608927.47445  23910248.187    23910247.8504   23910255.4084
        -0.000          -0.000
 -32406475.323 9 -24036159.98749  20040579.091    20040578.7664   20040585.0294
        -0.000          -0.000
 -21188801.723 9 -16214478.45147  22340882.161    22340881.7794   22340888.2604
        -0.000          -0.000
 -32123329.139 9 -24784961.93349  20112463.050    20112462.3524   20112468.0344
        -0.000          -0.000
 -19704646.203 9 -15072493.68447  21777843.365    21777843.3934   21777848.9034
        -0.000          -0.000
 97  3 12  0 55 59.9980000  0  7 10  4  6 24  9  5 30               -0.001314136
 -18131730.105 9 -13134851.72247  22314974.282    22314973.3354   22314980.5734
        -0.000          -0.000
 -24251923.227 9 -17192165.62447  21936344.977    21936344.9644   21936350.5034
        -0.000          -0.000
  -8144230.391 9  -5678369.73746  23893289.696    23893289.2504   23893296.7774
        -0.000          -0.000
 -32401481.452 9 -24032268.65249  20041529.411    20041529.0884   20041535.3544
        -0.000          -0.000
 -21129500.513 9 -16168269.75047  22352166.839    22352166.4574   22352172.9164
        -0.000          -0.000
 -32179500.852 9 -24828732.10049  20101773.943    20101773.2324   20101778.9254
        -0.000          -0.000
 -19809634.696 9 -15154302.87447  21757864.718    21757864.7544   21757870.2454
        -0.000          -0.000
 97  3 12  0 56 29.9980000  0  7 10  4  6 24  9  5 30               -0.001326755
 -18237479.958 9 -13217254.18047  22294850.703    22294849.7774   22294856.9854
        -0.000          -0.000
 -24186380.317 9 -17141093.24547  21948817.413    21948817.3704   21948822.9454
        -0.000          -0.000
  -8233337.185 9  -5747803.56046  23876333.267    23876332.7994   23876340.1844
        -0.000          -0.000
 -32396062.562 9 -24028046.13149  20042560.631    20042560.3044   20042566.5724
        -0.000          -0.000
 -21069964.690 9 -16121878.22147  22363496.140    22363495.7544   22363502.1994
        -0.000          -0.000
 -32235261.582 9 -24872182.01949  20091163.016    20091162.3284   20091168.0364
        -0.000          -0.000
 -19914413.161 9 -15235948.41347  21737926.056    21737926.1174   21737931.5544
        -0.000          -0.000
 97  3 12  0 56 59.9980000  0  7 10  4  6 24  9  5 30               -0.001339393
 -18342989.335 9 -13299469.25747  22274772.933    22274772.0264   22274779.2264
        -0.000          -0.000
 -24120642.804 9 -17089869.21847  21961326.870    21961326.8304   21961332.4224
        -0.000          -0.000
  -8322431.205 9  -5817227.44046  23859379.385    23859378.8064   23859386.1674
        -0.000          -0.000
 -32390197.665 9 -24023476.07749  20043676.684    20043676.3224   20043682.5964
        -0.000          -0.000
 -21010176.146 9 -16075289.77347  22374873.500    22374873.1384   22374879.5644
        -0.000          -0.000
 -32290584.944 9 -24915291.13749  20080635.354    20080634.6664   20080640.3584
        -0.000          -0.000
 -20018971.601 9 -15317422.50147  21718029.215    21718029.2714   21718034.7194
        -0.000          -0.000
 97  3 12  0 57 29.9980000  0  7 10  4  6 24  9  5 30               -0.001352048
 -18448259.337 9 -13381497.79947  22254740.783    22254739.8144   22254747.0044
        -0.000          -0.000
 -24054699.872 9 -17038485.12947  21973875.405    21973875.3534   21973880.9434
        -0.000          -0.000
  -8411527.002 9  -5886652.68146  23842424.943    23842424.4534   23842431.8204
        -0.000          -0.000
 -32383888.036 9 -24018559.47749  20044877.306    20044876.9804   20044883.2324
        -0.000          -0.000
 -20950139.435 9 -16028507.93947  22386298.083    22386297.7194   22386304.1634
        -0.000          -0.000
 -32345474.878 9 -24958062.51349  20070190.126    20070189.4474   20070195.1504
        -0.000          -0.000
 -20123316.818 9 -15398730.42547  21698172.982    21698173.0184   21698178.4534
        -0.000          -0.000
 97  3 12  0 57 59.9980000  0  7 10  4  6 24  9  5 30               -0.001364720
 -18553305.609 9 -13463352.00847  22234751.059    22234750.0734   22234757.2934
        -0.000          -0.000
 -23988561.455 9 -16986948.71647  21986461.166    21986461.1194   21986466.7204
        -0.000          -0.000
  -8500638.583 9  -5956090.24746  23825467.470    23825467.0724   23825474.3124
        -0.000          -0.000
 -32377171.455 9 -24013325.77149  20046155.443    20046155.1264   20046161.3584
        -0.000          -0.000
 -20889893.291 9 -15981562.91347  22397762.588    22397762.2024   22397768.6424
        -0.000          -0.000
 -32399955.427 9 -25000514.88949  20059822.842    20059822.1644   20059827.8474
        -0.000          -0.000
 -20227460.021 9 -15479880.95547  21678355.163    21678355.2074   21678360.6324
        -0.000          -0.000
 97  3 12  0 58 29.9980000  0  7 10  4  6 24  9  5 30               -0.001377395
 -18658112.023 9 -13545019.31647  22214807.069    22214806.0604   22214813.2614
        -0.000          -0.000
 -23922217.108 9 -16935251.82847  21999086.118    21999086.0594   21999091.6644
        -0.000          -0.000
  -8589752.511 9  -6025529.63746  23808509.595    23808509.2724   23808516.4894
        -0.000          -0.000
 -32370045.497 9 -24007773.07449  20047511.459    20047511.1374   20047517.3674
        -0.000          -0.000
 -20829425.681 9 -15934445.31047  22409269.246    22409268.8364   22409275.2424
        -0.000          -0.000
 -32454008.836 9 -25042634.43149  20049536.879    20049536.1854   20049541.8644
        -0.000          -0.000
 -20331380.062 9 -15560857.59547  21658579.793    21658579.8474   21658585.2374
        -0.000          -0.000
 97  3 12  0 58 59.9980000  0  7 10  4  6 24  9  5 30               -0.001390097
 -18762716.451 9 -13626529.23947  22194901.446    22194900.4704   22194907.6254
        -0.000          -0.000
 -23855700.761 9 -16883420.93347  22011743.735    22011743.6974   22011749.3044
        -0.000          -0.000
  -8678893.170 9  -6094989.85146  23791546.732    23791546.3964   23791553.4224
        -0.000          -0.000
 -32362533.969 9 -24001919.93449  20048940.852    20048940.5074   20048946.7484
        -0.000          -0.000
 -20768775.760 9 -15887185.65947  22420810.569    22420810.1564   22420816.5724
        -0.000          -0.000
 -32507668.538 9 -25084447.18549  20039325.752    20039325.0744   20039330.7514
        -0.000          -0.000
 -20435105.058 9 -15641682.24247  21638841.565    21638841.6124   21638847.0154
        -0.000          -0.000
 97  3 12  0 59 29.9980000  0  7 10  4  6 24  9  5 30               -0.001402812
 -18867126.387 9 -13707887.60547  22175032.846    22175031.8754   22175039.0084
        -0.000          -0.000
 -23789019.650 9 -16831461.63547  22024432.751    22024432.7324   22024438.3294
        -0.000          -0.000
  -8768035.447 9  -6164451.31746  23774583.399    23774583.0984   23774590.1004
        -0.000          -0.000
 -32354644.898 9 -23995772.60149  20050442.104    20050441.7784   20050448.0174
        -0.000          -0.000
 -20707932.100 9 -15839775.02647  22432388.765    22432388.3514   22432394.7964
        -0.000          -0.000
 -32560945.012 9 -25125961.31949  20029187.585    20029186.9024   20029192.5784
        -0.000          -0.000
 -20538622.611 9 -15722345.24947  21619142.780    21619142.8194   21619148.2494
        -0.000          -0.000
 97  3 12  0 59 59.9980000  0  7 10  4  6 24  9  5 30               -0.001415521
 -18971307.134 9 -13789067.38447  22155207.830    22155206.9394   22155214.0484
        -0.000          -0.000
 -23722167.084 9 -16779368.74047  22037154.386    22037154.3464   22037159.9944
        -0.000          -0.000
  -8857145.182 9  -6233887.42546  23757626.359    23757626.0574   23757633.1144
        -0.000          -0.000
 -32346360.532 9 -23989317.25149  20052018.553    20052018.2174   20052024.4434
        -0.000          -0.000
 -20646869.084 9 -15792193.48147  22444008.627    22444008.2464   22444014.7394
        -0.000          -0.000
 -32613815.530 9 -25167159.13049  20019126.656    20019125.9774   20019131.6474
        -0.000          -0.000
 -20641888.749 9 -15802812.35047  21599491.885    21599491.9334   21599497.3454
        -0.000          -0.000
 97  3 12  1  0 29.9980000  0  7 10  4  6 24  9  5 30               -0.001428221
 -19075236.462 9 -13870051.24947  22135430.744    22135429.8014   22135436.8994
        -0.000          -0.000
 -23655134.594 9 -16727135.65047  22049910.212    22049910.1954   22049915.8224
        -0.000          -0.000
  -8946228.183 9  -6303302.69746  23740674.323    23740674.0444   23740681.1604
        -0.000          -0.000
 -32337660.918 9 -23982538.32849  20053674.008    20053673.6814   20053679.8994
        -0.000          -0.000
 -20585575.694 9 -15744432.39847  22455672.373    22455671.9524   22455678.5174
        -0.000          -0.000
 -32666273.972 9 -25208035.83349  20009144.116    20009143.4384   20009149.1184
        -0.000          -0.000
 -20744890.212 9 -15883073.21247  21579891.388    21579891.3824   21579896.8004
        -0.000          -0.000
 97  3 12  1  0 59.9980000  0  7 10  4  6 24  9  5 30               -0.001440918
 -19178912.670 9 -13950837.88247  22115701.791    22115700.8394   22115707.9734
        -0.000          -0.000
 -23587926.499 9 -16674765.70847  22062699.495    22062699.4614   22062705.1014
        -0.000          -0.000
  -9035292.838 9  -6372703.68246  23723725.929    23723725.5764   23723732.6214
        -0.000          -0.000
 -32328547.245 9 -23975436.76049  20055408.266    20055407.9504   20055414.1744
        -0.000          -0.000
 -20524073.240 9 -15696508.42847  22467375.855    22467375.5294   22467382.0614
        -0.000          -0.000
 -32718320.251 9 -25248591.37549  19999240.000    19999239.3454   19999245.0074
        -0.000          -0.000
 -20847623.736 9 -15963125.28747  21560341.770    21560341.8064   21560347.2394
        -0.000          -0.000
 97  3 12  1  1 29.9980000  0  7 10  4  6 24  9  5 30               -0.001453615
 -19282325.170 9 -14031419.01947  22096022.998    22096022.0534   22096029.2214
        -0.000          -0.000
 -23520547.686 9 -16622262.74847  22075521.262    22075521.2154   22075526.8624
        -0.000          -0.000
  -9124343.709 9  -6442093.93146  23706780.048    23706779.7684   23706786.6604
        -0.000          -0.000
 -32319021.760 9 -23968014.30149  20057220.882    20057220.5754   20057226.7914
        -0.000          -0.000
 -20462374.431 9 -15648431.46147  22479116.768    22479116.4124   22479122.9464
        -0.000          -0.000
 -32769942.292 9 -25288816.34249  19989416.652    19989415.9954   19989421.6674
        -0.000          -0.000
 -20950088.477 9 -16042967.91947  21540843.347    21540843.3854   21540848.8174
        -0.000          -0.000
 97  3 12  1  1 59.9980000  0  7 10  4  6 24  9  5 30               -0.001466322
 -19385463.069 9 -14111786.19047  22076396.461    22076395.5194   22076402.6634
        -0.000          -0.000
 -23452993.624 9 -16569623.23847  22088376.354    22088376.3354   22088381.9874
        -0.000          -0.000
  -9213389.203 9  -6511479.96746  23689835.294    23689834.9194   23689841.9054
        -0.000          -0.000
 -32309082.344 9 -23960269.29949  20059112.283    20059111.9764   20059118.2014
        -0.000          -0.000
 -20400495.992 9 -15600214.51047  22490891.792    22490891.4904   22490898.0664
        -0.000          -0.000
 -32821118.242 9 -25328693.70649  19979678.186    19979677.5274   19979683.2054
        -0.000          -0.000
 -21052291.562 9 -16122606.66947  21521394.735    21521394.7394   21521400.1704
        -0.000          -0.000
 97  3 12  1  2 29.9980000  0  7 10  4  6 24  9  5 30               -0.001479044
 -19488334.506 9 -14191945.72447  22056820.712    22056819.7314   22056826.8754
        -0.000          -0.000
 -23385265.367 9 -16516847.98947  22101264.634    22101264.6034   22101270.3024
        -0.000          -0.000
  -9302430.452 9  -6580862.71946  23672891.090    23672890.8294   23672897.8974
        -0.000          -0.000
 -32298729.587 9 -23952202.20949  20061082.351    20061082.0624   20061088.2754
        -0.000          -0.000
 -20338449.348 9 -15551866.49847  22502698.911    22502698.6164   22502705.2114
        -0.000          -0.000
 -32871845.335 9 -25368221.31049  19970025.150    19970024.4904   19970030.1514
        -0.000          -0.000
 -21154243.558 9 -16202049.76248  21501993.876    21501993.9004   21501999.3244
        -0.000          -0.000
 97  3 12  1  2 59.9980000  0  7 10  4  6 24  9  5 30               -0.001491788
 -19590941.525 9 -14271899.22147  22037295.204    22037294.2484   22037301.4294
        -0.000          -0.000
 -23317373.484 9 -16463945.23347  22114184.057    22114184.0084   22114189.6924
        -0.000          -0.000
  -9391463.564 9  -6650239.11246  23655948.646    23655948.2484   23655955.3114
        -0.000          -0.000
 -32287975.227 9 -23943822.18349  20063128.843    20063128.5354   20063134.7434
        -0.000          -0.000
 -20276238.865 9 -15503390.83047  22514537.224    22514536.9114   22514543.4624
        -0.000          -0.000
 -32922108.556 9 -25407387.45749  19960460.403    19960459.7314   19960465.3914
        -0.000          -0.000
 -21255953.532 9 -16281304.27448  21482639.065    21482639.1284   21482644.5494
        -0.000          -0.000
 97  3 12  1  3 29.9980000  0  7 10  4  6 24  9  5 30               -0.001504561
 -19693291.888 9 -14351652.71547  22017818.575    22017817.6224   22017824.7804
        -0.000          -0.000
 -23249327.913 9 -16410922.71447  22127132.740    22127132.6554   22127138.3384
        -0.000          -0.000
  -9480515.728 9  -6719630.37346  23639002.521    23639002.1504   23639009.2284
        -0.000          -0.000
 -32276839.052 9 -23935144.63749  20065247.967    20065247.6784   20065253.8784
        -0.000          -0.000
 -20213877.540 9 -15454797.62147  22526404.270    22526403.9154   22526410.4494
        -0.000          -0.000
 -32971924.830 9 -25446205.33149  19950980.661    19950979.9944   19950985.6644
        -0.000          -0.000
 -21357440.659 9 -16360385.13248  21463326.698    21463326.7584   21463332.1824
        -0.000          -0.000
 97  3 12  1  3 59.9980000  0  7 10  4  6 24  9  5 30               -0.001517355
 -19795372.844 9 -14431196.28847  21998393.199    21998392.2104   21998399.3964
        -0.000          -0.000
 -23181113.731 9 -16357768.82947  22140113.464    22140113.3694   22140119.0784
        -0.000          -0.000
  -9569578.977 9  -6789030.25846  23622054.219    23622053.8434   23622061.0134
        -0.000          -0.000
 -32265297.761 9 -23926151.41749  20067444.205    20067443.8884   20067450.0894
        -0.000          -0.000
 -20151343.712 9 -15406069.98347  22538304.065    22538303.6974   22538310.2304
        -0.000          -0.000
 -33021291.909 9 -25484673.18349  19941586.445    19941585.7674   19941591.4174
        -0.000          -0.000
 -21458671.042 9 -16439265.93248  21444063.222    21444063.2644   21444068.6904
        -0.000          -0.000
 97  3 12  1  4 29.9980000  0  7 10  4  6 24  9  5 30               -0.001530176
 -19897193.709 9 -14510537.19447  21979017.315    21979016.3544   21979023.5254
        -0.000          -0.000
 -23112749.760 9 -16304498.19747  22153122.670    22153122.5924   22153128.2924
        -0.000          -0.000
  -9658658.620 9  -6858442.92246  23605102.873    23605102.5384   23605109.6604
        -0.000          -0.000
 -32253358.556 9 -23916848.13449  20069716.125    20069715.8154   20069722.0404
        -0.000          -0.000
 -20088650.203 9 -15357217.92347  22550234.281    22550233.9184   22550240.4944
        -0.000          -0.000
 -33070219.429 9 -25522798.51649  19932275.820    19932275.1434   19932280.8034
        -0.000          -0.000
 -21559652.646 9 -16517952.88248  21424847.025    21424847.0774   21424852.5044
        -0.000          -0.000
 97  3 12  1  4 59.9980000  0  7 10  4  6 24  9  5 30               -0.001543015
 -19998738.568 9 -14589663.02547  21959693.993    21959692.9914   21959700.1414
        -0.000          -0.000
 -23044227.723 9 -16251104.41447  22166161.965    22166161.8954   22166167.6024
        -0.000          -0.000
  -9747738.493 9  -6927855.77346  23588151.549    23588151.1734   23588158.3444
        -0.000          -0.000
 -32241015.666 9 -23907230.29349  20072064.905    20072064.5794   20072070.8164
        -0.000          -0.000
 -20025781.506 9 -15308229.35447  22562197.782    22562197.3964   22562203.9704
        -0.000          -0.000
 -33118693.405 9 -25560570.44149  19923051.539    19923050.8694   19923056.5134
        -0.000          -0.000
 -21660373.004 9 -16596436.25348  21405680.526    21405680.5764   21405686.0314
        -0.000          -0.000
 97  3 12  1  5 29.9980000  0  7 10  4  6 24  9  5 30               -0.001555855
 -20099993.604 9 -14668563.01847  21940425.755    21940424.7904   21940431.9364
        -0.000          -0.000
 -22975536.756 9 -16197578.99847  22179233.440    22179233.3664   22179239.0464
        -0.000          -0.000
  -9836787.131 9  -6997244.30346  23571206.127    23571205.7844   23571212.8644
        -0.000          -0.000
 -32228251.517 9 -23897284.20349  20074493.841    20074493.5174   20074499.7534
        -0.000          -0.000
 -19962714.839 9 -15259086.51847  22574199.029    22574198.6874   22574205.2104
        -0.000          -0.000
 -33166703.466 9 -25597980.87849  19913915.552    19913914.8844   19913920.5384
        -0.000          -0.000
 -21760804.428 9 -16674694.49148  21386569.059    21386569.1264   21386574.5574
        -0.000          -0.000
 97  3 12  1  5 59.9980000  0  7 10  4  6 24  9  5 30               -0.001568717
 -20200994.380 9 -14747264.88947  21921205.969    21921204.9664   21921212.1214
        -0.000          -0.000
 -22906725.830 9 -16143960.10047  22192327.740    22192327.7014   22192333.3874
        -0.000          -0.000
  -9925812.115 9  -7066614.38946  23554265.284    23554264.8424   23554271.9534
        -0.000          -0.000
 -32215098.681 9 -23887035.23849  20076996.719    20076996.4154   20077002.6714
        -0.000          -0.000
 -19899470.302 9 -15209805.08147  22586234.117    22586233.7454   22586240.2814
        -0.000          -0.000
 -33214269.841 9 -25635045.59249  19904863.928    19904863.2504   19904868.9214
        -0.000          -0.000
 -21860976.331 9 -16752750.50648  21367507.009    21367507.0134   21367512.4544
        -0.000          -0.000
 97  3 12  1  6 29.9980000  0  7 10  4  6 24  9  5 30               -0.001581588
 -20301723.290 9 -14825754.91247  21902037.902    21902036.9154   21902043.9934
        -0.000          -0.000
 -22837777.196 9 -16090233.90647  22205448.217    22205448.1784   22205453.8264
        -0.000          -0.000
 -10014791.196 9  -7135948.71746  23537333.203    23537332.6744   23537339.7944
        -0.000          -0.000
 -32201553.846 9 -23876480.82149  20079574.201    20079573.9104   20079580.1734
        -0.000          -0.000
 -19836027.214 9 -15160368.92947  22598306.943    22598306.5584   22598313.1234
        -0.000          -0.000
 -33261362.129 9 -25671740.87949  19895902.560    19895901.8744   19895907.5764
        -0.000          -0.000
 -21960884.754 9 -16830601.20748  21348495.049    21348495.0354   21348500.4684
        -0.000          -0.000
 97  3 12  1  6 59.9980000  0  7 10  4  6 24  9  5 30               -0.001594468
 -20402190.375 9 -14904040.92847  21882919.700    21882918.6714   21882925.7254
        -0.000          -0.000
 -22768697.740 9 -16036405.77447  22218593.577    22218593.5384   22218599.2624
        -0.000          -0.000
 -10103747.123 9  -7205265.00346  23520405.450    23520404.9024   23520412.0114
        -0.000          -0.000
 -32187637.142 9 -23865636.64049  20082222.445    20082222.1474   20082228.4094
        -0.000          -0.000
 -19772398.220 9 -15110787.91847  22610415.103    22610414.7754   22610421.3334
        -0.000          -0.000
 -33308012.366 9 -25708091.71249  19887025.334    19887024.6394   19887030.3414
        -0.000          -0.000
 -22060534.692 9 -16908250.48848  21329532.293    21329532.2724   21329537.7084
        -0.000          -0.000
 97  3 12  1  7 29.9980000  0  7 10  4  6 24  9  5 30               -0.001607350
 -20502380.001 9 -14982110.73247  21863854.211    21863853.1894   21863860.2364
        -0.000          -0.000
 -22699477.719 9 -15982468.10747  22231765.681    22231765.6694   22231771.4074
        -0.000          -0.000
 -10192678.434 9  -7274562.10046  23503482.298    23503481.8484   23503488.9144
        -0.000          -0.000
 -32173341.285 9 -23854497.01449  20084942.879    20084942.5644   20084948.8134
        -0.000          -0.000
 -19708586.885 9 -15061064.82447  22622557.930    22622557.6194   22622564.1974
        -0.000          -0.000
 -33354207.475 9 -25744087.89249  19878234.694    19878234.0054   19878239.7164
        -0.000          -0.000
 -22159902.234 9 -16985679.72048  21310623.248    21310623.2324   21310628.6614
        -0.000          -0.000
 97  3 12  1  7 59.9980000  0  7 10  4  6 24  9  5 30               -0.001620233
 -20602278.769 9 -15059953.90347  21844844.043    21844843.0404   21844850.0644
        -0.000          -0.000
 -22630100.787 9 -15928408.17847  22244967.660    22244967.6804   22244973.4534
        -0.000          -0.000
 -10281584.527 9  -7343839.54946  23486563.961    23486563.5804   23486570.5864
        -0.000          -0.000
 -32158662.859 9 -23843059.27949  20087736.103    20087735.7804   20087742.0114
        -0.000          -0.000
 -19644610.478 9 -15011213.09547  22634732.259    22634731.9414   22634738.5524
        -0.000          -0.000
 -33399932.799 9 -25779718.01249  19869533.449    19869532.7494   19869538.4734
        -0.000          -0.000
 -22258977.738 9 -17062881.40248  21291769.798    21291769.7754   21291775.2184
        -0.000          -0.000
 97  3 12  1  8 29.9980000  0  7 10  4  6 24  9  5 30               -0.001633110
 -20701872.567 9 -15137559.42547  21825891.965    21825890.9504   21825897.9634
        -0.000          -0.000
 -22560559.584 9 -15874220.24047  22258200.930    22258200.9584   22258206.7204
        -0.000          -0.000
 -10370473.875 9  -7413103.92846  23469648.763    23469648.4514   23469655.5324
        -0.000          -0.000
 -32143607.481 9 -23831327.81749  20090601.061    20090600.7474   20090606.9754
        -0.000          -0.000
 -19580490.764 9 -14961249.70847  22646933.847    22646933.5344   22646940.1774
        -0.000          -0.000
 -33445194.645 9 -25814986.99049  19860920.372    19860919.6814   19860925.4274
        -0.000          -0.000
 -22357751.981 9 -17139848.32448  21272973.617    21272973.6274   21272979.0574
        -0.000          -0.000
 97  3 12  1  8 59.9980000  0  7 10  4  6 24  9  5 30               -0.001645995
 -20801164.313 9 -15214929.58847  21806997.280    21806996.3114   21807003.3374
        -0.000          -0.000
 -22490872.114 9 -15819918.33547  22271462.028    22271462.0184   22271467.8344
        -0.000          -0.000
 -10459360.337 9  -7482366.06946  23452734.304    23452733.8704   23452740.9594
        -0.000          -0.000
 -32128189.974 9 -23819314.17849  20093534.921    20093534.5864   20093540.8254
        -0.000          -0.000
 -19516261.209 9 -14911200.74147  22659156.384    22659156.0724   22659162.7054
        -0.000          -0.000
 -33489999.429 9 -25849899.82149  19852394.308    19852393.6244   19852399.3604
        -0.000          -0.000
 -22456227.115 9 -17216582.17248  21254234.370    21254234.4004   21254239.8524
        -0.000          -0.000
 97  3 12  1  9 29.9980000  0  7 10  4  6 24  9  5 30               -0.001658903
 -20900162.181 9 -15292070.75047  21788158.577    21788157.6324   21788164.5984
        -0.000          -0.000
 -22421050.015 9 -15765511.50747  22284748.752    22284748.7394   22284754.5684
        -0.000          -0.000
 -10548249.192 9  -7551630.06946  23435819.247    23435818.8304   23435825.9334
        -0.000          -0.000
 -32112409.059 9 -23807017.36049  20096537.886    20096537.5674   20096543.8184
        -0.000          -0.000
 -19451932.710 9 -14861074.65547  22671397.738    22671397.3784   22671404.0134
        -0.000          -0.000
 -33534337.631 9 -25884449.07649  19843957.027    19843956.3454   19843962.0594
        -0.000          -0.000
 -22554407.650 9 -17293086.46248  21235551.182    21235551.2344   21235556.7214
        -0.000          -0.000
 97  3 12  1  9 59.9980000  0  7 10  4  6 24  9  5 30               -0.001671825
 -20998860.543 9 -15368978.53647  21769376.912    21769375.9544   21769382.8914
        -0.000          -0.000
 -22351086.225 9 -15710994.29347  22298062.458    22298062.4134   22298068.2304
        -0.000          -0.000
 -10637137.898 9  -7620893.94646  23418904.288    23418903.8014   23418910.9254
        -0.000          -0.000
 -32096251.128 9 -23794426.76249  20099612.607    20099612.3084   20099618.5714
        -0.000          -0.000
 -19387486.157 9 -14810856.58247  22683661.535    22683661.1484   22683667.7934
        -0.000          -0.000
 -33578216.910 9 -25918640.72749  19835607.104    19835606.4154   19835612.1174
        -0.000          -0.000
 -22652298.847 9 -17369365.30148  21216923.057    21216923.1404   21216928.5974
        -0.000          -0.000
 97  3 12  1 10 29.9980000  0  7 10  4  6 24  9  5 30               -0.001684770
 -21097269.457 9 -15445660.77947  21750650.327    21750649.3494   21750656.2644
        -0.000          -0.000
 -22280999.005 9 -15656380.88947  22311399.647    22311399.6194   22311405.4324
        -0.000          -0.000
 -10726041.900 9  -7690169.73546  23401986.430    23401985.9624   23401992.9914
        -0.000          -0.000
 -32079712.306 9 -23781539.36949  20102759.837    20102759.5494   20102765.8334
        -0.000          -0.000
 -19322901.785 9 -14760531.11847  22695951.516    22695951.1504   22695957.8074
        -0.000          -0.000
 -33621648.659 9 -25952483.66049  19827342.330    19827341.6274   19827347.3234
        -0.000          -0.000
 -22749904.308 9 -17445421.49548  21198349.334    21198349.4384   21198354.8584
        -0.000          -0.000
 97  3 12  1 10 59.9980000  0  7 10  4  6 24  9  5 30               -0.001697737
 -21195387.826 9 -15522116.61247  21731978.935    21731977.9554   21731984.9034
        -0.000          -0.000
 -22210786.251 9 -15601669.65947  22324760.751    22324760.7094   22324766.4774
        -0.000          -0.000
 -10814961.858 9  -7759457.96446  23385065.349    23385064.9864   23385072.0154
        -0.000          -0.000
 -32062776.078 9 -23768342.30449  20105982.685    20105982.3884   20105988.6894
        -0.000          -0.000
 -19258161.299 9 -14710084.02047  22708271.223    22708270.8624   22708277.5294
        -0.000          -0.000
 -33664634.207 9 -25985978.90049  19819162.450    19819161.7604   19819167.4624
        -0.000          -0.000
 -22847221.463 9 -17521253.02348  21179830.532    21179830.6184   21179836.0254
        -0.000          -0.000
 97  3 12  1 11 29.9980000  0  7 10  4  6 24  9  5 30               -0.001710723
 -21293206.764 9 -15598339.12847  21713364.571    21713363.6114   21713370.5224
        -0.000          -0.000
 -22140456.174 9 -15546867.01747  22338144.122    22338144.0644   22338149.8314
        -0.000          -0.000
 -10903903.395 9  -7828762.99546  23368140.438    23368140.0234   23368146.9354
        -0.000          -0.000
 -32045445.052 9 -23754837.60349  20109280.718    20109280.3954   20109286.6864
        -0.000          -0.000
 -19193256.506 9 -14659508.89447  22720622.173    22720621.8514   22720628.5154
        -0.000          -0.000
 -33707178.763 9 -26019130.50849  19811066.444    19811065.7554   19811071.4854
        -0.000          -0.000
 -22944253.898 9 -17596862.69848  21161365.850    21161365.9314   21161371.3294
        -0.000          -0.000
 97  3 12  1 11 59.9980000  0  7 10  4  6 24  9  5 30               -0.001723714
 -21390699.260 9 -15674307.28147  21694812.353    21694811.3344   21694818.2664
        -0.000          -0.000
 -22070004.402 9 -15491969.54447  22351550.684    22351550.6334   22351556.3754
        -0.000          -0.000
 -10992842.645 9  -7898066.25746  23351215.789    23351215.4804   23351222.2554
        -0.000          -0.000
 -32027722.938 9 -23741028.15949  20112653.109    20112652.8004   20112659.0884
        -0.000          -0.000
 -19128176.908 9 -14608797.54647  22733006.418    22733006.0974   22733012.7864
        -0.000          -0.000
 -33749259.679 9 -26051920.83749  19803058.688    19803058.0084   19803063.7594
        -0.000          -0.000
 -23040991.146 9 -17672242.35248  21142957.374    21142957.4454   21142962.8244
        -0.000          -0.000
 97  3 12  1 12 29.9980000  0  7 10  4  6 24  9  5 30               -0.001736716
 -21487855.916 9 -15750013.74147  21676324.004    21676322.9644   21676329.9374
        -0.000          -0.000
 -21999444.023 9 -15436987.43247  22364977.869    22364977.7784   22364983.5284
        -0.000          -0.000
 -11081770.298 9  -7967360.49246  23334293.252    23334293.0354   23334299.7564
        -0.000          -0.000
 -32009630.583 9 -23726930.21949  20116095.950    20116095.6574   20116101.9454
        -0.000          -0.000
 -19062950.283 9 -14557971.63847  22745418.671    22745418.3644   22745424.9584
        -0.000          -0.000
 -33790863.283 9 -26084339.23149  19795141.780    19795141.0994   19795146.8524
        -0.000          -0.000
 -23137434.534 9 -17747393.02648  21124604.859    21124604.9104   21124610.2554
        -0.000          -0.000
 97  3 12  1 12 59.9980000  0  7 10  4  6 24  9  5 30               -0.001749721
 -21584663.438 9 -15825448.14147  21657902.047    21657901.0674   21657908.0494
        -0.000          -0.000
 -21928767.635 9 -15381914.95147  22378427.126    22378427.0774   22378432.8354
        -0.000          -0.000
 -11170681.802 9  -8036642.12546  23317373.924    23317373.6584   23317380.4194
        -0.000          -0.000
 -31991192.158 9 -23712562.61049  20119604.674    20119604.3784   20119610.6614
        -0.000          -0.000
 -18997602.354 9 -14507051.18947  22757854.015    22757853.7054   22757860.2774
        -0.000          -0.000
 -33831986.094 9 -26116382.98549  19787316.341    19787315.6764   19787321.4524
        -0.000          -0.000
 -23233592.067 9 -17822320.95748  21106306.653    21106306.6984   21106312.0284
        -0.000          -0.000
 97  3 12  1 13 29.9980000  0  7 10  4  6 24  9  5 30               -0.001762727
 -21681119.695 9 -15900608.83647  21639546.947    21639546.0244   21639553.0204
        -0.000          -0.000
 -21857980.106 9 -15326755.83947  22391897.541    22391897.5124   22391903.2404
        -0.000          -0.000
 -11259564.120 9  -8105901.04246  23300460.140    23300459.8984   23300466.6374
        -0.000          -0.000
 -31972425.507 9 -23697939.24549  20123175.857    20123175.5554   20123181.8614
        -0.000          -0.000
 -18932146.951 9 -14456047.00847  22770309.816    22770309.4924   22770316.1204
        -0.000          -0.000
 -33872619.160 9 -26148045.12249  19779584.139    19779583.4894   19779589.2624
        -0.000          -0.000
 -23329452.784 9 -17897017.61148  21088064.938    21088065.0164   21088070.3274
        -0.000          -0.000
 97  3 12  1 13 59.9980000  0  7 10  4  6 24  9  5 30               -0.001775740
 -21777256.381 9 -15975520.52147  21621252.650    21621251.7494   21621258.7714
        -0.000          -0.000
 -21787085.545 9 -15271513.34447  22405388.346    22405388.3624   22405394.0274
        -0.000          -0.000
 -11348430.078 9  -8175147.21046  23283549.524    23283549.1854   23283555.9454
        -0.000          -0.000
 -31953340.188 9 -23683067.56549  20126807.658    20126807.3514   20126813.6494
        -0.000          -0.000
 -18866600.362 9 -14404971.78547  22782782.923    22782782.5974   22782789.2544
        -0.000          -0.000
 -33912787.416 9 -26179345.06249  19771940.358    19771939.7014   19771945.4874
        -0.000          -0.000
 -23425017.724 9 -17971483.78448  21069879.515    21069879.5864   21069884.8954
        -0.000          -0.000
 97  3 12  1 14 29.9980000  0  7 10  4  6 24  9  5 30               -0.001788753
 -21873071.257 9 -16050181.43547  21603019.678    21603018.7714   21603025.7764
        -0.000          -0.000
 -21716070.032 9 -15216176.59547  22418902.148    22418902.1374   22418907.7884
        -0.000          -0.000
 -11437286.493 9  -8244385.94046  23266640.655    23266640.3214   23266647.1574
        -0.000          -0.000
 -31933925.084 9 -23667938.91349  20130502.246    20130501.9444   20130508.2314
        -0.000          -0.000
 -18800949.214 9 -14353815.07347  22795275.937    22795275.6104   22795282.3024
        -0.000          -0.000
 -33952490.660 9 -26210282.65349  19764385.045    19764384.4214   19764390.2204
        -0.000          -0.000
 -23520266.691 9 -18045703.74248  21051754.248    21051754.3344   21051759.6094
        -0.000          -0.000
 97  3 12  1 14 59.9980000  0  7 10  4  6 24  9  5 30               -0.001801763
 -21968550.609 9 -16124580.90547  21584850.566    21584849.6304   21584856.5974
        -0.000          -0.000
 -21644917.503 9 -15160733.06847  22432442.040    22432442.0044   22432447.6694
        -0.000          -0.000
 -11526124.568 9  -8313610.35746  23249735.227    23249734.8934   23249741.8564
        -0.000          -0.000
 -31914151.799 9 -23652531.15749  20134264.949    20134264.6694   20134270.9364
        -0.000          -0.000
 -18735171.593 9 -14302559.79647  22807792.946    22807792.6844   22807799.3644
        -0.000          -0.000
 -33991708.516 9 -26240842.02149  19756922.163    19756921.5184   19756927.3384
        -0.000          -0.000
 -23615164.679 9 -18119650.21448  21033695.777    21033695.8454   21033701.1224
        -0.000          -0.000
 97  3 12  1 15 29.9980000  0  7 10  4  6 24  9  5 30               -0.001814785
 -22063717.799 9 -16198737.13647  21566740.885    21566739.9374   21566746.8864
        -0.000          -0.000
 -21573649.573 9 -15105199.64447  22446003.853    22446003.8344   22446009.5004
        -0.000          -0.000
 -11614962.930 9  -8382834.98946  23232829.896    23232829.4974   23232836.4724
        -0.000          -0.000
 -31894018.804 9 -23636843.10849  20138096.120    20138095.8264   20138102.1134
        -0.000          -0.000
 -18669271.368 9 -14251209.01047  22820333.368    22820333.0724   22820339.7874
        -0.000          -0.000
 -34030451.057 9 -26271031.01749  19749549.687    19749549.0424   19749554.8774
        -0.000          -0.000
 -23709712.812 9 -18193324.06448  21015703.847    21015703.9014   21015709.2154
        -0.000          -0.000
 97  3 12  1 15 59.9980000  0  7 10  4  6 24  9  5 30               -0.001827834
 -22158577.517 9 -16272653.77347  21548689.694    21548688.7234   21548695.6384
        -0.000          -0.000
 -21502281.473 9 -15049588.14147  22459584.747    22459584.7134   22459590.4694
        -0.000          -0.000
 -11703825.464 9  -8452078.46746  23215919.764    23215919.5134   23215926.4554
        -0.000          -0.000
 -31873534.615 9 -23620881.40249  20141994.124    20141993.8284   20142000.1274
        -0.000          -0.000
 -18603257.615 9 -14199769.75447  22832895.380    22832895.0564   22832901.7854
        -0.000          -0.000
 -34068724.104 9 -26300854.17249  19742266.580    19742265.9344   19742271.7684
        -0.000          -0.000
 -23803943.900 9 -18266750.87348  20997772.250    20997772.3154   20997777.6344
        -0.000          -0.000
 97  3 12  1 16 29.9980000  0  7 10  4  6 24  9  5 30               -0.001840915
 -22253118.667 9 -16346322.17847  21530699.085    21530698.1684   21530705.0454
        -0.000          -0.000
 -21430835.883 9 -14993916.26247  22473180.321    22473180.3514   22473186.1644
        -0.000          -0.000
 -11792713.777 9  -8521342.02446  23199004.845    23199004.5644   23199011.5224
        -0.000          -0.000
 -31852715.608 9 -23604658.79549  20145955.853    20145955.5454   20145961.8524
        -0.000          -0.000
 -18537148.080 9 -14148255.84747  22845475.640    22845475.2864   22845482.0324
        -0.000          -0.000
 -34106525.325 9 -26330309.66949  19735073.212    19735072.5644   19735078.4034
        -0.000          -0.000
 -23897876.720 9 -18339945.26648  20979897.402    20979897.4594   20979902.8104
        -0.000          -0.000
 97  3 12  1 16 59.9980000  0  7 10  4  6 24  9  5 30               -0.001854026
 -22347328.734 9 -16419732.58647  21512771.492    21512770.5294   21512777.4294
        -0.000          -0.000
 -21359312.409 9 -14938183.70047  22486790.831    22486790.8284   22486796.6854
        -0.000          -0.000
 -11881608.547 9  -8590610.62646  23182088.754    23182088.4544   23182095.3984
        -0.000          -0.000
 -31831546.065 9 -23588163.04549  20149984.252    20149983.9664   20149990.2674
        -0.000          -0.000
 -18470946.746 9 -14096670.41146  22858073.338    22858073.0554   22858079.7244
        -0.000          -0.000
 -34143851.540 9 -26359395.03849  19727970.261    19727969.6314   19727975.4744
        -0.000          -0.000
 -23991501.050 9 -18412899.27148  20962081.257    20962081.3234   20962086.6974
        -0.000          -0.000
 97  3 12  1 17 29.9980000  0  7 10  4  6 24  9  5 30               -0.001867144
 -22441191.790 9 -16492872.61047  21494909.921    21494908.9144   21494915.8504
        -0.000          -0.000
 -21287691.980 9 -14882375.58047  22500419.784    22500419.7344   22500425.5684
        -0.000          -0.000
 -11970491.177 9  -8659869.75546  23165174.831    23165174.6434   23165181.5294
        -0.000          -0.000
 -31810018.117 9 -23571388.01749  20154080.919    20154080.6304   20154086.9334
        -0.000          -0.000
 -18404631.828 9 -14044996.48146  22870692.735    22870692.3894   22870699.1224
        -0.000          -0.000
 -34180695.965 9 -26388104.98149  19720959.013    19720958.3854   19720964.2114
        -0.000          -0.000
 -24084814.852 9 -18485611.30448  20944324.187    20944324.2664   20944329.6384
        -0.000          -0.000
 97  3 12  1 17 59.9980000  0  7 10  4  6 24  9  5 30               -0.001880272
 -22534707.174 9 -16565741.71147  21477114.448    21477113.4944   21477120.4654
        -0.000          -0.000
 -21215986.514 9 -14826501.21847  22514064.820    22514064.8374   22514070.6934
        -0.000          -0.000
 -12059358.887 9  -8729117.27046  23148263.907    23148263.6614   23148270.5234
        -0.000          -0.000
 -31788145.448 9 -23554344.37449  20158243.128    20158242.8294   20158249.1414
        -0.000          -0.000
 -18338222.028 9 -13993248.61946  22883330.119    22883329.7714   22883336.4934
        -0.000          -0.000
 -34217065.590 9 -26416444.95249  19714038.107    19714037.4864   19714043.2714
        -0.000          -0.000
 -24177829.692 9 -18558090.38348  20926624.082    20926624.1304   20926629.5044
        -0.000          -0.000
 97  3 12  1 18 29.9980000  0  7 10  4  6 24  9  5 30               -0.001893414
 -22627888.217 9 -16638350.28447  21459382.650    21459381.7094   21459388.7074
        -0.000          -0.000
 -21144200.471 9 -14770564.05447  22527725.264    22527725.2414   22527731.1624
        -0.000          -0.000
 -12148209.536 9  -8798351.49846  23131356.146    23131355.8954   23131362.7804
        -0.000          -0.000
 -31765930.766 9 -23537034.22849  20162470.431    20162470.1324   20162476.4514
        -0.000          -0.000
 -18271728.416 9 -13941435.44046  22895983.427    22895983.0404   22895989.7814
        -0.000          -0.000
 -34252964.525 9 -26444418.15549  19707206.798    19707206.1654   19707211.9584
        -0.000          -0.000
 -24270514.889 9 -18630312.60548  20908986.669    20908986.6904   20908992.0414
        -0.000          -0.000
 97  3 12  1 18 59.9980000  0  7 10  4  6 24  9  5 30               -0.001906561
 -22720720.909 9 -16710687.42247  21441717.183    21441716.2294   21441723.1984
        -0.000          -0.000
 -21072310.079 9 -14714545.56747  22541405.549    22541405.5304   22541411.4064
        -0.000          -0.000
 -12237036.753 9  -8867567.46046  23114452.907    23114452.5784   23114459.4324
        -0.000          -0.000
 -31743356.483 9 -23519443.87249  20166766.158    20166765.8884   20166772.2054
        -0.000          -0.000
 -18205126.707 9 -13889538.03146  22908657.222    22908656.9174   22908663.7034
        -0.000          -0.000
 -34288366.590 9 -26472004.18149  19700470.019    19700469.3894   19700475.1774
        -0.000          -0.000
 -24362838.446 9 -18702253.02648  20891418.059    20891418.0924   20891423.4614
        -0.000          -0.000
 97  3 12  1 19 29.9980000  0  7 10  4  6 24  9  5 30               -0.001919717
 -22813201.438 9 -16782750.14448  21424118.701    21424117.7524   21424124.7494
        -0.000          -0.000
 -21000320.705 9 -14658449.94947  22555104.697    22555104.6954   22555110.4934
        -0.000          -0.000
 -12325857.637 9  -8936778.49946  23097550.755    23097550.4984   23097557.3484
        -0.000          -0.000
 -31720433.251 9 -23501581.60749  20171128.291    20171127.9994   20171134.3224
        -0.000          -0.000
 -18138423.678 9 -13837561.68346  22921350.407    22921350.0894   22921356.8914
        -0.000          -0.000
 -34323268.561 9 -26499200.52149  19693828.400    19693827.7574   19693833.5554
        -0.000          -0.000
 -24454813.409 9 -18773921.81448  20873915.796    20873915.8094   20873921.1644
        -0.000          -0.000
 97  3 12  1 19 59.9980000  0  7 10  4  6 24  9  5 30               -0.001932891
 -22905313.545 9 -16854525.78148  21406590.307    21406589.3674   21406596.3684
        -0.000          -0.000
 -20928241.494 9 -14602284.35247  22568820.945    22568820.9004   22568826.7374
        -0.000          -0.000
 -12414678.700 9  -9005989.66946  23080648.588    23080648.3504   23080655.1354
        -0.000          -0.000
 -31697167.343 9 -23483452.32749  20175555.674    20175555.3744   20175561.6794
        -0.000          -0.000
 -18071637.418 9 -13785520.46946  22934059.512    22934059.1514   22934065.9554
        -0.000          -0.000
 -34357671.438 9 -26526007.96549  19687281.731    19687281.1094   19687286.9124
        -0.000          -0.000
 -24546420.134 9 -18845303.67048  20856483.602    20856483.6274   20856488.9504
        -0.000          -0.000
 97  3 12  1 20 29.9980000  0  7 10  4  6 24  9  5 30               -0.001946077
 -22997040.679 9 -16926001.44448  21389135.194    21389134.2614   21389141.2694
        -0.000          -0.000
 -20856067.832 9 -14546045.13946  22582555.149    22582555.0534   22582561.0064
        -0.000          -0.000
 -12503508.762 9  -9075207.86246  23063744.564    23063744.4524   23063751.2504
        -0.000          -0.000
 -31673561.887 9 -23465058.46249  20180047.621    20180047.3244   20180053.6324
        -0.000          -0.000
 -18004759.809 9 -13733408.06646  22946785.917    22946785.6014   22946792.3724
        -0.000          -0.000
 -34391578.739 9 -26552429.24549  19680829.379    19680828.7464   19680834.5634
        -0.000          -0.000
 -24637641.396 9 -18916385.15948  20839124.776    20839124.8044   20839130.1024
        -0.000          -0.000
 97  3 12  1 20 59.9980000  0  7 10  4  6 24  9  5 30               -0.001959280
 -23088376.631 9 -16997172.27848  21371754.482    21371753.5534   21371760.5654
        -0.000          -0.000
 -20783820.845 9 -14489748.80746  22596303.233    22596303.2544   22596309.1384
        -0.000          -0.000
 -12592366.409 9  -9144447.53446  23046835.406    23046835.3784   23046842.1214
        -0.000          -0.000
 -31649639.353 9 -23446417.52549  20184599.881    20184599.5834   20184605.9014
        -0.000          -0.000
 -17937815.435 9 -13681243.66346  22959525.006    22959524.6924   22959531.4764
        -0.000          -0.000
 -34425008.759 9 -26578478.62049  19674467.875    19674467.2404   19674473.0264
        -0.000          -0.000
 -24728520.003 9 -18987199.64948  20821831.186    20821831.1964   20821836.4594
        -0.000          -0.000
 97  3 12  1 21 29.9980000  0  7 10  4  6 24  9  5 30               -0.001972500
 -23179326.669 9 -17068042.41348  21354447.277    21354446.3154   21354453.3114
        -0.000          -0.000
 -20711511.848 9 -14433404.12646  22610063.229    22610063.2484   22610069.0524
        -0.000          -0.000
 -12681238.552 9  -9213698.50846  23029923.430    23029923.5264   23029930.3244
        -0.000          -0.000
 -31625414.600 9 -23427541.09849  20189209.667    20189209.4114   20189215.7294
        -0.000          -0.000
 -17870823.864 9 -13629042.47546  22972273.138    22972272.7964   22972279.6544
        -0.000          -0.000
 -34457978.268 9 -26604169.15249  19668193.995    19668193.3634   19668199.1364
        -0.000          -0.000
 -24819066.324 9 -19057755.21448  20804600.785    20804600.8154   20804606.0394
        -0.000          -0.000
 97  3 12  1 21 59.9980000  0  7 10  4  6 24  9  5 30               -0.001985732
 -23269892.077 9 -17138612.83948  21337213.204    21337212.2654   21337219.2314
        -0.000          -0.000
 -20639143.166 9 -14377012.95546  22623834.483    22623834.5654   22623840.3264
        -0.000          -0.000
 -12770099.004 9  -9282940.36346  23013013.881    23013013.9124   23013020.7244
        -0.000          -0.000
 -31600894.206 9 -23408434.29349  20193875.782    20193875.5014   20193881.8194
        -0.000          -0.000
 -17803777.760 9 -13576798.79646  22985031.608    22985031.2544   22985038.1554
        -0.000          -0.000
 -34490467.455 9 -26629485.39949  19662011.528    19662010.9034   19662016.6734
        -0.000          -0.000
 -24909264.099 9 -19128039.18148  20787436.726    20787436.7474   20787441.9404
        -0.000          -0.000
 97  3 12  1 22 29.9980000  0  7 10  4  6 24  9  5 30               -0.001998974
 -23360066.679 9 -17208878.73248  21320053.558    21320052.6054   21320059.5534
        -0.000          -0.000
 -20566701.260 9 -14320564.72846  22637619.746    22637619.8724   22637625.5664
        -0.000          -0.000
 -12858930.565 9  -9352159.72746  22996109.967    22996109.8544   22996116.5784
        -0.000          -0.000
 -31576053.225 9 -23389077.68349  20198602.853    20198602.5684   20198608.8914
        -0.000          -0.000
 -17736667.212 9 -13524504.87746  22997802.358    22997801.9734   22997808.9134
        -0.000          -0.000
 -34522450.935 9 -26654407.59349  19655925.287    19655924.6564   19655930.4174
        -0.000          -0.000
 -24999116.203 9 -19198053.79948  20770338.441    20770338.4544   20770343.6254
        -0.000          -0.000
 97  3 12  1 22 59.9980000  0  7 10  4  6 24  9  5 30               -0.002012231
 -23449872.517 9 -17278857.28648  21302964.039    21302963.1064   21302970.0264
        -0.000          -0.000
 -20494194.141 9 -14264065.69346  22651417.351    22651417.4704   22651423.2374
        -0.000          -0.000
 -12947728.701 9  -9421353.03046  22979212.242    22979212.1124   22979218.8664
        -0.000          -0.000
 -31550899.972 9 -23369477.74249  20203389.342    20203389.0754   20203395.3824
        -0.000          -0.000
 -17669514.212 9 -13472177.91746  23010581.163    23010580.7764   23010587.7704
        -0.000          -0.000
 -34553930.590 9 -26678937.19649  19649934.874    19649934.2444   19649940.0244
        -0.000          -0.000
 -25088649.096 9 -19267819.67748  20753300.881    20753300.9294   20753306.1114
        -0.000          -0.000
 97  3 12  1 23 29.9970000  0  7 10  4  6 24  9  5 30               -0.002025505
 -23539316.782 9 -17348554.10248  21285943.361    21285942.4194   21285949.3064
        -0.000          -0.000
 -20421627.931 9 -14207520.59646  22665226.271    22665226.3814   22665232.1414
        -0.000          -0.000
 -13036490.363 9  -9490517.91846  22962321.476    22962321.2654   22962327.9674
        -0.000          -0.000
 -31525435.077 9 -23349634.96649  20208235.157    20208234.8704   20208241.1794
        -0.000          -0.000
 -17602316.802 9 -13419816.30246  23023368.438    23023368.0444   23023375.0594
        -0.000          -0.000
 -34584904.267 9 -26703072.53249  19644040.795    19644040.1844   19644045.9594
        -0.000          -0.000
 -25177846.187 9 -19337323.89448  20736327.201    20736327.2404   20736332.4194
        -0.000          -0.000
 97  3 12  1 23 59.9970000  0  7 10  4  6 24  9  5 30               -0.002038794
 -23628381.977 9 -17417955.53648  21268994.895    21268993.9124   21269000.7914
        -0.000          -0.000
 -20348976.488 9 -14150909.09346  22679051.351    22679051.4194   22679057.2904
        -0.000          -0.000
 -13125233.261 9  -9559668.17746  22945434.199    22945434.0064   22945440.6684
        -0.000          -0.000
 -31499627.100 9 -23329524.85249  20213146.237    20213145.9804   20213152.2874
        -0.000          -0.000
 -17535051.093 9 -13367401.49646  23036168.704    23036168.3034   23036175.3054
        -0.000          -0.000
 -34615350.781 9 -26726797.08949  19638247.019    19638246.4054   19638252.1854
        -0.000          -0.000
 -25266688.462 9 -19406551.63548  20719421.051    20719421.1034   20719426.3224
        -0.000          -0.000
 97  3 12  1 24 29.9970000  0  7 10  4  6 24  9  5 30               -0.002052101
 -23717079.545 9 -17487070.50348  21252116.271    21252115.2874   21252122.1844
        -0.000          -0.000
 -20276248.146 9 -14094237.67946  22692891.182    22692891.1194   22692897.0484
        -0.000          -0.000
 -13213991.799 9  -9628830.64146  22928543.993    22928543.7794   22928550.4734
        -0.000          -0.000
 -31473485.630 9 -23309154.87649  20218120.807    20218120.5364   20218126.8474
        -0.000          -0.000
 -17467738.159 9 -13314949.90546  23048977.915    23048977.5754   23048984.5804
        -0.000          -0.000
 -34645307.112 9 -26750139.68549  19632546.531    19632545.8914   19632551.6784
        -0.000          -0.000
 -25355196.962 9 -19475519.29348  20702578.388    20702578.4534   20702583.7084
        -0.000          -0.000
 97  3 12  1 24 59.9970000  0  7 10  4  6 24  9  5 30               -0.002065421
 -23805408.488 9 -17555898.23448  21235307.718    21235306.7734   21235313.6744
        -0.000          -0.000
 -20203449.751 9 -14037511.66646  22706744.226    22706744.1784   22706750.1334
        -0.000          -0.000
 -13302770.305 9  -9698008.63846  22911649.932    22911649.7854   22911656.4234
        -0.000          -0.000
 -31447024.754 9 -23288536.01649  20223156.150    20223155.8814   20223162.1824
        -0.000          -0.000
 -17400363.862 9 -13262450.46946  23061798.801    23061798.5194   23061805.4874
        -0.000          -0.000
 -34674780.615 9 -26773106.05449  19626937.903    19626937.2544   19626943.0334
        -0.000          -0.000
 -25443353.350 9 -19544212.57648  20685802.758    20685802.8374   20685808.1164
        -0.000          -0.000
 97  3 12  1 25 29.9970000  0  7 10  4  6 24  9  5 30               -0.002078744
 -23893332.217 9 -17624410.21848  21218576.335    21218575.4264   21218582.3144
        -0.000          -0.000
 -20130569.147 9 -13980721.60346  22720612.926    22720612.8974   22720618.8774
        -0.000          -0.000
 -13391563.052 9  -9767197.73846  22894753.170    22894753.0424   22894759.6754
        -0.000          -0.000
 -31420219.554 9 -23267648.84849  20228256.971    20228256.7194   20228263.0134
        -0.000          -0.000
 -17332899.291 9 -13209880.70546  23074636.886    23074636.6014   23074643.5884
        -0.000          -0.000
 -34703751.478 9 -26795680.76049  19621424.905    19621424.2514   19621430.0354
        -0.000          -0.000
 -25531116.065 9 -19612599.10448  20669102.032    20669102.1184   20669107.4134
        -0.000          -0.000
 97  3 12  1 25 59.9970000  0  7 10  4  6 24  9  5 30               -0.002092069
 -23980856.951 9 -17692611.29148  21201920.891    21201919.9864   21201926.8824
        -0.000          -0.000
 -20057616.913 9 -13923875.71446  22734495.315    22734495.2564   22734501.2624
        -0.000          -0.000
 -13480379.410 9  -9836405.24246  22877852.053    22877851.8234   22877858.4064
        -0.000          -0.000
 -31393089.477 9 -23246508.53049  20233419.648    20233419.3654   20233425.6724
        -0.000          -0.000
 -17265353.922 9 -13157247.97646  23087490.407    23087490.1434   23087497.0474
        -0.000          -0.000
 -34732238.265 9 -26817878.27149  19616004.041    19616003.4134   19616009.1854
        -0.000          -0.000
 -25618496.027 9 -19680687.37648  20652474.203    20652474.2804   20652479.5644
        -0.000          -0.000
 97  3 12  1 26 29.9970000  0  7 10  4  6 24  9  5 30               -0.002105391
 -24067977.442 9 -17760497.36548  21185342.428    21185341.4934   21185348.4314
        -0.000          -0.000
 -19984598.315 9 -13866978.12946  22748390.311    22748390.2574   22748396.2654
        -0.000          -0.000
 -13569190.798 9  -9905608.87946  22860951.732    22860951.5134   22860958.1344
        -0.000          -0.000
 -31365652.131 9 -23225128.78249  20238640.806    20238640.5414   20238646.8434
        -0.000          -0.000
 -17197734.226 9 -13104557.34846  23100358.061    23100357.7054   23100364.6784
        -0.000          -0.000
 -34760235.024 9 -26839693.93349  19610676.446    19610675.8124   19610681.6034
        -0.000          -0.000
 -25705488.453 9 -19748473.67948  20635920.096    20635920.1704   20635925.4474
        -0.000          -0.000
 97  3 12  1 26 59.9970000  0  7 10  4  6 24  9  5 30               -0.002118712
 -24154686.784 9 -17828063.07448  21168842.236    21168841.2364   21168848.1664
        -0.000          -0.000
 -19911522.207 9 -13810035.71146  22762296.176    22762296.2104   22762302.1864
        -0.000          -0.000
 -13657979.534 9  -9974794.86446  22844055.782    22844055.5904   22844062.1554
        -0.000          -0.000
 -31337909.088 9 -23203510.83049  20243920.134    20243919.8464   20243926.1664
        -0.000          -0.000
 -17130044.385 9 -13051812.03946  23113239.041    23113238.6484   23113245.6554
        -0.000          -0.000
 -34787730.796 9 -26861119.20949  19605444.174    19605443.5244   19605449.3184
        -0.000          -0.000
 -25792078.069 9 -19815946.10048  20619442.639    20619442.7374   20619448.0054
        -0.000          -0.000
 97  3 12  1 27 29.9970000  0  7 10  4  6 24  9  5 30               -0.002132024
 -24240975.732 9 -17895301.19948  21152421.993    21152421.0144   21152427.9024
        -0.000          -0.000
 -19838375.353 9 -13753038.17746  22776215.490    22776215.5744   22776221.5484
        -0.000          -0.000
 -13746730.069 9 -10043951.08346  22827167.043    22827166.8624   22827173.4304
        -0.000          -0.000
 -31309862.277 9 -23181656.17449  20249257.245    20249256.9714   20249263.2964
        -0.000          -0.000
 -17062292.440 9 -12999018.35546  23126131.759    23126131.4034   23126138.4444
        -0.000          -0.000
 -34814716.773 9 -26882147.24849  19600308.925    19600308.2894   19600314.0804
        -0.000          -0.000
 -25878267.306 9 -19883106.54348  20603041.384    20603041.4514   20603046.7574
        -0.000          -0.000
 97  3 12  1 27 59.9970000  0  7 10  4  6 24  9  5 30               -0.002145340
 -24326869.719 9 -17962231.56048  21136076.857    21136075.9194   21136082.7774
        -0.000          -0.000
 -19765171.977 9 -13695996.59846  22790145.677    22790145.6714   22790151.6954
        -0.000          -0.000
 -13835453.708 9 -10113086.35346  22810283.475    22810283.2804   22810289.8504
        -0.000          -0.000
 -31281538.754 9 -23159585.89849  20254647.030    20254646.7604   20254653.0974
        -0.000          -0.000
 -16994513.111 9 -12946203.32646  23139029.727    23139029.3934   23139036.4794
        -0.000          -0.000
 -34841201.734 9 -26902784.87849  19595269.013    19595268.3784   19595274.1644
        -0.000          -0.000
 -25964073.463 9 -19949968.47548  20586713.000    20586713.0754   20586718.3864
        -0.000          -0.000
 97  3 12  1 28 29.9970000  0  7 10  4  6 24  9  5 30               -0.002158667
 -24412362.800 9 -18028849.52648  21119808.055    21119807.1424   21119813.9824
        -0.000          -0.000
 -19691912.335 9 -13638911.15946  22804086.570    22804086.5394   22804092.5414
        -0.000          -0.000
 -13924147.627 9 -10182198.44846  22793405.667    22793405.3444   22793411.9204
        -0.000          -0.000
 -31252926.352 9 -23137290.52049  20260091.757    20260091.4914   20260097.8414
        -0.000          -0.000
 -16926709.863 9 -12893369.64946  23151932.235    23151931.9114   23151939.0394
        -0.000          -0.000
 -34867165.764 9 -26923016.59849  19590328.224    19590327.5884   19590333.3664
        -0.000          -0.000
 -26049491.547 9 -20016528.01448  20570458.441    20570458.5084   20570463.8394
        -0.000          -0.000
 97  3 12  1 28 59.9970000  0  7 10  4  6 24  9  5 30               -0.002172012
 -24497450.710 9 -18095151.77448  21103616.362    21103615.4314   21103622.2714
        -0.000          -0.000
 -19618602.448 9 -13581786.58446  22818037.009    22818036.9424   22818043.0214
        -0.000          -0.000
 -14012833.876 9 -10251304.56846  22776529.048    22776528.8484   22776535.4294
        -0.000          -0.000
 -31224025.147 9 -23114770.10049  20265591.470    20265591.2034   20265597.5734
        -0.000          -0.000
 -16858887.191 9 -12840520.84846  23164838.489    23164838.1964   23164845.2634
        -0.000          -0.000
 -34892613.160 9 -26942845.74749  19585485.756    19585485.1114   19585490.8734
        -0.000          -0.000
 -26134529.280 9 -20082791.17948  20554276.311    20554276.3714   20554281.6984
        -0.000          -0.000
 97  3 12  1 29 29.9970000  0  7 10  4  6 24  9  5 30               -0.002185383
 -24582138.234 9 -18161142.03048  21087500.911    21087499.9484   21087506.8244
        -0.000          -0.000
 -19545245.043 9 -13524624.98346  22831996.435    22831996.3794   22832002.3954
        -0.000          -0.000
 -14101540.072 9 -10320426.24746  22759648.790    22759648.5644   22759655.2334
        -0.000          -0.000
 -31194849.155 9 -23092035.55849  20271143.506    20271143.2204   20271149.5974
        -0.000          -0.000
 -16791056.909 9 -12787666.10546  23177746.217    23177745.8714   23177752.9894
        -0.000          -0.000
 -34917549.321 9 -26962276.52749  19580740.579    19580739.9264   19580745.6904
        -0.000          -0.000
 -26219188.503 9 -20148759.39648  20538166.185    20538166.2434   20538171.5754
        -0.000          -0.000
 97  3 12  1 29 59.9970000  0  7 10  4  6 24  9  5 30               -0.002198781
 -24666414.889 9 -18226812.12648  21071463.573    21071462.6004   21071469.4934
        -0.000          -0.000
 -19471841.965 9 -13467427.78646  22845964.581    22845964.5674   22845970.5534
        -0.000          -0.000
 -14190268.807 9 -10389565.45846  22742764.190    22742763.9634   22742770.6894
        -0.000          -0.000
 -31165383.191 9 -23069075.06349  20276750.683    20276750.3984   20276756.7894
        -0.000          -0.000
 -16723212.461 9 -12734800.34146  23190656.626    23190656.3334   23190663.3304
        -0.000          -0.000
 -34941966.954 9 -26981303.26049  19576094.058    19576093.4034   19576099.1654
        -0.000          -0.000
 -26303461.905 9 -20214426.97748  20522129.468    20522129.5364   20522134.8624
        -0.000          -0.000
 97  3 12  1 30 29.9970000  0  7 10  4  6 24  9  5 30               -0.002212201
 -24750282.679 9 -18292163.63748  21055504.049    21055503.0894   21055509.9474
        -0.000          -0.000
 -19398397.095 9 -13410198.02846  22859940.669    22859940.7024   22859946.6434
        -0.000          -0.000
 -14279024.587 9 -10458725.75846  22725874.475    22725874.2554   22725880.9534
        -0.000          -0.000
 -31135628.067 9 -23045889.24949  20282412.907    20282412.6184   20282418.9944
        -0.000          -0.000
 -16655347.810 9 -12681918.82146  23203570.836    23203570.5324   23203577.5404
        -0.000          -0.000
 -34965873.991 9 -26999932.11349  19571544.721    19571544.0724   19571549.8454
        -0.000          -0.000
 -26387364.140 9 -20279805.32848  20506163.368    20506163.4394   20506168.7614
        -0.000          -0.000
 97  3 12  1 30 59.9970000  0  7 10  4  6 24  9  5 30               -0.002225640
 -24833741.696 9 -18357196.61348  21039622.293    21039621.3334   21039628.1634
        -0.000          -0.000
 -19324912.419 9 -13352937.24146  22873924.355    22873924.4014   22873930.3364
        -0.000          -0.000
 -14367810.666 9 -10527909.68046  22708979.080    22708978.8214   22708985.5124
        -0.000          -0.000
 -31105591.670 9 -23022484.26449  20288128.641    20288128.3514   20288134.7214
        -0.000          -0.000
 -16587466.680 9 -12629024.46846  23216488.263    23216488.0304   23216495.0254
        -0.000          -0.000
 -34989282.369 9 -27018172.40249  19567090.250    19567089.6064   19567095.3784
        -0.000          -0.000
 -26470884.962 9 -20344886.48748  20490269.861    20490269.9414   20490275.2464
        -0.000          -0.000
 97  3 12  1 31 29.9970000  0  7 10  4  6 24  9  5 30               -0.002239088
 -24916779.933 9 -18421901.71848  21023820.640    21023819.6534   21023826.4834
        -0.000          -0.000
 -19251377.015 9 -13295636.94146  22887917.702    22887917.7644   22887923.6564
        -0.000          -0.000
 -14456593.588 9 -10597091.14046  22692084.174    22692083.9474   22692090.6274
        -0.000          -0.000
 -31075246.771 9 -22998838.88749  20293903.078    20293902.7834   20293909.1684
        -0.000          -0.000
 -16519553.686 9 -12576105.32046  23229411.682    23229411.4234   23229418.4004
        -0.000          -0.000
 -35012172.970 9 -27036009.23349  19562734.320    19562733.6714   19562739.4424
        -0.000          -0.000
 -26554007.744 9 -20409657.47748  20474452.123    20474452.1924   20474457.5194
        -0.000          -0.000
 97  3 12  1 31 59.9970000  0  7 10  4  6 24  9  5 30               -0.002252549
 -24999399.791 9 -18486280.81048  21008098.595    21008097.6174   21008104.4244
        -0.000          -0.000
 -19177806.309 9 -13238309.13346  22901917.826    22901917.7624   22901923.7094
        -0.000          -0.000
 -14545358.649 9 -10666258.67946  22675192.837    22675192.4814   22675199.1714
        -0.000          -0.000
 -31044591.272 9 -22974951.48349  20299736.591    20299736.3054   20299742.7034
        -0.000          -0.000
 -16451620.454 9 -12523170.35546  23242338.995    23242338.7434   23242345.7244
        -0.000          -0.000
 -35034539.481 9 -27053437.68349  19558478.082    19558477.4584   19558483.2174
        -0.000          -0.000
 -26636739.137 9 -20474123.49248  20458708.828    20458708.9304   20458714.2244
        -0.000          -0.000
 97  3 12  1 32 29.9970000  0  7 10  4  6 24  9  5 30               -0.002266016
 -25081579.308 9 -18550316.80248  20992460.285    20992459.3434   20992466.1604
        -0.000          -0.000
 -19104187.379 9 -13180943.73746  22915926.935    22915926.9744   22915932.8614
        -0.000          -0.000
 -14634086.084 9 -10735396.89646  22658308.551    22658308.1604   22658314.8284
        -0.000          -0.000
 -31013617.435 9 -22950816.02549  20305630.681    20305630.4054   20305636.8174
        -0.000          -0.000
 -16383662.062 9 -12470215.80246  23255271.056    23255270.7814   23255277.8034
        -0.000          -0.000
 -35056368.484 9 -27070447.29849  19554324.154    19554323.5144   19554329.2944
        -0.000          -0.000
 -26719054.485 9 -20538265.31448  20443044.736    20443044.8254   20443050.1304
        -0.000          -0.000
 97  3 12  1 32 59.9970000  0  7 10  4  6 24  9  5 30               -0.002279500
 -25163318.273 9 -18614009.51248  20976905.897    20976904.9314   20976911.7374
        -0.000          -0.000
 -19030538.754 9 -13123555.20046  22929941.743    22929941.7814   22929947.7364
        -0.000          -0.000
 -14722789.175 9 -10804516.14746  22641428.821    22641428.4754   22641435.1634
        -0.000          -0.000
 -30982356.312 9 -22926456.71049  20311579.503    20311579.2264   20311585.6284
        -0.000          -0.000
 -16315708.538 9 -12417265.04646  23268202.162    23268201.9194   23268209.0154
        -0.000          -0.000
 -35077678.720 9 -27087052.68349  19550268.961    19550268.3414   19550274.1074
        -0.000          -0.000
 -26800948.696 9 -20602078.97548  20427460.813    20427460.8934   20427466.1554
        -0.000          -0.000
 97  3 12  1 33 29.9970000  0  7 10  4  6 24  9  5 30               -0.002293002
 -25244622.261 9 -18677363.26348  20961434.261    20961433.2924   20961440.0984
        -0.000          -0.000
 -18956865.164 9 -13066147.21146  22943961.337    22943961.3564   22943967.3894
        -0.000          -0.000
 -14811464.130 9 -10873613.47146  22624554.390    22624554.1074   22624560.8314
        -0.000          -0.000
 -30950816.455 9 -22901880.19949  20317581.327    20317581.0514   20317587.4384
        -0.000          -0.000
 -16247766.799 9 -12364323.45946  23281131.043    23281130.7894   23281137.9004
        -0.000          -0.000
 -35098465.227 9 -27103249.97149  19546313.421    19546312.7894   19546318.5624
        -0.000          -0.000
 -26882432.981 9 -20665573.21048  20411954.870    20411954.9484   20411960.2284
        -0.000          -0.000
 97  3 12  1 33 59.9970000  0  7 10  4  6 24  9  5 30               -0.002306510
 -25325472.159 9 -18740363.17248  20946048.992    20946048.0134   20946054.8424
        -0.000          -0.000
 -18883149.998 9 -13008706.82046  22957988.876    22957988.9354   22957994.9664
        -0.000          -0.000
 -14900103.102 9 -10942682.76446  22607686.934    22607686.6444   22607693.2744
        -0.000          -0.000
 -30919004.134 9 -22877091.37649  20323635.050    20323634.7704   20323641.1514
        -0.000          -0.000
 -16179827.159 9 -12311383.50646  23294059.506    23294059.2484   23294066.4054
        -0.000          -0.000
 -35118723.402 9 -27119035.57349  19542458.410    19542457.7884   19542463.5424
        -0.000          -0.000
 -26963488.881 9 -20728733.63648  20396530.415    20396530.5064   20396535.7864
        -0.000          -0.000
 97  3 12  1 34 29.9970000  0  7 10  4  6 24  9  5 30               -0.002320022
 -25405874.308 9 -18803014.18848  20930748.941    20930747.9854   20930754.8184
        -0.000          -0.000
 -18809402.043 9 -12951240.89746  22972022.730    22972022.7404   22972028.7354
        -0.000          -0.000
 -14988716.732 9 -11011732.27546  22590824.300    22590824.0584   22590830.6154
        -0.000          -0.000
 -30886942.530 9 -22852108.30849  20329736.205    20329735.9074   20329742.2694
        -0.000          -0.000
 -16111893.346 9 -12258448.09546  23306986.898    23306986.6594   23306993.8884
        -0.000          -0.000
 -35138477.227 9 -27134428.16849  19538699.364    19538698.7404   19538704.5084
        -0.000          -0.000
 -27044119.277 9 -20791562.50448  20381186.920    20381187.0084   20381192.3104
        -0.000          -0.000
 97  3 12  1 34 59.9970000  0  7 10  4  6 24  9  5 30               -0.002333528
 -25485830.198 9 -18865317.45748  20915533.824    20915532.8684   20915539.7144
        -0.000          -0.000
 -18735616.280 9 -12893745.49846  22986063.642    22986063.7194   22986069.6434
        -0.000          -0.000
 -15077291.605 9 -11080751.59347  22573969.111    22573968.7674   22573975.3714
        -0.000          -0.000
 -30854611.315 9 -22826915.15349  20335888.586    20335888.2884   20335894.6544
        -0.000          -0.000
 -16043944.651 9 -12205501.08346  23319917.138    23319916.7874   23319924.0534
        -0.000          -0.000
 -35157718.398 9 -27149421.28049  19535037.908    19535037.2954   19535043.0674
        -0.000          -0.000
 -27124307.155 9 -20854046.54848  20365927.711    20365927.7924   20365933.0814
        -0.000          -0.000
 97  3 12  1 35 29.9970000  0  7 10  4  6 24  9  5 30               -0.002347040
 -25565360.267 9 -18927288.91448  20900399.781    20900398.8054   20900405.6554
        -0.000          -0.000
 -18661821.784 9 -12836243.30346  23000106.220    23000106.3484   23000112.2574
        -0.000          -0.000
 -15165842.572 9 -11149752.29647  22557118.371    22557118.0124   22557124.5854
        -0.000          -0.000
 -30822019.378 9 -22801518.83549  20342090.595    20342090.3144   20342096.6704
        -0.000          -0.000
 -15975992.651 9 -12152551.47746  23332848.028    23332847.6654   23332854.9354
        -0.000          -0.000
 -35176468.885 9 -27164032.04749  19531469.822    19531469.1954   19531474.9504
        -0.000          -0.000
 -27204082.549 9 -20916209.17648  20350746.921    20350747.0114   20350752.3084
        -0.000          -0.000
 97  3 12  1 35 59.9970000  0  7 10  4  6 24  9  5 30               -0.002360563
 -25644455.383 9 -18988921.45948  20885348.445    20885347.4854   20885354.3744
        -0.000          -0.000
 -18588024.544 9 -12778738.94346  23014149.362    23014149.4964   23014155.4154
        -0.000          -0.000
 -15254382.613 9 -11218744.50447  22540269.745    22540269.3964   22540275.9354
        -0.000          -0.000
 -30789165.606 9 -22775918.49449  20348342.463    20348342.1864   20348348.5504
        -0.000          -0.000
 -15908044.448 9 -12099604.85246  23345778.166    23345777.8054   23345785.0124
        -0.000          -0.000
 -35194731.842 9 -27178262.93849  19527994.480    19527993.8614   19527999.6074
        -0.000          -0.000
 -27283443.088 9 -20978048.54548  20335645.093    20335645.1864   20335650.4834
        -0.000          -0.000
 97  3 12  1 36 29.9970000  0  7 10  4  6 24  9  5 30               -0.002374097
 -25723109.227 9 -19050210.15348  20870381.084    20870380.1374   20870387.0074
        -0.000          -0.000
 -18514222.384 9 -12721230.77446  23028193.438    23028193.5944   23028199.5354
        -0.000          -0.000
 -15342912.878 9 -11287729.06247  22523422.947    22523422.5894   22523429.1504
        -0.000          -0.000
 -30756034.501 9 -22750102.05249  20354647.083    20354646.8014   20354653.1604
        -0.000          -0.000
 -15840091.021 9 -12046654.15146  23358709.288    23358708.9224   23358716.1454
        -0.000          -0.000
 -35212487.350 9 -27192098.41849  19524615.746    19524615.1304   19524620.8794
        -0.000          -0.000
 -27362392.498 9 -21039567.55348  20320621.520    20320621.5964   20320626.8904
        -0.000          -0.000
 97  3 12  1 36 59.9970000  0  7 10  4  6 24  9  5 30               -0.002387642
 -25801302.995 9 -19111140.35348  20855501.331    20855500.3584   20855507.2244
        -0.000          -0.000
 -18440411.337 9 -12663715.66246  23042239.196    23042239.4094   23042245.3254
        -0.000          -0.000
 -15431441.366 9 -11356712.25047  22506576.472    22506576.1324   22506582.6824
        -0.000          -0.000
 -30722629.890 9 -22724072.48449  20361003.754    20361003.4814   20361009.8404
        -0.000          -0.000
 -15772133.389 9 -11993700.16446  23371641.317    23371640.9104   23371648.0124
        -0.000          -0.000
 -35229723.624 9 -27205529.29749  19521335.811    19521335.2014   19521340.9384
        -0.000          -0.000
 -27440945.304 9 -21100777.52048  20305673.421    20305673.4954   20305678.7914
        -0.000          -0.000
 97  3 12  1 37 29.9970000  0  7 10  4  6 24  9  5 30               -0.002401202
 -25879016.139 9 -19171696.03248  20840712.992    20840712.0554   20840718.8754
        -0.000          -0.000
 -18366583.277 9 -12606187.31146  23056288.300    23056288.4044   23056294.3934
        -0.000          -0.000
 -15519977.190 9 -11425701.16147  22489728.552    22489728.2854   22489734.8324
        -0.000          -0.000
 -30688968.598 9 -22697842.90549  20367409.266    20367408.9864   20367415.3554
        -0.000          -0.000
 -15704183.053 9 -11940751.87646  23384571.775    23384571.4784   23384578.5554
        -0.000          -0.000
 -35246417.086 9 -27218537.20349  19518159.174    19518158.5304   19518164.2934
        -0.000          -0.000
 -27519104.030 9 -21161680.41648  20290800.310    20290800.3814   20290805.6554
        -0.000          -0.000
 97  3 12  1 37 59.9970000  0  7 10  4  6 24  9  5 30               -0.002414784
 -25956256.701 9 -19231883.46048  20826014.634    20826013.6814   20826020.4684
        -0.000          -0.000
 -18292734.541 9 -12548642.84546  23070341.268    23070341.3554   23070347.2594
        -0.000          -0.000
 -15608526.989 9 -11494700.93847  22472877.975    22472877.7114   22472884.3154
        -0.000          -0.000
 -30655052.644 9 -22671414.88049  20373863.297    20373863.0384   20373869.3714
        -0.000          -0.000
 -15636254.099 9 -11887820.27146  23397498.157    23397497.8894   23397505.1344
        -0.000          -0.000
 -35262556.493 9 -27231113.37049  19515087.941    19515087.3164   19515093.0884
        -0.000          -0.000
 -27596861.995 9 -21222271.03048  20276003.466    20276003.5354   20276008.7864
        -0.000          -0.000
 97  3 12  1 38 29.9970000  0  7 10  4  6 24  9  5 30               -0.002428379
 -26033020.193 9 -19291699.15248  20811406.994    20811406.0434   20811412.8304
        -0.000          -0.000
 -18218859.049 9 -12491077.53246  23084399.319    23084399.4034   23084405.4074
        -0.000          -0.000
 -15697091.812 9 -11563712.44847  22456024.579    22456024.3884   22456030.9234
        -0.000          -0.000
 -30620884.979 9 -22644790.71649  20380365.242    20380364.9774   20380371.2994
        -0.000          -0.000
 -15568336.359 9 -11834897.37646  23410422.503    23410422.2024   23410429.4984
        -0.000          -0.000
 -35278149.295 9 -27243263.61149  19512120.732    19512120.1104   19512125.8924
        -0.000          -0.000
 -27674211.222 9 -21282543.14948  20261284.381    20261284.4554   20261289.7094
        -0.000          -0.000
 97  3 12  1 38 59.9970000  0  7 10  4  6 24  9  5 30               -0.002441986
 -26109305.699 9 -19351142.38548  20796890.290    20796889.3534   20796896.1334
        -0.000          -0.000
 -18144956.275 9 -12433490.94146  23098462.659    23098462.6374   23098468.6524
        -0.000          -0.000
 -15785664.662 9 -11632730.18847  22439169.702    22439169.4664   22439176.0774
        -0.000          -0.000
 -30586467.049 9 -22617971.54748  20386914.773    20386914.5034   20386920.8144
        -0.000          -0.000
 -15500439.514 9 -11781990.76446  23423342.840    23423342.4774   23423349.8444
        -0.000          -0.000
 -35293202.896 9 -27254993.69649  19509256.118    19509255.4934   19509261.2734
        -0.000          -0.000
 -27751120.375 9 -21342472.35548  20246649.064    20246649.1564   20246654.3974
        -0.000          -0.000
 97  3 12  1 39 29.9970000  0  7 10  4  6 24  9  5 30               -0.002455614
 -26185140.049 9 -19410234.06248  20782459.497    20782458.5634   20782465.3224
        -0.000          -0.000
 -18071040.769 9 -12375894.44946  23112528.284    23112528.3104   23112534.3154
        -0.000          -0.000
 -15874245.870 9 -11701754.45447  22422313.262    22422313.0164   22422319.6044
        -0.000          -0.000
 -30551791.655 9 -22590951.75448  20393513.285    20393513.0054   20393519.3234
        -0.000          -0.000
 -15432573.981 9 -11729108.55246  23436257.254    23436256.8774   23436264.1764
        -0.000          -0.000
 -35307726.933 9 -27266311.14249  19506492.286    19506491.6774   19506497.4574
        -0.000          -0.000
 -27827574.854 9 -21402047.26648  20232100.241    20232100.3284   20232105.5924
        -0.000          -0.000
 97  3 12  1 39 59.9970000  0  7 10  4  6 24  9  5 30               -0.002469249
 -26260514.899 9 -19468967.69048  20768116.088    20768115.1734   20768121.9064
        -0.000          -0.000
 -17997113.760 9 -12318288.98446  23126596.152    23126596.1514   23126602.1094
        -0.000          -0.000
 -15962827.686 9 -11770779.19047  22405456.665    22405456.4454   22405462.9414
        -0.000          -0.000
 -30516851.955 9 -22563726.01048  20400162.045    20400161.7724   20400168.1204
        -0.000          -0.000
 -15364722.308 9 -11676237.15646  23449168.979    23449168.6984   23449176.0154
        -0.000          -0.000
 -35321739.174 9 -27277229.78649  19503825.822    19503825.2034   19503831.0094
        -0.000          -0.000
 -27903577.201 9 -21461269.86548  20217637.464    20217637.5514   20217642.8094
        -0.000          -0.000
 97  3 12  1 40 29.9970000  0  7 10  4  6 24  9  5 30               -0.002482876
 -26335395.916 9 -19527316.51248  20753866.725    20753865.8084   20753872.5334
        -0.000          -0.000
 -17923165.606 9 -12260667.03746  23140668.022    23140667.9694   23140673.9604
        -0.000          -0.000
 -16051392.961 9 -11839791.06647  22388603.350    22388603.0734   22388609.4884
        -0.000          -0.000
 -30481643.082 9 -22536290.51648  20406862.060    20406861.7944   20406868.1374
        -0.000          -0.000
 -15296856.902 9 -11623355.06446  23462083.375    23462083.0484   23462090.3884
        -0.000          -0.000
 -35335225.002 9 -27287738.22949  19501259.572    19501258.9494   19501264.7554
        -0.000          -0.000
 -27979100.343 9 -21520119.05348  20203265.896    20203265.9804   20203271.2364
        -0.000          -0.000
 97  3 12  1 40 59.9970000  0  7 10  4  6 24  9  5 30               -0.002496521
 -26409816.008 9 -19585306.18148  20739705.007    20739704.1224   20739710.8214
        -0.000          -0.000
 -17849232.463 9 -12203056.80646  23154736.964    23154736.8794   23154743.0294
        -0.000          -0.000
 -16139949.883 9 -11908796.41047  22371751.523    22371751.1894   22371757.5334
        -0.000          -0.000
 -30446190.906 9 -22508665.44048  20413608.349    20413608.0934   20413614.4474
        -0.000          -0.000
 -15229024.901 9 -11570498.96946  23474991.460    23474991.1624   23474998.4584
        -0.000          -0.000
 -35348203.472 9 -27297851.32349  19498789.849    19498789.2394   19498795.0624
        -0.000          -0.000
 -28054172.858 9 -21578617.10448  20188980.053    20188980.1304   20188985.3904
        -0.000          -0.000
 97  3 12  1 41 29.9970000  0  7 10  4  6 24  9  5 30               -0.002510165
 -26483760.212 9 -19642925.03648  20725633.899    20725633.0034   20725639.7004
        -0.000          -0.000
 -17775291.995 9 -12145440.84846  23168807.307    23168807.3084   23168813.5514
        -0.000          -0.000
 -16228483.654 9 -11977783.72347  22354904.104    22354903.8134   22354910.0224
        -0.000          -0.000
 -30410491.451 9 -22480847.68148  20420401.717    20420401.4704   20420407.7924
        -0.000          -0.000
 -15161207.324 9 -11517654.15046  23487896.660    23487896.3874   23487903.7374
        -0.000          -0.000
 -35360658.004 9 -27307556.16249  19496419.815    19496419.2104   19496425.0484
        -0.000          -0.000
 -28128800.201 9 -21636768.27748  20174778.959    20174779.0414   20174784.2914
        -0.000          -0.000
 97  3 12  1 41 59.9970000  0  7 10  4  6 24  9  5 30               -0.002523799
 -26557209.262 9 -19700158.04748  20711657.009    20711656.0994   20711662.8054
        -0.000          -0.000
 -17701331.914 9 -12087809.62746  23182881.397    23182881.4754   23182887.6774
        -0.000          -0.000
 -16316982.546 9 -12046743.86247  22338063.247    22338062.9914   22338069.2074
        -0.000          -0.000
 -30374546.785 9 -22452838.83948  20427241.783    20427241.5154   20427247.8434
        -0.000          -0.000
 -15093406.622 9 -11464822.48946  23500798.761    23500798.4564   23500805.9524
        -0.000          -0.000
 -35372590.613 9 -27316854.31049  19494149.109    19494148.5124   19494154.3394
        -0.000          -0.000
 -28202985.778 9 -21694575.21648  20160661.911    20160662.0044   20160667.2264
        -0.000          -0.000
 97  3 12  1 42 29.9970000  0  7 10  4  6 24  9  5 30               -0.002537433
 -26630187.030 9 -19757023.82148  20697769.718    20697768.8534   20697775.5624
        -0.000          -0.000
 -17627357.734 9 -12030167.41246  23196958.152    23196958.2904   23196964.5094
        -0.000          -0.000
 -16405438.534 9 -12115670.56847  22321230.503    22321230.2754   22321236.5134
        -0.000          -0.000
 -30338360.946 9 -22424642.08248  20434127.714    20434127.4384   20434133.7644
        -0.000          -0.000
 -15025648.409 9 -11412023.91346  23513692.730    23513692.4894   23513699.9074
        -0.000          -0.000
 -35383999.382 9 -27325744.26849  19491978.112    19491977.5054   19491983.3494
        -0.000          -0.000
 -28276715.703 9 -21752027.10348  20146631.560    20146631.6474   20146636.8724
        -0.000          -0.000
 97  3 12  1 42 59.9970000  0  7 10  4  6 24  9  5 30               -0.002551066
 -26702705.990 9 -19813532.08048  20683969.808    20683968.9464   20683975.6604
        -0.000          -0.000
 -17553363.917 9 -11972509.87546  23211038.771    23211038.8724   23211045.0704
        -0.000          -0.000
 -16493844.726 9 -12184558.48047  22304407.352    22304407.0504   22304413.3844
        -0.000          -0.000
 -30301936.422 9 -22396259.33448  20441059.036    20441058.7504   20441065.0794
        -0.000          -0.000
 -14957946.413 9 -11359269.14746  23526576.118    23526575.8404   23526583.2474
        -0.000          -0.000
 -35394881.729 9 -27334224.03149  19489907.270    19489906.6584   19489912.4964
        -0.000          -0.000
 -28349997.324 9 -21809129.65748  20132686.541    20132686.6214   20132691.8504
        -0.000          -0.000
 97  3 12  1 43 29.9970000  0  7 10  4  6 24  9  5 30               -0.002564695
 -26774746.935 9 -19869667.86148  20670260.910    20670260.0174   20670266.7184
        -0.000          -0.000
 -17479348.899 9 -11914835.83046  23225123.499    23225123.5114   23225129.5814
        -0.000          -0.000
 -16582200.283 9 -12253406.92047  22287593.757    22287593.4904   22287599.8594
        -0.000          -0.000
 -30265279.342 9 -22367695.37248  20448034.633    20448034.3704   20448040.7134
        -0.000          -0.000
 -14890285.745 9 -11306546.57246  23539451.586    23539451.3174   23539458.6464
        -0.000          -0.000
 -35405219.149 9 -27342279.16749  19487940.130    19487939.5104   19487945.3454
        -0.000          -0.000
 -28422816.337 9 -21865871.73848  20118829.540    20118829.6044   20118834.8474
        -0.000          -0.000
 97  3 12  1 43 59.9970000  0  7 10  4  6 24  9  5 30               -0.002578340
 -26846319.078 9 -19925438.33048  20656641.156    20656640.2664   20656647.0014
        -0.000          -0.000
 -17405332.243 9 -11857160.51246  23239208.419    23239208.3714   23239214.4404
        -0.000          -0.000
 -16670513.878 9 -12322222.66947  22270788.196    22270787.9644   22270794.3334
        -0.000          -0.000
 -30228393.304 9 -22338952.99748  20455053.789    20455053.5214   20455059.8984
        -0.000          -0.000
 -14822691.615 9 -11253875.85546  23552314.363    23552314.0324   23552321.3184
        -0.000          -0.000
 -35415009.329 9 -27349907.87949  19486077.147    19486076.5304   19486082.3944
        -0.000          -0.000
 -28495159.245 9 -21922242.82849  20105063.098    20105063.1844   20105068.4364
        -0.000          -0.000
 97  3 12  1 44 29.9970000  0  7 10  4  6 24  9  5 30               -0.002592013
 -26917439.589 9 -19980856.88548  20643107.385    20643106.4954   20643113.1984
        -0.000          -0.000
 -17331331.587 9 -11799497.65146  23253290.220    23253290.1934   23253296.2744
        -0.000          -0.000
 -16758808.548 9 -12391023.68647  22253986.345    22253986.0264   22253992.3464
        -0.000          -0.000
 -30191292.421 9 -22310043.21148  20462113.846    20462113.5944   20462119.9484
        -0.000          -0.000
 -14755179.978 9 -11201269.41246  23565161.471    23565161.1494   23565168.3934
        -0.000          -0.000
 -35424259.874 9 -27357116.09449  19484316.796    19484316.1794   19484322.0514
        -0.000          -0.000
 -28567032.624 9 -21978248.04949  20091386.054    20091386.1434   20091391.3964
        -0.000          -0.000
 97  3 12  1 44 59.9970000  0  7 10  4  6 24  9  5 30               -0.002605719
 -26988094.847 9 -20035912.90348  20629662.157    20629661.2434   20629667.9174
        -0.000          -0.000
 -17257351.901 9 -11741851.14446  23267368.172    23267368.0574   23267374.1354
        -0.000          -0.000
 -16847102.120 9 -12459823.85247  22237184.543    22237184.2294   22237190.5734
        -0.000          -0.000
 -30153976.423 9 -22280965.80248  20469214.824    20469214.5784   20469220.9434
        -0.000          -0.000
 -14687754.961 9 -11148730.45246  23577992.023    23577991.8064   23577998.9474
        -0.000          -0.000
 -35432972.374 9 -27363905.05349  19482658.859    19482658.2564   19482664.1314
        -0.000          -0.000
 -28638448.192 9 -22033896.53649  20077796.093    20077796.1814   20077801.4374
        -0.000          -0.000
 97  3 12  1 45 29.9970000  0  7 10  4  6 24  9  5 30               -0.002619456
 -27058265.839 9 -20090591.56748  20616309.049    20616308.1074   20616314.7914
        -0.000          -0.000
 -17183391.402 9 -11684219.58046  23281442.367    23281442.3434   23281448.2924
        -0.000          -0.000
 -16935402.692 9 -12528629.44847  22220381.477    22220381.1504   22220387.5374
        -0.000          -0.000
 -30116413.363 9 -22251695.87748  20476362.855    20476362.6094   20476368.9744
        -0.000          -0.000
 -14620409.479 9 -11096253.49046  23590807.385    23590807.1944   23590814.4964
        -0.000          -0.000
 -35441146.749 9 -27370274.69849  19481103.341    19481102.7334   19481108.6164
        -0.000          -0.000
 -28709403.527 9 -22089186.40749  20064293.670    20064293.7794   20064299.0514
        -0.000          -0.000
 97  3 12  1 45 59.9970000  0  7 10  4  6 24  9  5 30               -0.002633208
 -27127931.143 9 -20144876.19248  20603052.162    20603051.2154   20603057.9204
        -0.000          -0.000
 -17109432.017 9 -11626588.89446  23295516.344    23295516.2394   23295522.2974
        -0.000          -0.000
 -17023704.485 9 -12597436.01047  22203578.096    22203577.8534   22203584.2354
        -0.000          -0.000
 -30078573.440 9 -22222210.21648  20483563.545    20483563.2844   20483569.6304
        -0.000          -0.000
 -14553134.878 9 -11043831.75245  23603609.269    23603608.9524   23603616.2764
        -0.000          -0.000
 -35448797.866 9 -27376236.61549  19479647.376    19479646.7714   19479652.6584
        -0.000          -0.000
 -28779889.701 9 -22144110.68949  20050880.574    20050880.6844   20050885.9904
        -0.000          -0.000
 97  3 12  1 46 29.9970000  0  7 10  4  6 24  9  5 30               -0.002646978
 -27197087.067 9 -20198763.89448  20589892.189    20589891.2354   20589897.9824
        -0.000          -0.000
 -17035494.003 9 -11568974.85246  23309586.266    23309586.2494   23309592.2814
        -0.000          -0.000
 -17112026.218 9 -12666258.11047  22186770.959    22186770.7184   22186777.0804
        -0.000          -0.000
 -30040469.486 9 -22192518.81648  20490814.504    20490814.2454   20490820.6114
        -0.000          -0.000
 -14485931.450 9 -10991465.48845  23616397.728    23616397.4194   23616404.8774
        -0.000          -0.000
 -35455956.745 9 -27381814.97049  19478285.105    19478284.5044   19478290.3834
        -0.000          -0.000
 -28849929.076 9 -22198686.82149  20037552.458    20037552.5914   20037557.9274
        -0.000          -0.000
 97  3 12  1 46 59.9970000  0  7 10  4  6 24  9  5 30               -0.002660763
 -27265721.056 9 -20252244.89148  20576831.509    20576830.5574   20576837.3094
        -0.000          -0.000
 -16961574.940 9 -11511375.58646  23323652.608    23323652.5524   23323658.7304
        -0.000          -0.000
 -17200360.716 9 -12735090.16247  22169961.490    22169961.2354   22169967.5434
        -0.000          -0.000
 -30002108.196 9 -22162626.90048  20498114.346    20498114.1214   20498120.4714
        -0.000          -0.000
 -14418790.829 9 -10939148.12945  23629174.179    23629173.8734   23629181.1524
        -0.000          -0.000
 -35462607.918 9 -27386997.70749  19477019.416    19477018.8014   19477024.6854
        -0.000          -0.000
 -28919506.142 9 -22252902.71049  20024312.381    20024312.5074   20024317.8394
        -0.000          -0.000
 97  3 12  1 47 29.9970000  0  7 10  4  6 24  9  5 30               -0.002674552
 -27333837.519 9 -20305322.62148  20563869.257    20563868.3404   20563875.1074
        -0.000          -0.000
 -16887671.650 9 -11453788.60646  23337715.882    23337715.7464   23337721.9634
        -0.000          -0.000
 -17288695.884 9 -12803922.73847  22153151.764    22153151.5624   22153157.8524
        -0.000          -0.000
 -29963511.491 9 -22132551.54248  20505459.115    20505458.8664   20505465.1874
        -0.000          -0.000
 -14351710.869 9 -10886878.09845  23641939.080    23641938.6964   23641946.1174
        -0.000          -0.000
 -35468764.056 9 -27391794.69749  19475847.910    19475847.3114   19475853.2004
        -0.000          -0.000
 -28988619.665 9 -22306757.39649  20011160.530    20011160.6624   20011165.9744
        -0.000          -0.000
 97  3 12  1 47 59.9970000  0  7 10  4  6 24  9  5 30               -0.002688337
 -27401447.409 9 -20358005.62248  20551003.507    20551002.5674   20551009.3264
        -0.000          -0.000
 -16813774.570 9 -11396206.43845  23351778.186    23351777.8804   23351783.9904
        -0.000          -0.000
 -17377024.850 9 -12872750.46547  22136343.312    22136343.1094   22136349.3674
        -0.000          -0.000
 -29924722.210 9 -22102326.12648  20512840.480    20512840.2064   20512846.5344
        -0.000          -0.000
 -14284687.805 8 -10834652.32945  23654693.156    23654692.7074   23654700.2104
        -0.000          -0.000
 -35474428.519 9 -27396208.56749  19474770.022    19474769.4084   19474775.3054
        -0.000          -0.000
 -29057263.372 9 -22360245.99249  19998098.051    19998098.1854   19998103.4754
        -0.000          -0.000
 97  3 12  1 48 29.9970000  0  7 10  4  6 24  9  5 30               -0.002702111
 -27468550.135 9 -20410293.43148  20538234.268    20538233.3374   20538240.0694
        -0.000          -0.000
 -16739872.434 8 -11338620.33845  23365841.266    23365840.9844   23365847.0264
        -0.000          -0.000
 -17465324.628 9 -12941555.46247  22119540.469    22119540.2214   22119546.5304
        -0.000          -0.000
 -29885746.017 9 -22071955.06248  20520257.390    20520257.1224   20520263.4334
        -0.000          -0.000
 -14217708.155 9 -10782460.44145  23667438.881    23667438.6534   23667446.0924
        -0.000          -0.000
 -35479557.005 9 -27400204.79549  19473794.092    19473793.4834   19473799.3974
        -0.000          -0.000
 -29125425.581 9 -22413359.38749  19985127.235    19985127.3544   19985132.6504
        -0.000          -0.000
 97  3 12  1 48 59.9970000  0  7 10  4  6 24  9  5 30               -0.002715875
 -27535157.906 9 -20462195.56848  20525559.256    20525558.3024   20525565.0204
        -0.000          -0.000
 -16665965.157 9 -11281030.24245  23379905.284    23379905.1384   23379911.0704
        -0.000          -0.000
 -17553593.465 9 -13010336.34647  22102743.484    22102743.1994   22102749.4984
        -0.000          -0.000
 -29846592.170 9 -22041445.56648  20527708.091    20527707.8344   20527714.1284
        -0.000          -0.000
 -14150781.065 9 -10730309.47445  23680174.630    23680174.2464   23680181.8814
        -0.000          -0.000
 -35484144.098 9 -27403779.16149  19472921.191    19472920.5884   19472926.4844
        -0.000          -0.000
 -29193127.350 9 -22466114.00349  19972243.990    19972244.0934   19972249.4254
        -0.000          -0.000
 97  3 12  1 49 29.9970000  0  7 10  4  6 24  9  5 30               -0.002729621
 -27601254.779 9 -20513699.60848  20512981.389    20512980.4794   20512987.1924
        -0.000          -0.000
 -16592049.954 9 -11223433.95645  23393970.740    23393970.7314   23393976.6594
        -0.000          -0.000
 -17641821.046 9 -13079085.08847  22085954.308    22085954.1124   22085960.3184
        -0.000          -0.000
 -29807244.876 9 -22010785.33448  20535195.633    20535195.3704   20535201.6574
        -0.000          -0.000
 -14083902.745 8 -10678196.49445  23692901.276    23692900.7274   23692908.3614
        -0.000          -0.000
 -35488198.407 9 -27406938.36549  19472149.694    19472149.0724   19472154.9804
        -0.000          -0.000
 -29260375.475 9 -22518515.13649  19959447.085    19959447.2124   19959452.5274
        -0.000          -0.000
 97  3 12  1 49 59.9970000  0  7 10  4  6 24  9  5 30               -0.002743358
 -27666813.215 9 -20564784.08448  20500506.025    20500505.1164   20500511.8214
        -0.000          -0.000
 -16518136.499 9 -11165839.03545  23408036.012    23408035.9554   23408041.9374
        -0.000          -0.000
 -17730005.732 9 -13147800.41547  22069173.339    22069173.1494   22069179.3184
        -0.000          -0.000
 -29767672.563 9 -21979949.76448  20542725.998    20542725.7274   20542732.0494
        -0.000          -0.000
 -14017065.508 9 -10626115.57245  23705620.001    23705619.5114   23705627.1014
        -0.000          -0.000
 -35491691.722 9 -27409660.43949  19471484.939    19471484.3124   19471490.2344
        -0.000          -0.000
 -29327147.962 9 -22570545.63549  19946740.709    19946740.8194   19946746.1444
        -0.000          -0.000
 97  3 12  1 50 29.9970000  0  7 10  4  6 24  9  5 30               -0.002757104
 -27731834.896 9 -20615450.31048  20488132.813    20488131.8724   20488138.5914
        -0.000          -0.000
 -16444259.535 9 -11108272.55845  23422094.238    23422094.1614   23422100.3054
        -0.000          -0.000
 -17818154.422 9 -13216487.68447  22052399.217    22052398.9624   22052405.1074
        -0.000          -0.000
 -29727862.259 9 -21948928.74348  20550301.613    20550301.3424   20550307.6884
        -0.000          -0.000
 -13950291.226 9 -10574083.71145  23718326.629    23718326.3444   23718333.7334
        -0.000          -0.000
 -35494633.089 9 -27411952.42249  19470925.236    19470924.6294   19470930.5254
        -0.000          -0.000
 -29393448.872 9 -22622208.67249  19934124.032    19934124.1534   19934129.4654
        -0.000          -0.000
 97  3 12  1 50 59.9970000  0  7 10  4  6 24  9  5 30               -0.002770864
 -27796309.470 9 -20665690.21748  20475863.691    20475862.7554   20475869.4684
        -0.000          -0.000
 -16370422.719 8 -11050737.36245  23436144.967    23436144.8454   23436150.9754
        -0.000          -0.000
 -17906276.009 9 -13285153.83647  22035630.162    22035629.9814   22035636.0804
        -0.000          -0.000
 -29687816.062 9 -21917723.90648  20557922.152    20557921.8874   20557928.2464
        -0.000          -0.000
 -13883597.305 8 -10522114.43145  23731018.298    23731017.8784   23731025.2324
        -0.000          -0.000
 -35497047.621 9 -27413833.87449  19470465.783    19470465.1674   19470471.0474
        -0.000          -0.000
 -29459257.676 9 -22673488.24949  19921601.044    19921601.1724   19921606.4514
        -0.000          -0.000
 97  3 12  1 51 29.9970000  0  7 10  4  6 24  9  5 30               -0.002784639
 -27860229.510 9 -20715498.01348  20463700.056    20463699.1564   20463705.8574
        -0.000          -0.000
 -16296623.729 9 -10993231.65445  23450188.339    23450188.2234   23450194.2664
        -0.000          -0.000
 -17994360.847 9 -13353791.36247  22018868.153    22018867.9654   22018874.0534
        -0.000          -0.000
 -29647529.069 9 -21886331.44448  20565588.516    20565588.2694   20565594.6134
        -0.000          -0.000
 -13816979.323 9 -10470204.33745  23743695.232    23743694.9324   23743702.2564
        -0.000          -0.000
 -35498925.434 9 -27415297.11349  19470108.433    19470107.8354   19470113.7244
        -0.000          -0.000
 -29524529.465 9 -22724349.37149  19909180.237    19909180.3714   19909185.6234
        -0.000          -0.000
 97  3 12  1 51 59.9970000  0  7 10  4  6 24  9  5 30               -0.002798448
 -27923625.782 9 -20764897.68548  20451636.120    20451635.2084   20451641.9004
        -0.000          -0.000
 -16222882.241 8 -10935770.73945  23464220.742    23464220.8284   23464226.6534
        -0.000          -0.000
 -18082431.990 9 -13422418.20447  22002108.784    22002108.5574   22002114.6994
        -0.000          -0.000
 -29607028.462 9 -21854772.52848  20573295.534    20573295.2744   20573301.5984
        -0.000          -0.000
 -13750468.776 9 -10418377.93845  23756351.792    23756351.3214   23756358.8164
        -0.000          -0.000
 -35500272.907 9 -27416347.11549  19469852.030    19469851.4324   19469857.3054
        -0.000          -0.000
 -29589258.938 9 -22774787.91349  19896862.642    19896862.7594   19896867.9914
        -0.000          -0.000
 97  3 12  1 52 29.9970000  0  7 10  4  6 24  9  5 30               -0.002812289
 -27986514.850 9 -20813902.13048  20439668.714    20439667.8124   20439674.4934
        -0.000          -0.000
 -16149191.575 9 -10878349.42845  23478243.516    23478243.6604   23478249.5474
        -0.000          -0.000
 -18170495.425 9 -13491039.04347  21985350.896    21985350.5994   21985356.7984
        -0.000          -0.000
 -29566342.116 9 -21823068.87948  20581037.860    20581037.6144   20581043.9534
        -0.000          -0.000
 -13684082.141 9 -10366648.12445  23768984.872    23768984.4054   23768991.8004
        -0.000          -0.000
 -35501101.020 9 -27416992.40249  19469694.460    19469693.8514   19469699.7334
        -0.000          -0.000
 -29653455.014 9 -22824810.82649  19884646.566    19884646.6964   19884651.9004
        -0.000          -0.000
 97  3 12  1 52 59.9970000  0  7 10  4  6 24  9  5 30               -0.002826151
 -28048896.253 9 -20862510.99148  20427797.901    20427796.9814   20427803.6864
        -0.000          -0.000
 -16075535.211 9 -10820954.85345  23492259.964    23492260.0464   23492265.8744
        -0.000          -0.000
 -18258538.457 9 -13559643.97947  21968596.837    21968596.5774   21968602.7324
        -0.000          -0.000
 -29525472.810 9 -21791222.66448  20588815.032    20588814.7904   20588821.1484
        -0.000          -0.000
 -13617808.133 8 -10315006.06445  23781596.373    23781595.7934   23781603.2894
        -0.000          -0.000
 -35501397.079 9 -27417223.09749  19469638.129    19469637.5104   19469643.3894
        -0.000          -0.000
 -29717118.929 9 -22874419.06349  19872531.710    19872531.8424   19872537.0644
        -0.000          -0.000
 97  3 12  1 53 29.9970000  0  7 10  4  6 24  9  5 30               -0.002840030
 -28110781.460 9 -20910733.20948  20416021.530    20416020.6134   20416027.3244
        -0.000          -0.000
 -16001922.134 9 -10763594.00345  23506268.168    23506268.2084   23506274.1304
        -0.000          -0.000
 -18346560.889 9 -13628232.86247  21951846.691    21951846.4334   21951852.5624
        -0.000          -0.000
 -29484412.127 9 -21759227.32448  20596628.664    20596628.4014   20596634.7684
        -0.000          -0.000
 -13551634.489 9 -10263442.20245  23794188.953    23794188.3764   23794195.8274
        -0.000          -0.000
 -35501145.226 9 -27417026.85049  19469686.075    19469685.4674   19469691.3424
        -0.000          -0.000
 -29780273.896 9 -22923630.71849  19860513.699    19860513.8324   19860519.0604
        -0.000          -0.000
 97  3 12  1 53 59.9970000  0  7 10  4  6 24  9  5 30               -0.002853919
 -28172155.095 9 -20958556.79548  20404342.477    20404341.5784   20404348.2994
        -0.000          -0.000
 -15928345.819 9 -10706261.80045  23520269.364    23520269.3464   23520275.2874
        -0.000          -0.000
 -18434553.078 9 -13696798.17747  21935102.305    21935102.0554   21935108.1804
        -0.000          -0.000
 -29443157.760 9 -21727081.05848  20604479.070    20604478.8264   20604485.1744
        -0.000          -0.000
 -13485554.288 9 -10211951.12745  23806763.538    23806763.1114   23806770.4774
        -0.000          -0.000
 -35500344.852 9 -27416403.19149  19469838.407    19469837.7924   19469843.6604
        -0.000          -0.000
 -29842935.396 9 -22972457.85449  19848589.617    19848589.7274   19848594.9574
        -0.000          -0.000
 97  3 12  1 54 29.9970000  0  7 10  4  6 24  9  5 30               -0.002867803
 -28233020.653 9 -21005984.47348  20392760.144    20392759.2274   20392765.9504
        -0.000          -0.000
 -15854809.267 9 -10648960.59446  23534263.006    23534262.9094   23534268.8254
        -0.000          -0.000
 -18522509.560 9 -13765335.67347  21918364.700    21918364.4424   21918370.6034
        -0.000          -0.000
 -29401712.369 9 -21694785.94048  20612365.934    20612365.6764   20612371.9944
        -0.000          -0.000
 -13419553.468 8 -10160521.95245  23819323.189    23819322.6664   23819330.0824
        -0.000          -0.000
 -35499019.299 9 -27415370.30649  19470090.651    19470090.0374   19470095.9004
        -0.000          -0.000
 -29905138.808 9 -23020928.03749  19836752.675    19836752.7924   19836758.0334
        -0.000          -0.000
 97  3 12  1 54 59.9970000  0  7 10  4  6 24  9  5 30               -0.002881687
 -28293388.775 9 -21053024.53648  20381272.439    20381271.5194   20381278.2134
        -0.000          -0.000
 -15781320.155 9 -10591696.34046  23548247.506    23548247.4574   23548253.3954
        -0.000          -0.000
 -18610445.731 9 -13833857.33047  21901630.940    21901630.7164   21901636.8654
        -0.000          -0.000
 -29360070.940 9 -21662338.07148  20620290.013    20620289.7514   20620296.0694
        -0.000          -0.000
 -13353636.918 8 -10109158.40245  23831866.693    23831866.3014   23831873.4974
        -0.000          -0.000
 -35497175.127 9 -27413933.30849  19470441.567    19470440.9644   19470446.8084
        -0.000          -0.000
 -29966893.166 9 -23069048.30849  19825001.175    19825001.2874   19825006.5674
        -0.000          -0.000
 97  3 12  1 55 29.9970000  0  7 10  4  6 24  9  5 30               -0.002895576
 -28353244.946 9 -21099665.67848  20369882.197    20369881.2654   20369887.9424
        -0.000          -0.000
 -15707870.865 9 -10534463.12546  23562224.471    23562224.3924   23562230.2704
        -0.000          -0.000
 -18698376.960 9 -13902375.14647  21884898.180    21884897.9604   21884904.1234
        -0.000          -0.000
 -29318239.241 9 -21629741.93848  20628250.284    20628250.0404   20628256.3624
        -0.000          -0.000
 -13287819.812 8 -10057872.34945  23844391.258    23844390.7424   23844398.1624
        -0.000          -0.000
 -35494814.764 9 -27412094.08549  19470890.730    19470890.1234   19470895.9944
        -0.000          -0.000
 -30028183.017 9 -23116806.63049  19813338.078    19813338.2014   19813343.4994
        -0.000          -0.000
 97  3 12  1 55 59.9970000  0  7 10  4  6 24  9  5 30               -0.002909467
 -28412574.986 9 -21145896.85048  20358592.034    20358591.1114   20358597.7614
        -0.000          -0.000
 -15634440.281 9 -10477244.48146  23576197.809    23576197.8284   23576203.5764
        -0.000          -0.000
 -18786294.455 9 -13970882.25147  21868168.056    21868167.7834   21868173.9404
        -0.000          -0.000
 -29276227.080 9 -21597005.19148  20636244.923    20636244.6654   20636250.9984
        -0.000          -0.000
 -13222119.894 8 -10006677.64745  23856893.508    23856892.9964   23856900.5324
        -0.000          -0.000
 -35491935.925 9 -27409850.85649  19471438.567    19471437.9544   19471443.8454
        -0.000          -0.000
 -30088999.580 9 -23164196.15649  19801765.084    19801765.2234   19801770.4954
        -0.000          -0.000
 97  3 12  1 56 29.9970000  0  7 10  4  6 24  9  5 30               -0.002923361
 -28471366.322 9 -21191708.25248  20347404.371    20347403.4464   20347410.1154
        -0.000          -0.000
 -15561011.508 9 -10420027.23746  23590170.803    23590170.8054   23590176.6234
        -0.000          -0.000
 -18874192.538 9 -14039374.22747  21851441.623    21851441.3714   21851447.4854
        -0.000          -0.000
 -29234022.312 9 -21564118.35648  20644276.205    20644275.9554   20644282.2924
        -0.000          -0.000
 -13156543.636 8  -9955579.28845  23869372.260    23869371.6784   23869379.1884
        -0.000          -0.000
 -35488519.175 9 -27407188.46749  19472088.715    19472088.1344   19472094.0174
        -0.000          -0.000
 -30149316.505 9 -23211196.35449  19790287.152    19790287.2894   19790292.5554
        -0.000          -0.000
 97  3 12  1 56 59.9970000  0  7 10  4  6 24  9  5 30               -0.002937277
 -28529612.407 9 -21237094.78048  20336320.479    20336319.5794   20336326.2314
        -0.000          -0.000
 -15487596.239 9 -10362820.52746  23604141.279    23604141.3234   23604147.0264
        -0.000          -0.000
 -18962084.409 9 -14107861.37347  21834716.361    21834716.0814   21834722.2034
        -0.000          -0.000
 -29191633.071 9 -21531087.77148  20652342.549    20652342.3214   20652348.6654
        -0.000          -0.000
 -13091119.941 8  -9904599.81545  23881821.929    23881821.3394   23881828.9234
        -0.000          -0.000
 -35484544.053 9 -27404090.97949  19472845.175    19472844.5804   19472850.4754
        -0.000          -0.000
 -30209109.574 9 -23257788.35249  19778908.944    19778909.0564   19778914.3164
        -0.000          -0.000
 97  3 12  1 57 29.9970000  0  7 10  4  6 24  9  5 30               -0.002951216
 -28587301.812 9 -21282047.53348  20325342.539    20325341.6094   20325348.2574
        -0.000          -0.000
 -15414206.993 9 -10305634.08046  23618106.682    23618106.7954   23618112.4844
        -0.000          -0.000
 -19049948.369 9 -14176326.77047  21817996.350    21817996.1554   21818002.2394
        -0.000          -0.000
 -29149063.536 9 -21497916.70348  20660443.287    20660443.0134   20660449.3934
        -0.000          -0.000
 -13025847.845 8  -9853738.47145  23894242.741    23894242.2414   23894249.7154
        -0.000          -0.000
 -35480019.042 9 -27400565.00649  19473706.267    19473705.6844   19473711.5794
        -0.000          -0.000
 -30268374.226 9 -23303968.59849  19767631.255    19767631.3744   19767636.6174
        -0.000          -0.000
 97  3 12  1 57 59.9970000  0  7 10  4  6 24  9  5 30               -0.002965168
 -28644432.548 9 -21326564.96148  20314470.907    20314469.9854   20314476.6264
        -0.000          -0.000
 -15340855.262 9 -10248476.87746  23632065.099    23632065.1724   23632070.9084
        -0.000          -0.000
 -19137759.185 9 -14244750.74047  21801286.513    21801286.2844   21801292.3984
        -0.000          -0.000
 -29106301.182 9 -21464595.38748  20668580.670    20668580.4204   20668586.8004
        -0.000          -0.000
 -12960713.057 9  -9802984.08845  23906637.459    23906637.0194   23906644.4374
        -0.000          -0.000
 -35474943.280 9 -27396609.86949  19474672.148    19474671.5464   19474677.4664
        -0.000          -0.000
 -30327099.859 9 -23349728.82649  19756456.144    19756456.2404   19756461.4694
        -0.000          -0.000
 97  3 12  1 58 29.9970000  0  7 10  4  6 24  9  5 30               -0.002979130
 -28700995.727 9 -21370640.13748  20303707.244    20303706.3374   20303712.9734
        -0.000          -0.000
 -15267549.865 9 -10191355.76645  23646014.650    23646014.7044   23646020.3464
        -0.000          -0.000
 -19225518.613 9 -14313134.66547  21784586.480    21784586.1954   21784592.3014
        -0.000          -0.000
 -29063331.680 9 -21431112.64948  20676757.497    20676757.2494   20676763.6294
        -0.000          -0.000
 -12895689.728 8  -9752316.56945  23919011.043    23919010.4844   23919018.1524
        -0.000          -0.000
 -35469321.495 9 -27392229.26049  19475741.956    19475741.3454   19475747.2834
        -0.000          -0.000
 -30385254.768 9 -23395044.33949  19745389.614    19745389.7214   19745394.9414
        -0.000          -0.000
 97  3 12  1 58 59.9970000  0  7 10  4  6 24  9  5 30               -0.002993101
 -28757001.600 9 -21414281.04748  20293049.665    20293048.7654   20293055.3934
        -0.000          -0.000
 -15194308.077 9 -10134284.23045  23659952.066    23659952.0674   23659957.7964
        -0.000          -0.000
 -19313238.297 9 -14381487.63647  21767893.920    21767893.6714   21767899.7854
        -0.000          -0.000
 -29020161.231 9 -21397473.33448  20684972.549    20684972.3024   20684978.6684
        -0.000          -0.000
 -12830774.797 8  -9701733.47945  23931363.951    23931363.4524   23931370.8044
        -0.000          -0.000
 -35463175.538 9 -27387440.21449  19476911.482    19476910.8954   19476916.8284
        -0.000          -0.000
 -30442858.936 9 -23439930.70449  19734427.877    19734428.0004   19734433.2244
        -0.000          -0.000
 97  3 12  1 59 29.9970000  0  7 10  4  6 24  9  5 30               -0.003007078
 -28812460.747 9 -21457495.93548  20282496.114    20282495.2014   20282501.8354
        -0.000          -0.000
 -15121142.276 9 -10077271.90645  23673875.007    23673875.0074   23673880.9054
        -0.000          -0.000
 -19400914.826 9 -14449806.97547  21751209.569    21751209.3014   21751215.4274
        -0.000          -0.000
 -28976809.053 9 -21363692.41848  20693222.230    20693221.9804   20693228.3294
        -0.000          -0.000
 -12765976.250 8  -9651241.13445  23943694.584    23943694.0964   23943701.7174
        -0.000          -0.000
 -35456545.410 9 -27382273.89449  19478173.176    19478172.5924   19478178.5314
        -0.000          -0.000
 -30499935.632 9 -23484406.05249  19723566.558    19723566.6694   19723571.8954
        -0.000          -0.000
 97  3 12  1 59 59.9960000  0  6 10  4  6 24  5 30                  -0.003021086
 -28867362.598 9 -21500276.57448  20272048.609    20272047.7134   20272054.3084
        -0.000          -0.000
 -15048030.567 8 -10020301.73045  23687787.581    23687787.5064   23687793.5144
        -0.000          -0.000
 -19488555.588 9 -14518098.45147  21734531.996    21734531.7474   21734537.8684
        -0.000          -0.000
 -28933276.666 9 -21329771.08248  20701506.145    20701505.8864   20701512.2334
        -0.000          -0.000
 -35449408.514 9 -27376712.69449  19479531.290    19479530.6914   19479536.6374
        -0.000          -0.000
 -30556480.328 9 -23528466.85649  19712806.450    19712806.5684   19712811.7974
        -0.000          -0.000
 97  3 12  2  0 29.9960000  0  6 10  4  6 24  5 30                  -0.003035106
 -28921713.533 9 -21542627.91948  20261705.943    20261705.0344   20261711.6274
        -0.000          -0.000
 -14974965.631 8  -9963368.00845  23701691.333    23701691.1124   23701697.1854
        -0.000          -0.000
 -19576181.514 9 -14586378.36447  21717857.393    21717857.1004   21717863.1854
        -0.000          -0.000
 -28889572.242 9 -21295715.68148  20709822.767    20709822.5284   20709828.8994
        -0.000          -0.000
 -35441766.735 9 -27370758.07349  19480985.466    19480984.8554   19480990.8034
        -0.000          -0.000
 -30612525.805 9 -23572138.65349  19702141.356    19702141.4814   19702146.7014
        -0.000          -0.000
 97  3 12  2  0 59.9960000  0  6 10  4  6 24  5 30                  -0.003049112
 -28975512.646 9 -21584549.27948  20251468.325    20251467.4114   20251473.9874
        -0.000          -0.000
 -14901949.409 8  -9906472.18945  23715585.841    23715585.5534   23715591.7164
        -0.000          -0.000
 -19663777.914 9 -14654635.25947  21701188.247    21701188.0204   21701194.1334
        -0.000          -0.000
 -28845709.286 9 -21261536.74748  20718169.603    20718169.3704   20718175.7424
        -0.000          -0.000
 -35433616.487 9 -27364407.24249  19482536.424    19482535.8214   19482541.7544
        -0.000          -0.000
 -30668093.278 9 -23615437.97749  19691567.181    19691567.3224   19691572.5434
        -0.000          -0.000
 97  3 12  2  1 29.9960000  0  6 10  4  6 24  5 30                  -0.003063094
 -29028758.104 9 -21626039.21548  20241336.033    20241335.1054   20241341.6664
        -0.000          -0.000
 -14828976.354 8  -9849610.06545  23729471.928    23729471.7494   23729477.6284
        -0.000          -0.000
 -19751346.104 9 -14722870.19047  21684524.627    21684524.3474   21684530.4644
        -0.000          -0.000
 -28801697.056 9 -21227241.50248  20726544.847    20726544.6024   20726550.9674
        -0.000          -0.000
 -35424947.303 9 -27357652.03949  19484186.135    19484185.5394   19484191.4614
        -0.000          -0.000
 -30723171.288 9 -23658355.90249  19681086.193    19681086.3274   19681091.5514
        -0.000          -0.000
 97  3 12  2  1 59.9960000  0  6 10  4  6 24  5 30                  -0.003077077
 -29081465.341 9 -21667109.76548  20231306.161    20231305.2394   20231311.7894
        -0.000          -0.000
 -14756052.623 8  -9792786.35745  23743348.647    23743348.4924   23743354.6474
        -0.000          -0.000
 -19838905.792 9 -14791098.50447  21667862.492    21667862.2114   21667868.3224
        -0.000          -0.000
 -28757530.925 9 -21192826.33048  20734949.385    20734949.1444   20734955.4994
        -0.000          -0.000
 -35415740.279 9 -27350477.74249  19485938.181    19485937.5764   19485943.4934
        -0.000          -0.000
 -30777753.304 9 -23700887.34049  19670699.558    19670699.6784   19670704.9224
        -0.000          -0.000
 97  3 12  2  2 29.9960000  0  6 10  4  6 24  5 30                  -0.003091072
 -29133623.826 9 -21707752.71248  20221380.745    20221379.8104   20221386.3714
        -0.000          -0.000
 -14683186.715 8  -9736007.73845  23757214.453    23757214.7324   23757220.6084
        -0.000          -0.000
 -19926433.333 9 -14859301.75647  21651206.536    21651206.2624   21651212.3574
        -0.000          -0.000
 -28713193.554 9 -21158277.72548  20743386.492    20743386.2434   20743392.6264
        -0.000          -0.000
 -35405993.350 9 -27342882.74049  19487792.938    19487792.3424   19487798.2754
        -0.000          -0.000
 -30831818.698 9 -23743016.21649  19660411.298    19660411.4004   19660416.6264
        -0.000          -0.000
 97  3 12  2  2 59.9960000  0  6 10  4  6 24  5 30                  -0.003105081
 -29185238.073 9 -21747971.58048  20211558.853    20211557.9404   20211564.4594
        -0.000          -0.000
 -14610383.980 8  -9679278.31845  23771068.406    23771068.8924   23771074.4254
        -0.000          -0.000
 -20013928.192 9 -14927479.54147  21634556.757    21634556.5184   21634562.6164
        -0.000          -0.000
 -28668692.564 9 -21123601.62948  20751854.759    20751854.5104   20751860.9054
        -0.000          -0.000
 -35395698.084 9 -27334860.47249  19489752.079    19489751.4764   19489757.4424
        -0.000          -0.000
 -30885339.188 9 -23784720.49049  19650226.686    19650226.7814   19650232.0114
        -0.000          -0.000
 97  3 12  2  3 29.9960000  0  6 10  4  6 24  5 30                  -0.003119130
 -29236314.953 9 -21787771.71648  20201839.230    20201838.2994   20201844.8064
        -0.000          -0.000
 -14537659.083 8  -9622609.56045  23784907.558    23784907.9114   23784913.6584
        -0.000          -0.000
 -20101396.997 9 -14995637.02147  21617911.931    21617911.7314   21617917.8354
        -0.000          -0.000
 -28624025.274 9 -21088795.94648  20760354.719    20760354.4564   20760360.8184
        -0.000          -0.000
 -35384852.745 9 -27326409.56949  19491815.879    19491815.2674   19491821.2504
        -0.000          -0.000
 -30938301.495 9 -23825989.81649  19640148.305    19640148.4084   19640153.6244
        -0.000          -0.000
 97  3 12  2  3 59.9960000  0  6 10  4  6 24  5 30                  -0.003133208
 -29286849.795 9 -21827149.48548  20192222.718    20192221.7964   20192228.3134
        -0.000          -0.000
 -14465009.352 9  -9565999.34645  23798732.393    23798732.7804   23798738.5494
        -0.000          -0.000
 -20188825.924 9 -15063763.43547  21601274.807    21601274.5494   21601280.6184
        -0.000          -0.000
 -28579190.117 9 -21053859.45248  20768886.526    20768886.2994   20768892.6364
        -0.000          -0.000
 -35373462.377 9 -27317533.96849  19493983.365    19493982.7774   19493988.7564
        -0.000          -0.000
 -30990701.838 9 -23866821.24949  19630176.831    19630176.9214   19630182.1354
        -0.000          -0.000
 97  3 12  2  4 29.9960000  0  6 10  4  6 24  5 30                  -0.003147295
 -29336834.067 9 -21866098.24048  20182710.994    20182710.0514   20182716.5704
        -0.000          -0.000
 -14392427.695 9  -9509442.19046  23812544.362    23812544.6484   23812550.4934
        -0.000          -0.000
 -20276214.885 9 -15131858.70347  21584645.294    21584644.9714   21584651.0564
        -0.000          -0.000
 -28534205.770 9 -21018806.70748  20777446.768    20777446.5334   20777452.8614
        -0.000          -0.000
 -35361549.952 9 -27308251.57449  19496250.235    19496249.6374   19496255.6224
        -0.000          -0.000
 -31042547.396 9 -23907220.38549  19620310.928    19620311.0414   19620316.2344
        -0.000          -0.000
 97  3 12  2  4 59.9960000  0  6 10  4  6 24  5 30                  -0.003161375
 -29386250.088 9 -21904604.19848  20173307.418    20173306.4714   20173312.9954
        -0.000          -0.000
 -14319880.065 9  -9452911.53846  23826349.836    23826350.1314   23826355.8074
        -0.000          -0.000
 -20363551.946 9 -15199913.52747  21568025.543    21568025.2574   21568031.3104
        -0.000          -0.000
 -28489053.968 9 -20983623.48448  20786038.878    20786038.6354   20786044.9384
        -0.000          -0.000
 -35349109.012 9 -27298557.35249  19498617.667    19498617.0784   19498623.0644
        -0.000          -0.000
 -31093822.547 9 -23947175.04049  19610553.545    19610553.6564   19610558.8704
        -0.000          -0.000
 97  3 12  2  5 29.9960000  0  6 10  4  6 24  5 30                  -0.003175446
 -29435082.297 9 -21942655.24448  20164014.913    20164013.9844   20164020.4904
        -0.000          -0.000
 -14247349.747 9  -9396394.38846  23840151.984    23840152.1964   23840157.9094
        -0.000          -0.000
 -20450835.332 9 -15267926.52347  21551415.987    21551415.7454   21551421.7984
        -0.000          -0.000
 -28443723.495 9 -20948301.02748  20794665.015    20794664.7834   20794671.0904
        -0.000          -0.000
 -35336152.289 9 -27288461.22049  19501083.293    19501082.7014   19501088.6744
        -0.000          -0.000
 -31144535.113 9 -23986691.32349  19600903.256    19600903.3974   19600908.6154
        -0.000          -0.000
 97  3 12  2  5 59.9960000  0  6 10  4  6 24  5 30                  -0.003189485
 -29483325.664 9 -21980247.45348  20154834.486    20154833.5394   20154840.0564
        -0.000          -0.000
 -14174820.569 9  -9339878.12046  23853953.937    23853954.1014   23853959.8484
        -0.000          -0.000
 -20538071.735 9 -15335902.92247  21534815.406    21534815.1974   21534821.2424
        -0.000          -0.000
 -28398226.510 9 -20912848.82848  20803322.781    20803322.5294   20803328.8404
        -0.000          -0.000
 -35322690.815 9 -27277971.77749  19503644.969    19503644.3484   19503650.3184
        -0.000          -0.000
 -31194697.858 9 -24025779.17249  19591357.615    19591357.7654   19591362.9794
        -0.000          -0.000
 97  3 12  2  6 29.9960000  0  5 10  6 24  5 30                     -0.003203236
 -29530995.207 9 -22017392.52948  20145763.248    20145762.2994   20145768.7784
        -0.000          -0.000
 -20625283.777 9 -15403860.32747  21518219.496    21518219.3074   21518225.3724
        -0.000          -0.000
 -28352581.970 9 -20877281.65248  20812008.637    20812008.3764   20812014.6874
        -0.000          -0.000
 -35308739.326 9 -27267100.50849  19506299.844    19506299.2504   19506305.2094
        -0.000          -0.000
 -31244336.799 9 -24064458.86349  19581911.610    19581911.7754   19581916.9874
        -0.000          -0.000
 97  3 12  2  6 59.9960000  0  5 10  6 24  5 30                     -0.003217319
 -29578089.073 9 -22054089.02448  20136801.542    20136800.6334   20136807.0964
        -0.000          -0.000
 -20712468.918 9 -15471796.78147  21501628.734    21501628.5124   21501634.5934
        -0.000          -0.000
 -28306787.438 9 -20841597.59948  20820723.051    20820722.7844   20820729.1084
        -0.000          -0.000
 -35294284.807 9 -27255837.26449  19509050.460    19509049.8464   19509055.8104
        -0.000          -0.000
 -31293442.907 9 -24102723.36649  19572567.052    19572567.1844   19572572.3914
        -0.000          -0.000
 97  3 12  2  7 29.9960000  0  6 10  6 24 17  5 30                  -0.003231104
 -29624602.753 9 -22090333.42748  20127950.248    20127949.3514   20127955.8324
        -0.000          -0.000
 -20799623.005 9 -15539709.02747  21485043.822    21485043.5844   21485049.7384
        -0.000          -0.000
 -28260857.267 9 -20805807.85048  20829463.274    20829462.9734   20829469.3044
        -0.000          -0.000
  -3938079.54618  -3008678.70055  23979895.580    23979894.8245   23979903.2485
        -0.000          -0.000
 -35279316.881 9 -27244173.95349  19511898.781    19511898.1744   19511904.1334
        -0.000          -0.000
 -31342016.420 9 -24140572.86049  19563323.831    19563323.9734   19563329.1714
        -0.000          -0.000
 97  3 12  2  7 59.9960000  0  6 10  6 24 17  5 30                  -0.003245165
 -29670553.514 9 -22126139.19148  20119206.068    20119205.1844   20119211.6374
        -0.000          -0.000
 -20886760.047 9 -15607607.99047  21468462.191    21468461.9634   21468468.0824
        -0.000          -0.000
 -28214815.207 9 -20769930.91148  20838224.790    20838224.4984   20838230.7874
        -0.000          -0.000
  -4052843.690 8  -3098105.24345  23958056.684    23958055.9624   23958064.2444
        -0.000          -0.000
 -35263840.899 9 -27232114.76049  19514843.773    19514843.1554   19514849.1204
        -0.000          -0.000
 -31390064.660 9 -24178013.05149  19554180.585    19554180.7024   19554185.9124
        -0.000          -0.000
 97  3 12  2  8 29.9960000  0  6 10  6 24 17  5 30                  -0.003259244
 -29715924.359 9 -22161493.06748  20110572.290    20110571.3914   20110577.8534
        -0.000          -0.000
 -20973866.014 9 -15675482.74147  21451886.401    21451886.2084   21451892.3234
        -0.000          -0.000
 -28168638.624 9 -20733949.15048  20847011.926    20847011.6544   20847017.8954
        -0.000          -0.000
  -4167483.962 9  -3187435.23145  23936241.299    23936240.5964   23936248.8124
        -0.000          -0.000
 -35247838.388 9 -27219645.28449  19517888.958    19517888.3374   19517894.3254
        -0.000          -0.000
 -31437560.892 9 -24215023.10249  19545142.350    19545142.4804   19545147.6994
        -0.000          -0.000
 97  3 12  2  8 59.9960000  0  6 10  6 24 17  5 30                  -0.003273356
 -29760727.337 9 -22196404.45548  20102046.570    20102045.6744   20102052.1084
        -0.000          -0.000
 -21060954.499 9 -15743343.86947  21435314.045    21435313.8114   21435319.8864
        -0.000          -0.000
 -28122343.089 9 -20697874.69848  20855821.689    20855821.4054   20855827.6334
        -0.000          -0.000
  -4282015.172 8  -3276680.25645  23914446.598    23914446.0444   23914454.0394
        -0.000          -0.000
 -35231321.972 9 -27206775.36249  19521031.886    19521031.2914   19521037.2854
        -0.000          -0.000
 -31484502.736 9 -24251601.16849  19536209.609    19536209.7334   19536214.9744
        -0.000          -0.000
 97  3 12  2  9 29.9960000  0  6 10  6 24 17  5 30                  -0.003287500
 -29804954.775 9 -22230867.37048  20093630.311    20093629.4204   20093635.8644
        -0.000          -0.000
 -21148013.911 9 -15811182.34947  21418747.137    21418746.9304   21418753.0204
        -0.000          -0.000
 -28075913.780 9 -20661696.01148  20864656.864    20864656.5994   20864662.8364
        -0.000          -0.000
  -4396435.589 8  -3365838.96445  23892673.013    23892672.5274   23892680.5194
        -0.000          -0.000
 -35214278.075 9 -27193494.42049  19524275.214    19524274.6264   19524280.6384
        -0.000          -0.000
 -31530878.698 9 -24287738.28849  19527384.549    19527384.6834   19527389.9144
        -0.000          -0.000
 97  3 12  2  9 59.9960000  0  6 10  6 24 17  5 30                  -0.003301674
 -29848614.874 9 -22264888.20148  20085322.053    20085321.1324   20085327.5794
        -0.000          -0.000
 -21235048.284 9 -15879001.30747  21402184.974    21402184.7864   21402190.8724
        -0.000          -0.000
 -28029352.319 9 -20625414.34148  20873517.189    20873516.9654   20873523.1894
        -0.000          -0.000
  -4510740.614 8  -3454907.73845  23870921.454    23870920.9864   23870928.7824
        -0.000          -0.000
 -35196713.203 9 -27179807.52149  19527617.711    19527617.1224   19527623.1394
        -0.000          -0.000
 -31576688.503 9 -24323434.23849  19518667.222    19518667.3684   19518672.6064
        -0.000          -0.000
 97  3 12  2 10 29.9960000  0  6 10  6 24 17  5 30                  -0.003315862
 -29891702.364 9 -22298462.84248  20077122.738    20077121.8084   20077128.2734
        -0.000          -0.000
 -21322039.076 9 -15946786.30847  21385631.160    21385630.9564   21385637.0414
        -0.000          -0.000
 -27982660.586 9 -20589031.15848  20882402.322    20882402.0644   20882408.3044
        -0.000          -0.000
  -4624914.622 8  -3543874.43945  23849194.717    23849194.3374   23849202.0254
        -0.000          -0.000
 -35178630.935 9 -27165717.46249  19531058.662    19531058.0704   19531064.1234
        -0.000          -0.000
 -31621938.323 9 -24358693.83849  19510056.472    19510056.6094   19510061.8594
        -0.000          -0.000
 97  3 12  2 10 59.9960000  0  6 10  6 24 17  5 30                  -0.003330062
 -29934229.061 9 -22331600.50748  20069030.139    20069029.2404   20069035.7274
        -0.000          -0.000
 -21408967.014 9 -16014522.34047  21369089.296    21369089.0774   21369095.1324
        -0.000          -0.000
 -27935843.400 9 -20552550.22748  20891311.293    20891311.0464   20891317.3104
        -0.000          -0.000
  -4738939.906 8  -3632725.22245  23827496.455    23827495.9484   23827503.6844
        -0.000          -0.000
 -35160024.086 9 -27151218.64449  19534599.406    19534598.8094   19534604.8574
        -0.000          -0.000
 -31666624.146 9 -24393513.96249  19501553.035    19501553.1764   19501558.4194
        -0.000          -0.000
 97  3 12  2 11 29.9960000  0  6 10  6 24 17  5 30                  -0.003344273
 -29976214.142 9 -22364316.12948  20061040.598    20061039.7114   20061046.2234
        -0.000          -0.000
 -21495833.863 9 -16082210.77047  21352559.045    21352558.8614   21352564.9134
        -0.000          -0.000
 -27888906.547 9 -20515976.04948  20900243.035    20900242.8234   20900249.1094
        -0.000          -0.000
  -4852825.774 8  -3721467.39345  23805824.670    23805824.1714   23805831.9854
        -0.000          -0.000
 -35140909.378 9 -27136324.08549  19538236.816    19538236.2304   19538242.2834
        -0.000          -0.000
 -31710766.875 9 -24427910.90049  19493152.974    19493153.0814   19493158.3254
        -0.000          -0.000
 97  3 12  2 11 59.9960000  0  6 10  6 24 17  5 30                  -0.003358483
 -30017642.687 9 -22396598.08648  20053156.946    20053156.0694   20053162.5964
        -0.000          -0.000
 -21582620.615 9 -16149836.78447  21336044.023    21336043.8144   21336049.8824
        -0.000          -0.000
 -27841844.778 9 -20479304.53248  20909198.612    20909198.3734   20909204.7184
        -0.000          -0.000
  -4966560.536 8  -3810091.82045  23784181.586    23784180.9854   23784189.0934
        -0.000          -0.000
 -35121285.606 9 -27121032.85149  19541971.129    19541970.5354   19541976.5844
        -0.000          -0.000
 -31754359.552 9 -24461879.21749  19484857.548    19484857.6544   19484862.9004
        -0.000          -0.000
 97  3 12  2 12 29.9960000  0  6 10  6 24 17  5 30                  -0.003372694
 -30058504.418 9 -22428438.37248  20045381.183    20045380.3324   20045386.8394
        -0.000          -0.000
 -21669310.391 9 -16217387.23547  21319547.460    21319547.3444   21319553.3404
        -0.000          -0.000
 -27794651.057 9 -20442530.19048  20918179.276    20918179.0264   20918185.3844
        -0.000          -0.000
  -5080135.521 8  -3898591.77045  23762568.862    23762568.3374   23762576.3544
        -0.000          -0.000
 -35101134.300 9 -27105330.55849  19545805.846    19545805.2514   19545811.2674
        -0.000          -0.000
 -31797384.130 9 -24495404.86849  19476670.239    19476670.3624   19476675.5914
        -0.000          -0.000
 97  3 12  2 12 59.9960000  0  6 10  6 24 17  5 30                  -0.003386906
 -30098802.826 9 -22459839.70848  20037712.676    20037711.8014   20037718.2954
        -0.000          -0.000
 -21755923.900 9 -16284878.25347  21303065.453    21303065.3354   21303071.3234
        -0.000          -0.000
 -27747320.326 9 -20405649.09648  20927185.994    20927185.7414   20927192.0934
        -0.000          -0.000
  -5193555.232 8  -3986970.71545  23740985.727    23740985.3684   23740993.1934
        -0.000          -0.000
 -35080457.893 9 -27089219.08149  19549740.475    19549739.8774   19549745.8794
        -0.000          -0.000
 -31839843.679 9 -24528490.23249  19468590.471    19468590.5954   19468595.8044
        -0.000          -0.000
 97  3 12  2 13 29.9960000  0  6 10  6 24 17  5 30                  -0.003401110
 -30138502.128 9 -22490774.20548  20030158.138    20030157.2714   20030163.7674
        -0.000          -0.000
 -21842469.098 9 -16352316.05447  21286596.504    21286596.2964   21286602.2844
        -0.000          -0.000
 -27699839.308 9 -20368650.89248  20936221.353    20936221.0964   20936227.4044
        -0.000          -0.000
  -5306828.978 8  -4075235.91945  23719430.476    23719429.8714   23719437.5604
        -0.000          -0.000
 -35059255.464 9 -27072697.70949  19553775.197    19553774.5844   19553780.5994
        -0.000          -0.000
 -31881738.462 9 -24561135.51749  19460618.171    19460618.3144   19460623.4984
        -0.000          -0.000
 97  3 12  2 13 59.9960000  0  6 10  6 24 17  5 30                  -0.003415320
 -30177593.133 9 -22521234.70448  20022719.373    20022718.4904   20022724.9734
        -0.000          -0.000
 -21928971.810 9 -16419720.74347  21270135.560    21270135.3424   21270141.3204
        -0.000          -0.000
 -27652233.576 9 -20331555.50348  20945280.402    20945280.1444   20945286.4644
        -0.000          -0.000
  -5419979.128 8  -4163404.82245  23697898.712    23697898.0174   23697905.7214
        -0.000          -0.000
 -35037543.297 9 -27055779.14849  19557906.895    19557906.2934   19557912.3114
        -0.000          -0.000
 -31923078.420 9 -24593348.47149  19452751.442    19452751.5804   19452756.7614
        -0.000          -0.000
 97  3 12  2 14 29.9960000  0  6 10  6 24 17  5 30                  -0.003429519
 -30216062.262 9 -22551210.62648  20015398.907    20015398.0184   20015404.5024
        -0.000          -0.000
 -22015426.701 9 -16487088.17347  21253683.770    21253683.5214   21253689.5004
        -0.000          -0.000
 -27604478.104 9 -20294343.44448  20954367.977    20954367.7234   20954374.0104
        -0.000          -0.000
  -5532988.766 8  -4251464.23745  23676393.640    23676393.0144   23676400.7684
        -0.000          -0.000
 -35015312.814 9 -27038456.71449  19562137.212    19562136.6154   19562142.6394
        -0.000          -0.000
 -31963855.899 9 -24625123.13549  19444991.751    19444991.8524   19444997.0604
        -0.000          -0.000
 97  3 12  2 14 59.9960000  0  6 10  6 24 17  5 30                  -0.003443700
 -30253918.351 9 -22580708.85348  20008195.101    20008194.2154   20008200.7074
        -0.000          -0.000
 -22101867.858 9 -16554444.88447  21237234.523    21237234.3194   21237240.2554
        -0.000          -0.000
 -27556571.895 9 -20257013.92748  20963484.193    20963483.9524   20963490.2704
        -0.000          -0.000
  -5645873.046 8  -4339425.97445  23654912.391    23654911.6664   23654919.6954
        -0.000          -0.000
 -34992593.583 9 -27020753.42649  19566460.548    19566459.9524   19566465.9914
        -0.000          -0.000
 -32004090.065 9 -24656474.43549  19437335.440    19437335.5334   19437340.7614
        -0.000          -0.000
 97  3 12  2 15 29.9960000  0  6 10  6 24 17  5 30                  -0.003457872
 -30291175.588 9 -22609740.44548  20001105.277    20001104.3844   20001110.8714
        -0.000          -0.000
 -22188294.851 9 -16621790.57147  21220788.052    21220787.8044   21220793.6864
        -0.000          -0.000
 -27508525.373 9 -20219575.08048  20972627.104    20972626.8934   20972633.2124
        -0.000          -0.000
  -5758634.031 8  -4427291.63945  23633454.627    23633453.9804   23633462.0074
        -0.000          -0.000
 -34969393.759 9 -27002675.65349  19570875.322    19570874.7154   19570880.7604
        -0.000          -0.000
 -32043774.523 9 -24687397.39149  19429783.716    19429783.8114   19429789.0274
        -0.000          -0.000
 97  3 12  2 15 59.9960000  0  6 10  6 24 17  5 30                  -0.003472043
 -30327862.374 9 -22638327.52948  19994123.997    19994123.1174   19994129.5914
        -0.000          -0.000
 -22274700.733 9 -16689119.79747  21204345.560    21204345.2974   21204351.1644
        -0.000          -0.000
 -27460354.924 9 -20182039.65448  20981793.649    20981793.4164   20981799.7234
        -0.000          -0.000
  -5871252.103 8  -4515045.93445  23612024.126    23612023.4864   23612031.3564
        -0.000          -0.000
 -34945710.304 9 -26984221.03149  19575382.113    19575381.5254   19575387.5864
        -0.000          -0.000
 -32082898.547 9 -24717883.64549  19422338.682    19422338.7754   19422343.9894
        -0.000          -0.000
 97  3 12  2 16 29.9960000  0  6 10  6 24 17  5 30                  -0.003486211
 -30364001.242 9 -22666487.66348  19987246.962    19987246.0984   19987252.5844
        -0.000          -0.000
 -22361073.975 9 -16756423.58947  21187909.255    21187908.9964   21187914.8254
        -0.000          -0.000
 -27412053.767 9 -20144402.38048  20990985.014    20990984.7944   20990991.0984
        -0.000          -0.000
  -5983708.522 9  -4602674.26345  23590624.354    23590623.7214   23590631.6274
        -0.000          -0.000
 -34921530.711 9 -26965379.80649  19579983.346    19579982.7504   19579988.8344
        -0.000          -0.000
 -32121449.823 9 -24747923.60149  19415002.624    19415002.7334   19415007.9374
        -0.000          -0.000
 97  3 12  2 16 59.9960000  0  6 10  6 24 17  5 30                  -0.003500407
 -30399604.565 9 -22694230.49248  19980471.854    19980470.9984   19980477.4414
        -0.000          -0.000
 -22447417.109 9 -16823703.92247  21171478.699    21171478.4404   21171484.2454
        -0.000          -0.000
 -27363652.582 9 -20106687.16548  21000195.444    21000195.2274   21000201.5214
        -0.000          -0.000
  -6096025.305 8  -4690193.78545  23569251.144    23569250.6274   23569258.3644
        -0.000          -0.000
 -34896862.834 9 -26946158.08949  19584677.482    19584676.8804   19584682.9714
        -0.000          -0.000
 -32159420.899 9 -24777511.45149  19407776.961    19407777.0764   19407782.2854
        -0.000          -0.000
 97  3 12  2 17 29.9960000  0  6 10  6 24 17  5 30                  -0.003514642
 -30434666.624 9 -22721551.56048  19973799.783    19973798.8874   19973805.3344
        -0.000          -0.000
 -22533700.968 9 -16890938.06947  21155059.420    21155059.1374   21155064.9394
        -0.000          -0.000
 -27315182.565 9 -20068918.31948  21009418.994    21009418.7524   21009425.0744
        -0.000          -0.000
  -6208201.074 8  -4777603.43145  23547904.721    23547904.2664   23547912.0704
        -0.000          -0.000
 -34871711.952 9 -26926560.01049  19589463.560    19589462.9574   19589469.0454
        -0.000          -0.000
 -32196812.174 9 -24806647.51449  19400661.636    19400661.7614   19400666.9734
        -0.000          -0.000
 97  3 12  2 17 59.9960000  0  6 10  6 24 17  5 30                  -0.003528905
 -30469161.490 9 -22748430.65548  19967235.646    19967234.7514   19967241.1634
        -0.000          -0.000
 -22619920.435 9 -16958122.04847  21138652.321    21138652.0564   21138657.8854
        -0.000          -0.000
 -27266642.981 9 -20031095.25648  21018655.776    21018655.5374   21018661.8594
        -0.000          -0.000
  -6320226.904 9  -4864896.23645  23526586.844    23526586.3734   23526594.2904
        -0.000          -0.000
 -34846080.878 9 -26906587.74949  19594341.018    19594340.4104   19594346.5034
        -0.000          -0.000
 -32233622.705 9 -24835331.05249  19393656.833    19393656.9414   19393662.1264
        -0.000          -0.000
 97  3 12  2 18 29.9960000  0  6 10  6 24 17  5 30                  -0.003543193
 -30503062.253 9 -22774846.81748  19960784.533    19960783.6274   19960790.0084
        -0.000          -0.000
 -22706065.078 9 -17025247.71047  21122259.514    21122259.2544   21122265.0794
        -0.000          -0.000
 -27218014.235 9 -19993202.72548  21027909.512    21027909.2414   21027915.5934
        -0.000          -0.000
  -6432116.990 9  -4952083.27445  23505294.899    23505294.3934   23505302.2894
        -0.000          -0.000
 -34819971.555 9 -26886242.82649  19599309.462    19599308.8614   19599314.9584
        -0.000          -0.000
 -32269844.368 9 -24863555.73149  19386764.105    19386764.2124   19386769.3834
        -0.000          -0.000
 97  3 12  2 18 59.9960000  0  6 10  6 24 17  5 30                  -0.003557517
 -30536370.928 9 -22800801.60948  19954446.077    19954445.1754   19954451.5874
        -0.000          -0.000
 -22792143.484 9 -17092321.76047  21105879.246    21105879.0244   21105884.8744
        -0.000          -0.000
 -27169324.148 9 -19955262.39648  21037174.945    21037174.6674   21037181.0184
        -0.000          -0.000
  -6543896.230 9  -5039183.92345  23484023.986    23484023.4494   23484031.3944
        -0.000          -0.000
 -34793408.693 9 -26865544.50649  19604364.205    19604363.6114   19604369.7064
        -0.000          -0.000
 -32305508.137 9 -24891345.68849  19379977.556    19379977.6614   19379982.8084
        -0.000          -0.000
 97  3 12  2 19 29.9960000  0  6 10  6 24 17  5 30                  -0.003571858
 -30569086.565 9 -22826294.29648  19948220.465    19948219.5754   19948225.9694
        -0.000          -0.000
 -22878162.021 9 -17159349.16648  21089510.463    21089510.2364   21089516.0904
        -0.000          -0.000
 -27120557.849 9 -19917262.68548  21046454.862    21046454.5934   21046460.9284
        -0.000          -0.000
  -6655547.480 9  -5126184.86345  23462777.456    23462776.7584   23462784.8284
        -0.000          -0.000
 -34766374.257 9 -26844478.73449  19609508.670    19609508.0804   19609514.1804
        -0.000          -0.000
 -32340623.030 9 -24918707.94649  19373295.416    19373295.5164   19373300.6664
        -0.000          -0.000
 97  3 12  2 19 59.9960000  0  6 10  6 24 17  5 30                  -0.003586220
 -30601223.867 9 -22851336.33048  19942104.963    19942104.0394   19942110.4334
        -0.000          -0.000
 -22964135.231 9 -17226341.24648  21073150.287    21073150.0524   21073155.8954
        -0.000          -0.000
 -27071686.169 9 -19879180.85248  21055754.835    21055754.5444   21055760.9034
        -0.000          -0.000
  -6767072.468 9  -5213087.41145  23441554.826    23441554.1504   23441562.2484
        -0.000          -0.000
 -34738842.679 9 -26823025.56549  19614747.783    19614747.1934   19614753.2854
        -0.000          -0.000
 -32375175.679 9 -24945632.08949  19366720.259    19366720.3494   19366725.5164
        -0.000          -0.000
 97  3 12  2 20 29.9960000  0  6 10  6 24 17  5 30                  -0.003600602
 -30632786.463 9 -22875930.54548  19936098.766    19936097.8574   19936104.2484
        -0.000          -0.000
 -23050041.180 9 -17293280.92048  21056802.925    21056802.6694   21056808.5214
        -0.000          -0.000
 -27022690.435 9 -19841002.35648  21065078.392    21065078.1004   21065084.4574
        -0.000          -0.000
  -6878462.969 9  -5299885.15245  23420357.929    23420357.2644   23420365.3094
        -0.000          -0.000
 -34710786.399 9 -26801163.53649  19620086.730    19620086.1274   19620092.2334
        -0.000          -0.000
 -32409146.128 9 -24972102.57749  19360255.874    19360255.9844   19360261.1734
        -0.000          -0.000
 97  3 12  2 20 59.9960000  0  6 10  6 24 17  5 30                  -0.003614982
 -30663778.502 9 -22900080.17248  19930201.109    19930200.2294   19930206.6314
        -0.000          -0.000
 -23135891.997 9 -17360177.62948  21040465.999    21040465.7394   21040471.5964
        -0.000          -0.000
 -26973571.558 9 -19802727.90648  21074425.423    21074425.1094   21074431.4784
        -0.000          -0.000
  -6989700.207 9  -5386563.48545  23399190.187    23399189.4484   23399197.5014
        -0.000          -0.000
 -34682208.483 9 -26778895.04349  19625524.928    19625524.3224   19625530.4314
        -0.000          -0.000
 -32442553.536 9 -24998134.32949  19353898.656    19353898.7654   19353903.9494
        -0.000          -0.000
 97  3 12  2 21 29.9960000  0  6 10  6 24 17  5 30                  -0.003629347
 -30694186.385 9 -22923774.61148  19924414.684    19924413.7954   19924420.2104
        -0.000          -0.000
 -23221707.547 9 -17427046.86548  21024135.838    21024135.5844   21024141.4544
        -0.000          -0.000
 -26924303.238 9 -19764337.01648  21083800.854    21083800.5394   21083806.9154
        -0.000          -0.000
  -7100774.098 9  -5473114.53245  23378053.519    23378052.8014   23378060.7464
        -0.000          -0.000
 -34653101.202 9 -26756214.06049  19631063.848    19631063.2584   19631069.3584
        -0.000          -0.000
 -32475380.437 9 -25023713.74249  19347651.938    19347652.0294   19347657.2154
        -0.000          -0.000
 97  3 12  2 21 59.9960000  0  6 10  6 24 17  5 30                  -0.003643694
 -30723991.482 9 -22946999.34748  19918742.969    19918742.0724   19918748.4774
        -0.000          -0.000
 -23307469.249 9 -17493874.15048  21007815.917    21007815.6824   21007821.5314
        -0.000          -0.000
 -26874893.502 9 -19725835.92447  21093203.187    21093202.8994   21093209.2624
        -0.000          -0.000
  -7211682.162 9  -5559536.35145  23356948.466    23356947.6624   23356955.5984
        -0.000          -0.000
 -34623473.636 9 -26733127.65549  19636701.799    19636701.1754   19636707.2974
        -0.000          -0.000
 -32507621.185 9 -25048836.40849  19341516.736    19341516.8264   19341522.0104
        -0.000          -0.000
 97  3 12  2 22 29.9960000  0  6 10  6 24 17  5 30                  -0.003658032
 -30753207.865 9 -22969765.34448  19913183.235    19913182.3414   19913188.7644
        -0.000          -0.000
 -23393200.374 9 -17560677.61148  20991501.779    20991501.5364   20991507.3864
        -0.000          -0.000
 -26825392.030 9 -19687263.34547  21102622.977    21102622.6884   21102629.0634
        -0.000          -0.000
  -7322453.309 9  -5645851.47845  23335869.506    23335868.6544   23335876.5354
        -0.000          -0.000
 -34593378.646 9 -26709677.01949  19642428.718    19642428.1104   19642434.1894
        -0.000          -0.000
 -32539332.742 9 -25073546.71449  19335482.243    19335482.3244   19335487.5054
        -0.000          -0.000
 97  3 12  2 22 59.9960000  0  6 10  6 24 17  5 30                  -0.003672342
 -30781811.648 9 -22992053.99048  19907740.104    19907739.2194   19907745.6474
        -0.000          -0.000
 -23478885.348 9 -17627445.11548  20975196.447    20975196.2144   20975202.0624
        -0.000          -0.000
 -26775789.311 9 -19648611.87047  21112062.063    21112061.7444   21112068.1324
        -0.000          -0.000
  -7433061.444 9  -5732039.58745  23314821.396    23314820.6364   23314828.3734
        -0.000          -0.000
 -34562803.990 9 -26685852.61449  19648246.877    19648246.2524   19648252.3544
        -0.000          -0.000
 -32570504.315 9 -25097836.25349  19329550.472    19329550.5814   19329555.7594
        -0.000          -0.000
 97  3 12  2 23 29.9960000  0  6 10  6 24 17  5 30                  -0.003686656
 -30809814.617 9 -23013874.46848  19902411.263    19902410.3784   19902416.8164
        -0.000          -0.000
 -23564512.298 9 -17694167.42348  20958902.114    20958901.9244   20958907.7924
        -0.000          -0.000
 -26726113.910 9 -19609903.76947  21121514.987    21121514.6704   21121521.0354
        -0.000          -0.000
  -7543519.571 9  -5818110.80245  23293801.825    23293801.0274   23293808.8364
        -0.000          -0.000
 -34531746.756 9 -26661652.18749  19654156.876    19654156.2714   19654162.3744
        -0.000          -0.000
 -32601120.957 9 -25121693.37849  19323724.281    19323724.3944   19323729.5874
        -0.000          -0.000
 97  3 12  2 23 59.9960000  0  6 10  6 24 17  5 30                  -0.003700995
 -30837238.348 9 -23035243.59348  19897192.709    19897191.8214   19897198.2384
        -0.000          -0.000
 -23650051.622 9 -17760821.44048  20942624.519    20942624.3334   20942630.2014
        -0.000          -0.000
 -26676395.298 9 -19571162.00047  21130976.089    21130975.8004   21130982.1574
        -0.000          -0.000
  -7653834.439 9  -5904070.38546  23272809.576    23272808.8004   23272816.6204
        -0.000          -0.000
 -34500220.467 9 -26637086.26749  19660156.104    19660155.5184   19660161.6084
        -0.000          -0.000
 -32631184.407 9 -25145119.44349  19318003.379    19318003.5054   19318008.7144
        -0.000          -0.000
 97  3 12  2 24 29.9960000  0  6 10  6 24 17  5 30                  -0.003715354
 -30864076.167 9 -23056156.15948  19892085.677    19892084.7564   19892091.1874
        -0.000          -0.000
 -23735498.890 9 -17827403.71648  20926364.448    20926364.2104   20926370.0664
        -0.000          -0.000
 -26626610.264 9 -19532368.46547  21140449.846    21140449.5324   21140455.8994
        -0.000          -0.000
  -7763994.452 9  -5989909.29446  23251846.729    23251846.0624   23251853.8984
        -0.000          -0.000
 -34468215.274 9 -26612147.17749  19666246.495    19666245.9114   19666252.0104
        -0.000          -0.000
 -32660668.655 9 -25168094.18249  19312392.669    19312392.8094   19312398.0494
        -0.000          -0.000
 97  3 12  2 24 59.9960000  0  6 10  6 24 17  5 30                  -0.003729733
 -30890314.178 9 -23076601.34548  19887092.709    19887091.8034   19887098.2194
        -0.000          -0.000
 -23820854.005 9 -17893914.19848  20910121.861    20910121.6544   20910127.5034
        -0.000          -0.000
 -26576744.686 9 -19493512.17347  21149938.939    21149938.6724   21149945.0154
        -0.000          -0.000
  -7873986.038 9  -6075616.97846  23230916.070    23230915.3224   23230923.0794
        -0.000          -0.000
 -34435706.760 9 -26586815.90049  19672432.691    19672432.1094   19672438.1994
        -0.000          -0.000
 -32689540.133 9 -25190591.43849  19306898.600    19306898.7424   19306903.9884
        -0.000          -0.000
 97  3 12  2 25 29.9960000  0  6 10  6 24 17  5 30                  -0.003744137
 -30915948.657 9 -23096576.24548  19882214.585    19882213.6904   19882220.1124
        -0.000          -0.000
 -23906122.142 9 -17960356.88948  20893895.837    20893895.6574   20893901.5194
        -0.000          -0.000
 -26526793.737 9 -19454589.34647  21159444.274    21159444.0424   21159450.3514
        -0.000          -0.000
  -7983815.950 9  -6161198.66146  23210016.084    23210015.3214   23210023.0084
        -0.000          -0.000
 -34402701.139 9 -26561097.26549  19678713.483    19678712.9004   19678718.9894
        -0.000          -0.000
 -32717791.880 9 -25212605.78449  19301522.508    19301522.6444   19301527.8704
        -0.000          -0.000
 97  3 12  2 25 59.9960000  0  6 10  6 24 17  5 30                  -0.003758548
 -30940984.516 9 -23116084.68548  19877450.405    19877449.5084   19877455.9094
        -0.000          -0.000
 -23991319.064 9 -18026744.08248  20877683.337    20877683.1914   20877689.0534
        -0.000          -0.000
 -26476743.804 9 -19415589.39247  21168968.491    21168968.2584   21168974.5794
        -0.000          -0.000
  -8093487.247 9  -6246656.75546  23189146.194    23189145.5894   23189153.2144
        -0.000          -0.000
 -34369222.226 9 -26535009.82849  19685084.338    19685083.7504   19685089.8314
        -0.000          -0.000
 -32745440.635 9 -25234150.26849  19296261.136    19296261.2664   19296266.4944
        -0.000          -0.000
 97  3 12  2 26 29.9960000  0  6 10  6 24 17  5 30                  -0.003772958
 -30965420.933 9 -23135126.03448  19872800.340    19872799.4374   19872805.7794
        -0.000          -0.000
 -24076468.153 9 -18093094.01648  20861480.053    20861479.8884   20861485.7574
        -0.000          -0.000
 -26426594.267 9 -19376511.83347  21178511.649    21178511.3914   21178517.7084
        -0.000          -0.000
  -8203001.838 9  -6331992.74646  23168306.131    23168305.5264   23168313.1864
        -0.000          -0.000
 -34335279.925 9 -26508561.31749  19691543.369    19691542.7694   19691548.8724
        -0.000          -0.000
 -32772497.644 9 -25255233.65749  19291112.335    19291112.4814   19291117.6884
        -0.000          -0.000
 97  3 12  2 26 59.9960000  0  6 10  6 24 17  5 30                  -0.003787358
 -30989266.044 9 -23153706.61948  19868262.742    19868261.8494   19868268.1824
        -0.000          -0.000
 -24161565.503 9 -18159403.61748  20845286.614    20845286.4384   20845292.2894
        -0.000          -0.000
 -26376355.777 9 -19337364.94947  21188071.702    21188071.5034   21188077.8024
        -0.000          -0.000
  -8312343.868 9  -6417194.26346  23147498.956    23147498.4904   23147506.1594
        -0.000          -0.000
 -34300883.980 9 -26481759.31549  19698088.710    19698088.1074   19698094.2124
        -0.000          -0.000
 -32798970.023 9 -25275861.49049  19286074.784    19286074.9184   19286080.1474
        -0.000          -0.000
 97  3 12  2 27 29.9960000  0  6 10  6 24 17  5 30                  -0.003801744
 -31012524.174 9 -23171829.82348  19863836.848    19863835.9624   19863842.2894
        -0.000          -0.000
 -24246588.705 9 -18225655.44848  20829107.274    20829107.0794   20829112.9194
        -0.000          -0.000
 -26326027.222 9 -19298147.89347  21197648.900    21197648.6934   21197654.9484
        -0.000          -0.000
  -8421504.824 9  -6502254.69546  23126726.242    23126725.7214   23126733.4374
        -0.000          -0.000
 -34266050.135 9 -26454616.09549  19704717.417    19704716.8084   19704722.8934
        -0.000          -0.000
 -32824852.786 9 -25296029.87649  19281149.487    19281149.6184   19281154.8594
        -0.000          -0.000
 97  3 12  2 27 59.9960000  0  6 10  6 24 17  5 30                  -0.003816121
 -31035193.461 9 -23189494.18448  19859523.002    19859522.1194   19859528.4424
        -0.000          -0.000
 -24331529.527 9 -18291843.08448  20812943.572    20812943.3694   20812949.1804
        -0.000          -0.000
 -26275616.562 9 -19258866.85847  21207241.730    21207241.5224   21207247.7794
        -0.000          -0.000
  -8530482.268 9  -6587172.13246  23105988.482    23105987.9084   23105995.6914
        -0.000          -0.000
 -34230771.220 9 -26427126.07149  19711430.789    19711430.1814   19711436.2734
        -0.000          -0.000
 -32850143.880 9 -25315737.23449  19276336.759    19276336.8904   19276342.1304
        -0.000          -0.000
 97  3 12  2 28 29.9960000  0  6 10  6 24 17  5 30                  -0.003830507
 -31057281.108 9 -23206705.31948  19855319.863    19855318.9894   19855325.3084
        -0.000          -0.000
 -24416408.072 9 -18357982.19048  20796791.785    20796791.5214   20796797.3054
        -0.000          -0.000
 -26225145.182 9 -19219538.50447  21216846.090    21216845.8634   21216852.1454
        -0.000          -0.000
  -8639288.076 9  -6671955.82146  23085283.329    23085282.7914   23085290.5274
        -0.000          -0.000
 -34195040.810 9 -26399284.21449  19718230.078    19718229.4544   19718235.5964
        -0.000          -0.000
 -32874847.236 9 -25334986.61549  19271635.899    19271636.0244   19271641.2744
        -0.000          -0.000
 97  3 12  2 28 59.9960000  0  6 10  6 24 17  5 30                  -0.003844901
 -31078775.547 9 -23223454.21848  19851229.609    19851228.7204   19851235.0514
        -0.000          -0.000
 -24501209.058 9 -18424060.86748  20780654.653    20780654.4034   20780660.1994
        -0.000          -0.000
 -26174596.701 9 -19180150.07647  21226465.176    21226464.9144   21226471.1834
        -0.000          -0.000
  -8747922.836 9  -6756606.23246  23064610.803    23064610.2634   23064617.9414
        -0.000          -0.000
 -34158838.443 9 -26371074.58949  19725119.126    19725118.5354   19725124.6974
        -0.000          -0.000
 -32898945.995 9 -25353764.87849  19267050.055    19267050.1694   19267055.4114
        -0.000          -0.000
 97  3 12  2 29 29.9960000  0  6 10  6 24 17  5 30                  -0.003859323
 -31099672.336 9 -23239737.41348  19847253.108    19847252.2234   19847258.5134
        -0.000          -0.000
 -24585926.489 9 -18490074.43348  20764533.471    20764533.2534   20764539.0264
        -0.000          -0.000
 -26123970.974 9 -19140701.45547  21236098.929    21236098.7054   21236104.9254
        -0.000          -0.000
  -8856408.252 9  -6841140.25346  23043966.661    23043966.0044   23043973.8454
        -0.000          -0.000
 -34122153.200 9 -26342488.70149  19732100.136    19732099.5324   19732105.7364
        -0.000          -0.000
 -32922439.707 9 -25372071.67449  19262579.339    19262579.4744   19262584.7194
        -0.000          -0.000
 97  3 12  2 29 59.9960000  0  6 10  6 24 17  5 30                  -0.003873775
 -31119990.337 9 -23255569.60648  19843386.702    19843385.8004   19843392.0784
        -0.000          -0.000
 -24670578.333 9 -18556036.89648  20748424.757    20748424.5354   20748430.2924
        -0.000          -0.000
 -26073277.486 9 -19101200.02547  21245745.622    21245745.3574   21245751.5754
        -0.000          -0.000
  -8964758.416 9  -6925568.90246  23023348.165    23023347.7084   23023355.3834
        -0.000          -0.000
 -34084978.973 9 -26313521.78149  19739174.172    19739173.5744   19739179.7844
        -0.000          -0.000
 -32945347.892 9 -25389922.22049  19258220.061    19258220.1824   19258225.4294
        -0.000          -0.000
 97  3 12  2 30 29.9960000  0  6 10  6 24 17  5 30                  -0.003888262
 -31139734.111 9 -23270954.34948  19839629.571    19839628.6614   19839634.9454
        -0.000          -0.000
 -24755163.477 9 -18621947.37948  20732328.756    20732328.5174   20732334.2674
        -0.000          -0.000
 -26022514.455 9 -19061644.41047  21255405.439    21255405.1694   21255411.4134
        -0.000          -0.000
  -9072979.465 9  -7009896.95346  23002754.315    23002753.8454   23002761.5294
        -0.000          -0.000
 -34047324.249 9 -26284180.45449  19746339.591    19746339.0144   19746345.2464
        -0.000          -0.000
 -32967670.688 9 -25407316.61749  19253972.179    19253972.3024   19253977.5464
        -0.000          -0.000
 97  3 12  2 30 59.9960000  0  6 10  6 24 17  5 30                  -0.003902771
 -31158891.935 9 -23285882.50648  19835983.909    19835983.0254   19835989.3094
        -0.000          -0.000
 -24839645.781 9 -18687777.73348  20716252.286    20716252.0674   20716257.7964
        -0.000          -0.000
 -25971666.839 9 -19022022.88947  21265081.400    21265081.1714   21265087.4474
        -0.000          -0.000
  -9181049.368 9  -7094107.21546  22982189.318    22982188.7424   22982196.4994
        -0.000          -0.000
 -34009174.606 9 -26254453.48049  19753599.240    19753598.6584   19753604.9394
        -0.000          -0.000
 -32989388.115 9 -25424239.29649  19249839.497    19249839.6034   19249844.8714
        -0.000          -0.000
 97  3 12  2 31 29.9960000  0  6 10  6 24 17  5 30                  -0.003917314
 -31177489.799 9 -23300374.33348  19832444.849    19832443.9654   19832450.2454
        -0.000          -0.000
 -24924048.943 9 -18753546.41148  20700190.852    20700190.6464   20700196.3604
        -0.000          -0.000
 -25920782.595 9 -18982372.82347  21274764.371    21274764.1084   21274770.4334
        -0.000          -0.000
  -9288976.037 9  -7178205.86346  22961651.470    22961650.9104   22961658.6964
        -0.000          -0.000
 -33970556.594 9 -26224361.54049  19760947.974    19760947.3814   19760953.7024
        -0.000          -0.000
 -33010536.527 9 -25440718.58749  19245815.077    19245815.2094   19245820.4544
        -0.000          -0.000
 97  3 12  2 31 59.9960000  0  6 10  6 24 17  5 30                  -0.003931878
 -31195510.709 9 -23314416.58448  19829015.555    19829014.6594   19829020.9504
        -0.000          -0.000
 -25008374.389 9 -18819254.53448  20684144.229    20684144.0254   20684149.7544
        -0.000          -0.000
 -25869852.622 9 -18942687.12447  21284456.023    21284455.7584   21284462.1004
        -0.000          -0.000
  -9396744.070 9  -7262180.91946  22941143.731    22941143.2074   22941151.1084
        -0.000          -0.000
 -33931463.280 9 -26193899.23649  19768387.174    19768386.6014   19768392.9244
        -0.000          -0.000
 -33031105.562 9 -25456746.40949  19241900.948    19241901.0794   19241906.3344
        -0.000          -0.000
 97  3 12  2 32 29.9960000  0  6 10  6 24 17  5 30                  -0.003946459
 -31212940.144 9 -23327997.94148  19825698.799    19825697.9154   19825704.2074
        -0.000          -0.000
 -25092626.663 9 -18884905.63748  20668111.557    20668111.3444   20668117.0354
        -0.000          -0.000
 -25818876.606 9 -18902965.55747  21294156.316    21294156.1224   21294162.4724
        -0.000          -0.000
  -9504349.683 9  -7346029.39946  22920667.066    22920666.5034   22920674.3854
        -0.000          -0.000
 -33891908.507 9 -26163077.37249  19775914.206    19775913.6404   19775919.9494
        -0.000          -0.000
 -33051086.716 9 -25472316.14649  19238098.665    19238098.8014   19238104.0564
        -0.000          -0.000
 97  3 12  2 32 59.9960000  0  6 10  6 24 17  5 30                  -0.003961030
 -31229768.479 9 -23341110.91648  19822496.460    19822495.5924   19822501.8854
        -0.000          -0.000
 -25176802.679 9 -18950497.33048  20652093.408    20652093.1634   20652098.8634
        -0.000          -0.000
 -25767846.993 9 -18863202.21847  21303866.940    21303866.7204   21303873.0924
        -0.000          -0.000
  -9611764.238 9  -7429729.01746  22900226.883    22900226.2244   22900234.0104
        -0.000          -0.000
 -33851897.761 9 -26131900.19949  19783528.033    19783527.4694   19783533.7574
        -0.000          -0.000
 -33070483.840 9 -25487430.78949  19234407.561    19234407.6774   19234412.9454
        -0.000          -0.000
 97  3 12  2 33 29.9960000  0  6 10  6 24 17  5 30                  -0.003975578
 -31245975.179 9 -23353739.49448  19819412.444    19819411.5774   19819417.8644
        -0.000          -0.000
 -25260905.420 9 -19016031.92248  20636089.154    20636088.9434   20636094.6524
        -0.000          -0.000
 -25716749.843 9 -18823386.26247  21313590.413    21313590.1694   21313596.5444
        -0.000          -0.000
  -9718984.299 9  -7513277.08346  22879823.586    22879822.9684   22879830.6764
        -0.000          -0.000
 -33811444.390 9 -26100378.10349  19791226.092    19791225.5204   19791231.7904
        -0.000          -0.000
 -33089295.635 9 -25502089.33349  19230827.804    19230827.9154   19230833.1674
        -0.000          -0.000
 97  3 12  2 33 59.9960000  0  6 10  6 24 17  5 30                  -0.003990115
 -31261574.518 9 -23365894.80648  19816443.978    19816443.0924   19816449.3904
        -0.000          -0.000
 -25344946.898 9 -19081518.77848  20620096.563    20620096.3544   20620102.0544
        -0.000          -0.000
 -25665577.313 9 -18783511.56147  21323328.191    21323327.9674   21323334.3684
        -0.000          -0.000
  -9826032.523 9  -7596691.25146  22859453.068    22859452.3514   22859460.0414
        -0.000          -0.000
 -33770564.230 9 -26068523.42348  19799005.358    19799004.7844   19799011.0774
        -0.000          -0.000
 -33107521.475 9 -25516291.29249  19227359.520    19227359.6164   19227364.8714
        -0.000          -0.000
 97  3 12  2 34 29.9960000  0  6 10  6 24 17  5 30                  -0.004004624
 -31276557.424 9 -23377569.78248  19813592.803    19813591.9264   19813598.2184
        -0.000          -0.000
 -25428895.589 9 -19146933.33448  20604121.707    20604121.4544   20604127.1604
        -0.000          -0.000
 -25614319.666 9 -18743570.53847  21333082.172    21333081.9354   21333088.3344
        -0.000          -0.000
  -9932877.005 9  -7679946.65646  22839121.287    22839120.4764   22839128.1404
        -0.000          -0.000
 -33729248.579 9 -26036329.38048  19806867.478    19806866.8914   19806873.1914
        -0.000          -0.000
 -33125145.451 9 -25530024.26449  19224005.794    19224005.9084   19224011.1864
        -0.000          -0.000
 97  3 12  2 34 59.9950000  0  6 10  6 24 17  5 30                  -0.004019127
 -31290942.602 9 -23388778.99548  19810855.371    19810854.4814   19810860.7804
        -0.000          -0.000
 -25512746.626 9 -19212271.79248  20588165.394    20588165.1404   20588170.8244
        -0.000          -0.000
 -25563004.652 9 -18703584.81447  21342847.086    21342846.8844   21342853.2564
        -0.000          -0.000
 -10039536.908 9  -7763058.21846  22818824.478    22818823.7984   22818831.3444
        -0.000          -0.000
 -33687514.457 9 -26003809.28348  19814809.216    19814808.6234   19814814.9354
        -0.000          -0.000
 -33142189.266 9 -25543305.16349  19220762.427    19220762.5534   19220767.8324
        -0.000          -0.000
 97  3 12  2 35 29.9950000  0  6 10  6 24 17  5 30                  -0.004033664
 -31304751.529 9 -23399539.18548  19808227.614    19808226.7204   19808233.0224
        -0.000          -0.000
 -25596510.734 9 -19277542.51148  20572225.545    20572225.2854   20572231.0054
        -0.000          -0.000
 -25511654.921 9 -18663572.02947  21352618.679    21352618.4704   21352624.7794
        -0.000          -0.000
 -10146058.285 9  -7846061.85746  22798554.080    22798553.3804   22798560.9584
        -0.000          -0.000
 -33645354.903 9 -25970957.72248  19822831.936    19822831.3494   19822837.6364
        -0.000          -0.000
 -33158656.595 9 -25556136.85449  19217628.800    19217628.9524   19217634.2504
        -0.000          -0.000
 97  3 12  2 35 59.9950000  0  6 10  6 24 17  5 30                  -0.004048232
 -31317989.058 9 -23409854.12348  19805708.600    19805707.7044   19805713.9954
        -0.000          -0.000
 -25680167.933 9 -19342729.92448  20556306.046    20556305.8164   20556311.5374
        -0.000          -0.000
 -25460273.714 9 -18623534.72047  21362396.253    21362396.0014   21362402.2754
        -0.000          -0.000
 -10252423.424 9  -7928943.73846  22778313.379    22778312.6724   22778320.3594
        -0.000          -0.000
 -33602758.476 9 -25937765.74748  19830937.752    19830937.1784   19830943.4604
        -0.000          -0.000
 -33174541.441 9 -25568514.66149  19214606.021    19214606.1454   19214611.4624
        -0.000          -0.000
 97  3 12  2 36 29.9950000  0  6 10  6 24 17  5 30                  -0.004062817
 -31330635.751 9 -23419708.67348  19803301.973    19803301.0904   19803307.3814
        -0.000          -0.000
 -25763713.766 9 -19407830.55848  20540407.762    20540407.5424   20540413.2684
        -0.000          -0.000
 -25408855.234 9 -18583468.37847  21372180.890    21372180.6574   21372186.9134
        -0.000          -0.000
 -10358613.708 9  -8011689.38446  22758106.012    22758105.3214   22758113.0404
        -0.000          -0.000
 -33559728.678 9 -25904236.06648  19839126.106    19839125.5194   19839131.7954
        -0.000          -0.000
 -33189839.880 9 -25580435.53249  19211694.834    19211694.9504   19211700.2664
        -0.000          -0.000
 97  3 12  2 36 59.9950000  0  6 10  6 24 17  5 30                  -0.004077420
 -31342700.686 9 -23429109.90248  19801006.082    19801005.1994   19801011.4934
        -0.000          -0.000
 -25847159.997 9 -19472853.57348  20524528.453    20524528.2354   20524533.9804
        -0.000          -0.000
 -25357389.121 9 -18543364.91147  21381974.634    21381974.3674   21381980.5894
        -0.000          -0.000
 -10464640.522 9  -8094307.65446  22737929.790    22737929.0394   22737936.7164
        -0.000          -0.000
 -33516266.069 9 -25870369.10448  19847396.752    19847396.1644   19847402.4424
        -0.000          -0.000
 -33204548.888 9 -25591897.10449  19208895.810    19208895.9184   19208901.2374
        -0.000          -0.000
 97  3 12  2 37 29.9950000  0  6 10  6 24 17  5 30                  -0.004092028
 -31354182.013 9 -23438056.37448  19798821.235    19798820.3624   19798826.6504
        -0.000          -0.000
 -25930517.049 9 -19537807.10648  20508666.109    20508665.8964   20508671.6654
        -0.000          -0.000
 -25305859.411 9 -18503211.89247  21391780.367    21391780.1694   21391786.3694
        -0.000          -0.000
 -10570490.288 9  -8176787.93946  22717787.114    22717786.4844   22717794.0794
        -0.000          -0.000
 -33472365.071 9 -25836160.52948  19855750.841    19855750.2604   19855756.5664
        -0.000          -0.000
 -33218653.957 9 -25602888.07749  19206211.682    19206211.8164   19206217.1224
        -0.000          -0.000
 97  3 12  2 37 59.9950000  0  6 10  6 24 17  5 30                  -0.004106614
 -31365064.025 9 -23446535.84748  19796750.461    19796749.5854   19796755.8804
        -0.000          -0.000
 -26013780.372 9 -19602687.60748  20492821.581    20492821.3854   20492827.1564
        -0.000          -0.000
 -25254247.186 9 -18462994.56347  21401601.900    21401601.6694   21401607.8534
        -0.000          -0.000
 -10676142.234 9  -8259114.09846  22697682.193    22697681.6314   22697689.2034
        -0.000          -0.000
 -33428036.451 9 -25801618.73748  19864186.283    19864185.7104   19864192.0254
        -0.000          -0.000
 -33232155.663 9 -25613408.89849  19203642.387    19203642.5354   19203647.8414
        -0.000          -0.000
 97  3 12  2 38 29.9950000  0  6 10  6 24 17  5 30                  -0.004121184
 -31375352.410 9 -23454552.75248  19794792.640    19794791.7414   19794798.0254
        -0.000          -0.000
 -26096962.082 9 -19667504.51048  20476992.628    20476992.3934   20476998.1784
        -0.000          -0.000
 -25202552.331 9 -18422712.86747  21411439.077    21411438.8794   21411445.0634
        -0.000          -0.000
 -10781610.546 9  -8341297.17046  22677612.187    22677611.6264   22677619.1924
        -0.000          -0.000
 -33383273.118 9 -25766738.23948  19872704.483    19872703.9034   19872710.2024
        -0.000          -0.000
 -33245060.275 9 -25623464.45149  19201186.751    19201186.8954   19201192.1844
        -0.000          -0.000
 97  3 12  2 38 59.9950000  0  6 10  6 24 17  5 30                  -0.004135742
 -31385061.843 9 -23462118.52748  19792944.978    19792944.1104   19792950.3804
        -0.000          -0.000
 -26180054.305 9 -19732251.67948  20461180.645    20461180.4504   20461186.2474
        -0.000          -0.000
 -25150782.229 9 -18382372.52347  21421290.606    21421290.4094   21421296.6294
        -0.000          -0.000
 -10886901.619 9  -8423342.10746  22657575.931    22657575.3674   22657582.8904
        -0.000          -0.000
 -33338060.457 9 -25731507.61348  19881308.178    19881307.6074   19881313.8814
        -0.000          -0.000
 -33257375.582 9 -25633060.80149  19198843.269    19198843.3974   19198848.6904
        -0.000          -0.000
 97  3 12  2 39 29.9950000  0  6 10  6 24 17  5 30                  -0.004150282
 -31394177.903 9 -23469221.93448  19791210.234    19791209.3514   19791215.6174
        -0.000          -0.000
 -26263040.573 9 -19796916.28948  20445388.857    20445388.6624   20445394.4574
        -0.000          -0.000
 -25098940.163 9 -18341976.10047  21431155.897    21431155.6004   21431161.8454
        -0.000          -0.000
 -10992006.048 9  -8505241.63646  22637575.281    22637574.6634   22637582.1564
        -0.000          -0.000
 -33292397.198 9 -25695925.87648  19889997.617    19889997.0124   19890003.3224
        -0.000          -0.000
 -33269106.649 9 -25642201.90749  19196610.947    19196611.0634   19196616.3624
        -0.000          -0.000
 97  3 12  2 39 59.9950000  0  6 10  6 24 17  5 30                  -0.004164819
 -31402723.260 9 -23475880.63948  19789584.081    19789583.2074   19789589.4564
        -0.000          -0.000
 -26345936.909 9 -19861510.81348  20429614.189    20429613.9934   20429619.7954
        -0.000          -0.000
 -25047053.247 9 -18301544.73147  21441029.578    21441029.3054   21441035.5584
        -0.000          -0.000
 -11096940.823 9  -8587008.96246  22617606.892    22617606.2174   22617613.5684
        -0.000          -0.000
 -33246296.948 9 -25660003.61848  19898770.173    19898769.5984   19898775.9084
        -0.000          -0.000
 -33280276.291 9 -25650905.54049  19194485.464    19194485.5844   19194490.8804
        -0.000          -0.000
 97  3 12  2 40 29.9950000  0  6 10  6 24 17  5 30                  -0.004179372
 -31410717.620 9 -23482109.99348  19788062.794    19788061.9104   19788068.1714
        -0.000          -0.000
 -26428749.293 9 -19926039.92648  20413855.566    20413855.3424   20413861.1344
        -0.000          -0.000
 -24995131.315 9 -18261086.08447  21450909.946    21450909.7144   21450915.9564
        -0.000          -0.000
 -11201723.126 9  -8668657.46246  22597667.315    22597666.7414   22597674.1454
        -0.000          -0.000
 -33199755.242 9 -25623737.35748  19907626.811    19907626.2374   19907632.5174
        -0.000          -0.000
 -33290877.080 9 -25659165.90549  19192468.194    19192468.3214   19192473.6284
        -0.000          -0.000
 97  3 12  2 40 59.9950000  0  6 10  6 24 17  5 30                  -0.004193948
 -31418143.180 9 -23487896.12648  19786649.722    19786648.8384   19786655.1054
        -0.000          -0.000
 -26511460.618 9 -19990490.28948  20398116.157    20398115.9284   20398121.6824
        -0.000          -0.000
 -24943177.865 9 -18220602.87447  21460796.322    21460796.1104   21460802.3324
        -0.000          -0.000
 -11306346.682 9  -8750182.24246  22577758.118    22577757.4634   22577764.8844
        -0.000          -0.000
 -33152792.237 9 -25587142.81748  19916563.572    19916563.0004   19916569.2774
        -0.000          -0.000
 -33300891.945 9 -25666969.70249  19190562.380    19190562.5204   19190567.8414
        -0.000          -0.000
 97  3 12  2 41 29.9950000  0  6 10  6 24 17  5 30                  -0.004208565
 -31424997.582 9 -23493237.20348  19785345.362    19785344.4814   19785350.7404
        -0.000          -0.000
 -26594076.984 9 -20054866.65048  20382394.757    20382394.5324   20382400.2974
        -0.000          -0.000
 -24891204.821 9 -18180104.40947  21470686.502    21470686.2434   21470692.5064
        -0.000          -0.000
 -11410823.408 9  -8831592.64646  22557876.921    22557876.1674   22557883.5924
        -0.000          -0.000
 -33105426.953 9 -25550234.83748  19925576.947    19925576.3804   19925582.6364
        -0.000          -0.000
 -33310310.359 9 -25674308.71849  19188770.104    19188770.2514   19188775.5904
        -0.000          -0.000
 97  3 12  2 41 59.9950000  0  6 10  6 24 17  5 30                  -0.004223220
 -31431273.484 9 -23498127.50148  19784151.099    19784150.1884   19784156.4404
        -0.000          -0.000
 -26676588.374 9 -20119161.22548  20366693.369    20366693.1424   20366698.8904
        -0.000          -0.000
 -24839195.890 9 -18139577.95147  21480583.428    21480583.1724   21480589.4684
        -0.000          -0.000
 -11515142.822 9  -8912880.45246  22538025.581    22538024.8404   22538032.3174
        -0.000          -0.000
 -33057646.398 9 -25513003.26248  19934669.363    19934668.7564   19934675.0044
        -0.000          -0.000
 -33319112.962 9 -25681167.88749  19187095.035    19187095.1504   19187100.4924
        -0.000          -0.000
 97  3 12  2 42 29.9950000  0  6 10  6 24 17  5 30                  -0.004237904
 -31436957.070 9 -23502556.25348  19783069.546    19783068.6374   19783074.8614
        -0.000          -0.000
 -26758974.290 9 -20183358.02548  20351015.818    20351015.6054   20351021.3464
        -0.000          -0.000
 -24787149.508 9 -18099022.32447  21490487.511    21490487.2454   21490493.5684
        -0.000          -0.000
 -11619285.584 9  -8994030.61246  22518207.846    22518207.1004   22518214.6084
        -0.000          -0.000
 -33009467.926 9 -25475461.62348  19943837.407    19943836.8194   19943843.0654
        -0.000          -0.000
 -33327291.851 9 -25687541.05249  19185538.625    19185538.7584   19185544.0954
        -0.000          -0.000
 97  3 12  2 42 59.9950000  0  6 10  6 24 17  5 30                  -0.004252610
 -31442039.927 9 -23506516.90548  19782102.258    19782101.3564   19782107.5744
        -0.000          -0.000
 -26841231.867 9 -20247454.81848  20335362.701    20335362.4724   20335368.2294
        -0.000          -0.000
 -24735078.461 9 -18058447.47747  21500396.335    21500396.0164   21500402.3804
        -0.000          -0.000
 -11723237.530 9  -9075032.08046  22498426.457    22498425.6444   22498433.0984
        -0.000          -0.000
 -32960900.269 9 -25437616.72048  19953079.559    19953078.9714   19953085.1994
        -0.000          -0.000
 -33334860.634 9 -25693438.80949  19184098.334    19184098.4554   19184103.8094
        -0.000          -0.000
 97  3 12  2 43 29.9950000  0  6 10  6 24 17  5 30                  -0.004267330
 -31446544.872 9 -23510027.23648  19781244.991    19781244.1104   19781250.3114
        -0.000          -0.000
 -26923364.534 9 -20311454.27748  20319733.350    20319733.1224   20319738.8674
        -0.000          -0.000
 -24682985.507 9 -18017855.57347  21510309.302    21510308.9834   21510315.3514
        -0.000          -0.000
 -11826998.008 9  -9155884.35946  22478681.449    22478680.6234   22478688.1154
        -0.000          -0.000
 -32911927.305 9 -25399455.99248  19962398.833    19962398.2294   19962404.4634
        -0.000          -0.000
 -33341833.852 9 -25698872.50049  19182771.378    19182771.5044   19182776.8694
        -0.000          -0.000
 97  3 12  2 43 59.9950000  0  6 10  6 24 17  5 30                  -0.004282048
 -31450466.582 9 -23513083.10248  19780498.697    19780497.7964   19780504.0094
        -0.000          -0.000
 -27005369.044 9 -20375353.88648  20304128.393    20304128.1954   20304133.9104
        -0.000          -0.000
 -24630864.157 9 -17977241.53147  21520227.581    21520227.3274   21520233.7154
        -0.000          -0.000
 -11930550.749 9  -9236574.75246  22458975.883    22458975.1454   22458982.5884
        -0.000          -0.000
 -32862542.269 9 -25360974.15248  19971796.517    19971795.9134   19971802.1404
        -0.000          -0.000
 -33348218.509 9 -25703847.57949  19181556.399    19181556.5254   19181561.8914
        -0.000          -0.000
 97  3 12  2 44 29.9950000  0  6 10  6 24 17  5 30                  -0.004296769
 -31453793.660 9 -23515675.61548  19779865.548    19779864.6654   19779870.8724
        -0.000          -0.000
 -27087241.891 9 -20439150.88948  20288548.520    20288548.3404   20288554.0164
        -0.000          -0.000
 -24578721.264 9 -17936610.69847  21530150.008    21530149.7674   21530156.1394
        -0.000          -0.000
 -12033904.235 9  -9317109.89546  22439308.356    22439307.6104   22439315.0234
        -0.000          -0.000
 -32812737.057 9 -25322164.89148  19981274.130    19981273.5324   19981279.7764
        -0.000          -0.000
 -33354018.903 9 -25708367.37849  19180452.649    19180452.7694   19180458.1394
        -0.000          -0.000
 97  3 12  2 44 59.9950000  0  6 10  6 24 17  5 30                  -0.004311510
 -31456550.039 9 -23517823.43348  19779341.009    19779340.1284   19779346.3704
        -0.000          -0.000
 -27169016.275 9 -20502871.17148  20272987.384    20272987.1834   20272992.8404
        -0.000          -0.000
 -24526568.253 9 -17895971.98247  21540074.445    21540074.1774   21540080.5424
        -0.000          -0.000
 -12137099.414 9  -9397521.67346  22419670.953    22419670.2364   22419677.5194
        -0.000          -0.000
 -32762510.078 9 -25283027.02348  19990831.987    19990831.3954   19990837.6474
        -0.000          -0.000
 -33359258.867 9 -25712450.48249  19179455.538    19179455.6494   19179461.0044
        -0.000          -0.000
 97  3 12  2 45 29.9950000  0  6 10  6 24 17  5 30                  -0.004326257
 -31458729.526 9 -23519521.72248  19778926.276    19778925.3954   19778931.6144
        -0.000          -0.000
 -27250691.597 9 -20566514.26948  20257445.079    20257444.8734   20257450.5174
        -0.000          -0.000
 -24474384.163 9 -17855309.06147  21550004.740    21550004.5324   21550010.8804
        -0.000          -0.000
 -12240127.917 9  -9477803.57946  22400065.183    22400064.5294   22400071.7954
        -0.000          -0.000
 -32711860.604 9 -25243559.93748  20000470.254    20000469.6634   20000475.9374
        -0.000          -0.000
 -33363927.608 9 -25716088.47149  19178567.085    19178567.2044   19178572.5564
        -0.000          -0.000
 97  3 12  2 45 59.9950000  0  6 10  6 24 17  5 30                  -0.004341006
 -31460333.635 9 -23520771.66248  19778621.014    19778620.1264   19778626.3234
        -0.000          -0.000
 -27332287.065 9 -20630095.13548  20241917.983    20241917.7524   20241923.4124
        -0.000          -0.000
 -24422167.629 9 -17814620.85547  21559941.252    21559940.9744   21559947.3464
        -0.000          -0.000
 -12342997.768 9  -9557961.87546  22380489.647    22380489.0504   22380496.2994
        -0.000          -0.000
 -32660817.147 9 -25203785.83048  20010183.488    20010182.8994   20010189.2014
        -0.000          -0.000
 -33368036.056 9 -25719289.86249  19177785.285    19177785.3964   19177790.7464
        -0.000          -0.000
 97  3 12  2 46 29.9950000  0  6 10  6 24 17  5 30                  -0.004355752
 -31461362.853 9 -23521573.63548  19778425.160    19778424.2824   19778430.4554
        -0.000          -0.000
 -27413790.361 9 -20693604.17648  20226408.402    20226408.1894   20226413.8354
        -0.000          -0.000
 -24369906.185 9 -17773897.64647  21569886.275    21569886.0194   21569892.3964
        -0.000          -0.000
 -12445699.900 9  -9637989.46646  22360946.054    22360945.4204   22360952.7294
        -0.000          -0.000
 -32609370.967 9 -25163697.91348  20019973.363    20019972.8014   20019979.1394
        -0.000          -0.000
 -33371568.963 9 -25722042.78449  19177112.995    19177113.1314   19177118.4954
        -0.000          -0.000
 97  3 12  2 46 59.9950000  0  6 10  6 24 17  5 30                  -0.004370494
 -31461846.790 9 -23521950.71848  19778333.045    19778332.1664   19778338.3744
        -0.000          -0.000
 -27495221.677 9 -20757057.14448  20210912.517    20210912.3064   20210917.9554
        -0.000          -0.000
 -24317610.465 9 -17733147.74147  21579837.847    21579837.5394   21579843.9394
        -0.000          -0.000
 -12548234.859 9  -9717886.78646  22341434.296    22341433.6284   22341440.9434
        -0.000          -0.000
 -32557547.596 9 -25123316.08748  20029835.047    20029834.4744   20029840.8064
        -0.000          -0.000
 -33374534.179 9 -25724353.36749  19176548.731    19176548.8614   19176554.2134
        -0.000          -0.000
 97  3 12  2 47 29.9950000  0  6 10  6 24 17  5 30                  -0.004385235
 -31461786.473 9 -23521903.70548  19778344.530    19778343.6384   19778349.8364
        -0.000          -0.000
 -27576561.915 9 -20820439.12248  20195434.014    20195433.7824   20195439.4014
        -0.000          -0.000
 -24265292.475 9 -17692380.47047  21589793.660    21589793.3274   21589799.7424
        -0.000          -0.000
 -12650591.568 9  -9797645.24746  22321956.473    22321955.8524   22321963.1634
        -0.000          -0.000
 -32505352.704 9 -25082644.76448  20039767.441    20039766.8384   20039773.1824
        -0.000          -0.000
 -33376932.288 9 -25726222.03149  19176092.403    19176092.5374   19176097.8884
        -0.000          -0.000
 97  3 12  2 47 59.9950000  0  6 10  6 24 17  5 30                  -0.004399983
 -31461173.677 9 -23521426.18748  19778461.150    19778460.2474   19778466.4374
        -0.000          -0.000
 -27657793.530 9 -20883736.45948  20179976.122    20179975.8744   20179981.5074
        -0.000          -0.000
 -24212960.005 9 -17651601.92647  21599752.147    21599751.8734   21599758.2724
        -0.000          -0.000
 -12752764.917 9  -9877260.81846  22302513.379    22302512.8524   22302520.1814
        -0.000          -0.000
 -32452769.074 9 -25041670.52648  20049773.757    20049773.1814   20049779.5344
        -0.000          -0.000
 -33378755.211 9 -25727642.49749  19175745.524    19175745.6574   19175751.0084
        -0.000          -0.000
 97  3 12  2 48 29.9950000  0  6 10  6 24 17  5 30                  -0.004414752
 -31460013.842 9 -23520522.40348  19778681.859    19778680.9444   19778687.1304
        -0.000          -0.000
 -27738908.797 9 -20946943.14748  20164540.379    20164540.1394   20164545.7574
        -0.000          -0.000
 -24160634.605 9 -17610828.89047  21609709.344    21609709.0904   21609715.4544
        -0.000          -0.000
 -12854758.997 9  -9956736.71146  22283104.515    22283104.0284   22283111.3304
        -0.000          -0.000
 -32399787.100 9 -25000385.89248  20059855.920    20059855.3314   20059861.6674
        -0.000          -0.000
 -33380002.356 9 -25728614.31249  19175508.252    19175508.3624   19175513.6964
        -0.000          -0.000
 97  3 12  2 48 59.9950000  0  6 10  6 24 17  5 30                  -0.004429545
 -31458304.604 9 -23519190.52148  19779007.081    19779006.1794   19779012.3804
        -0.000          -0.000
 -27819901.029 9 -21010053.96648  20149128.035    20149127.8094   20149133.4144
        -0.000          -0.000
 -24108323.111 9 -17570066.67447  21619663.890    21619663.6184   21619670.0594
        -0.000          -0.000
 -12956573.739 9 -10036072.82746  22263729.802    22263729.2014   22263736.6444
        -0.000          -0.000
 -32346414.801 9 -24958797.10948  20070012.323    20070011.7404   20070018.0804
        -0.000          -0.000
 -33380680.903 9 -25729143.05849  19175379.130    19175379.2514   19175384.5724
        -0.000          -0.000
 97  3 12  2 49 29.9950000  0  6 10  6 24 17  5 30                  -0.004444349
 -31456021.334 9 -23517411.33348  19779441.534    19779440.6484   19779446.8464
        -0.000          -0.000
 -27900750.186 9 -21073053.28848  20133742.952    20133742.7504   20133748.3724
        -0.000          -0.000
 -24056003.815 9 -17529298.39447  21629619.902    21629619.6164   21629626.0894
        -0.000          -0.000
 -13058195.870 9 -10115258.92146  22244391.660    22244391.1594   22244398.5514
        -0.000          -0.000
 -32292639.598 9 -24916894.36748  20080245.419    20080244.8364   20080251.1644
        -0.000          -0.000
 -33380781.271 9 -25729221.26549  19175360.043    19175360.1444   19175365.4734
        -0.000          -0.000
 97  3 12  2 49 59.9950000  0  6 10  6 24 17  5 30                  -0.004459168
 -31453184.094 9 -23515200.48548  19779981.452    19779980.5744   19779986.7384
        -0.000          -0.000
 -27981479.685 9 -21135959.38048  20118380.625    20118380.3954   20118386.0174
        -0.000          -0.000
 -24003678.391 9 -17488525.33647  21639577.054    21639576.8224   21639583.2464
        -0.000          -0.000
 -13159643.257 9 -10194308.81246  22225086.862    22225086.2634   22225093.7854
        -0.000          -0.000
 -32238489.837 9 -24874699.75548  20090549.777    20090549.1824   20090555.5434
        -0.000          -0.000
 -33380314.193 9 -25728857.30849  19175448.902    19175449.0034   19175454.3234
        -0.000          -0.000
 97  3 12  2 50 29.9950000  0  6 10  6 24 17  5 30                  -0.004473994
 -31449791.542 9 -23512556.92448  19780627.049    19780626.1474   19780632.3044
        -0.000          -0.000
 -28062094.992 9 -21198776.48848  20103040.052    20103039.8054   20103045.4274
        -0.000          -0.000
 -23951341.831 9 -17447743.60247  21649536.457    21649536.1584   21649542.5804
        -0.000          -0.000
 -13260914.780 9 -10273221.70446  22205815.639    22205815.0144   22205822.4364
        -0.000          -0.000
 -32183978.483 9 -24832223.39848  20100922.951    20100922.3814   20100928.7594
        -0.000          -0.000
 -33379288.915 9 -25728058.39149  19175644.014    19175644.1484   19175649.4864
        -0.000          -0.000
 97  3 12  2 50 59.9950000  0  6 10  6 24 17  5 30                  -0.004488815
 -31445832.319 9 -23509471.80248  19781380.393    19781379.5164   19781385.7144
        -0.000          -0.000
 -28142588.391 9 -21261498.60548  20087722.594    20087722.3894   20087728.0144
        -0.000          -0.000
 -23898979.325 9 -17406941.65247  21659500.709    21659500.4094   21659506.8284
        -0.000          -0.000
 -13362001.402 9 -10351990.48346  22186579.394    22186578.8214   22186586.2234
        -0.000          -0.000
 -32129112.499 9 -24789470.71448  20111363.608    20111363.0534   20111369.4364
        -0.000          -0.000
 -33377706.792 9 -25726825.57449  19175945.084    19175945.2094   19175950.5534
        -0.000          -0.000
 97  3 12  2 51 29.9950000  0  6 10  6 24 17  5 30                  -0.004503638
 -31441299.816 9 -23505939.97048  19782242.859    19782241.9894   19782248.1974
        -0.000          -0.000
 -28222951.844 9 -21324119.47948  20072429.948    20072429.7264   20072435.3334
        -0.000          -0.000
 -23846592.929 9 -17366121.08447  21669469.494    21669469.2384   21669475.6264
        -0.000          -0.000
 -13462900.615 9 -10430613.25446  22167378.955    22167378.4044   22167385.6574
        -0.000          -0.000
 -32073885.975 9 -24746437.09148  20121872.890    20121872.3084   20121878.6974
        -0.000          -0.000
 -33375553.847 9 -25725147.97049  19176354.752    19176354.8864   19176360.2214
        -0.000          -0.000
 97  3 12  2 51 59.9950000  0  6 10  6 24 17  5 30                  -0.004518476
 -31436202.565 9 -23501968.07148  19783212.848    19783211.9574   19783218.1584
        -0.000          -0.000
 -28303184.547 9 -21386638.46748  20057162.196    20057161.9864   20057167.5464
        -0.000          -0.000
 -23794199.087 9 -17325294.71647  21679439.690    21679439.4674   21679445.7984
        -0.000          -0.000
 -13563620.593 9 -10509096.33846  22148212.593    22148212.0624   22148219.3064
        -0.000          -0.000
 -32018303.337 9 -24703125.97348  20132449.918    20132449.3354   20132455.7134
        -0.000          -0.000
 -33372837.240 9 -25723031.14849  19176871.721    19176871.8484   19176877.1864
        -0.000          -0.000
 97  3 12  2 52 29.9950000  0  6 10  6 24 17  5 30                  -0.004533333
 -31430526.364 9 -23497545.04148  19784292.976    19784292.0904   19784298.2814
        -0.000          -0.000
 -28383278.217 9 -21449049.10448  20041920.904    20041920.6574   20041926.2174
        -0.000          -0.000
 -23741802.373 9 -17284466.10047  21689410.596    21689410.2844   21689416.6034
        -0.000          -0.000
 -13664155.840 9 -10587435.49546  22129081.406    22129080.8564   22129088.0934
        -0.000          -0.000
 -31962354.036 9 -24659529.14648  20143096.751    20143096.1754   20143102.5604
        -0.000          -0.000
 -33369544.339 9 -25720465.26949  19177498.335    19177498.4444   19177503.7984
        -0.000          -0.000
 97  3 12  2 52 59.9950000  0  6 10  6 24 17  5 30                  -0.004548222
 -31424284.865 9 -23492681.52348  19785480.688    19785479.8074   19785485.9714
        -0.000          -0.000
 -28463221.530 9 -21511342.57648  20026708.175    20026707.9394   20026713.4954
        -0.000          -0.000
 -23689397.251 9 -17243630.94147  21699382.998    21699382.6814   21699388.9284
        -0.000          -0.000
 -13764509.910 9 -10665633.45546  22109984.655    22109984.1364   22109991.3524
        -0.000          -0.000
 -31906037.273 9 -24615645.97348  20153813.487    20153812.8964   20153819.2894
        -0.000          -0.000
 -33365652.598 9 -25717432.76949  19178238.922    19178239.0414   19178244.4144
        -0.000          -0.000
 97  3 12  2 53 29.9950000  0  6 10  6 24 17  5 30                  -0.004563150
 -31417498.545 9 -23487393.46848  19786772.107    19786771.2234   19786777.3704
        -0.000          -0.000
 -28543031.607 9 -21573532.22948  20011520.759    20011520.5524   20011526.0954
        -0.000          -0.000
 -23636992.090 9 -17202795.74647  21709355.336    21709354.9974   21709361.2474
        -0.000          -0.000
 -13864706.878 9 -10743708.99746  22090917.914    22090917.2564   22090924.4854
        -0.000          -0.000
 -31849363.312 9 -24571484.45948  20164598.191    20164597.6204   20164604.0254
        -0.000          -0.000
 -33361165.579 9 -25713936.41649  19179092.774    19179092.9004   19179098.2724
        -0.000          -0.000
 97  3 12  2 53 59.9950000  0  6 10  6 24 17  5 30                  -0.004578108
 -31410177.142 9 -23481688.46648  19788165.283    19788164.3994   19788170.5404
        -0.000          -0.000
 -28622719.347 9 -21635626.56348  19996356.664    19996356.4704   19996362.0094
        -0.000          -0.000
 -23584579.090 9 -17161954.45347  21719329.153    21719328.8024   21719335.1094
        -0.000          -0.000
 -13964742.613 9 -10821658.92046  22071881.673    22071881.1154   22071888.2904
        -0.000          -0.000
 -31792333.339 9 -24527045.53948  20175450.660    20175450.0964   20175456.5004
        -0.000          -0.000
 -33356094.940 9 -25709985.29949  19180057.688    19180057.8024   19180063.2004
        -0.000          -0.000
 97  3 12  2 54 29.9950000  0  6 10  6 24 17  5 30                  -0.004593081
 -31402322.762 9 -23475568.15348  19789659.904    19789659.0444   19789665.1644
        -0.000          -0.000
 -28702283.597 9 -21697624.66848  19981216.086    19981215.8724   19981221.4044
        -0.000          -0.000
 -23532154.821 9 -17121104.37847  21729305.165    21729304.8454   21729311.1794
        -0.000          -0.000
 -14064602.669 9 -10899471.95846  22052879.009    22052878.3504   22052885.4624
        -0.000          -0.000
 -31734932.315 9 -24482317.47748  20186373.717    20186373.1454   20186379.5594
        -0.000          -0.000
 -33350433.249 9 -25705573.61949  19181135.087    19181135.2164   19181140.6174
        -0.000          -0.000
 97  3 12  2 54 59.9950000  0  6 10  6 24 17  5 30                  -0.004608068
 -31393958.654 9 -23469050.65148  19791251.521    19791250.6524   19791256.7584
        -0.000          -0.000
 -28781750.465 9 -21759546.89448  19966094.063    19966093.8314   19966099.3604
        -0.000          -0.000
 -23479730.937 9 -17080254.58747  21739281.034    21739280.7494   21739287.1024
        -0.000          -0.000
 -14164307.119 9 -10977163.72646  22033905.787    22033905.1944   22033912.2724
        -0.000          -0.000
 -31677175.284 9 -24437311.99948  20197364.516    20197363.9364   20197370.3504
        -0.000          -0.000
 -33344212.562 9 -25700726.35249  19182318.866    19182318.9774   19182324.3974
        -0.000          -0.000
 97  3 12  2 55 29.9950000  0  6 10  6 24 17  5 30                  -0.004623052
 -31385058.133 9 -23462115.16648  19792945.251    19792944.3804   19792950.4774
        -0.000          -0.000
 -28861114.554 9 -21821389.02148  19950991.531    19950991.3064   19950996.8454
        -0.000          -0.000
 -23427308.861 9 -17039406.22947  21749256.611    21749256.3334   21749262.6604
        -0.000          -0.000
 -14263836.540 9 -11054719.09746  22014965.951    22014965.3264   22014972.4154
        -0.000          -0.000
 -31619048.858 9 -24392018.69448  20208425.657    20208425.0784   20208431.4694
        -0.000          -0.000
 -33337445.887 9 -25695453.63449  19183606.526    19183606.6454   19183612.0794
        -0.000          -0.000
 97  3 12  2 55 59.9950000  0  6 10  6 24 17  5 30                  -0.004638024
 -31375615.856 9 -23454757.53648  19794742.075    19794741.1964   19794747.2714
        -0.000          -0.000
 -28940358.597 9 -21883137.62048  19935911.856    19935911.6464   19935917.1684
        -0.000          -0.000
 -23374887.925 9 -16998558.75347  21759231.924    21759231.7084   21759237.9664
        -0.000          -0.000
 -14363168.636 9 -11132120.73346  21996063.634    21996063.0434   21996070.1024
        -0.000          -0.000
 -31560552.291 9 -24346436.96648  20219557.175    20219556.5824   20219562.9984
        -0.000          -0.000
 -33330130.922 9 -25689753.67049  19184998.484    19184998.5924   19185004.0564
        -0.000          -0.000
 97  3 12  2 56 29.9950000  0  6 10  6 24 17  5 30                  -0.004652992
 -31365618.958 9 -23446967.73248  19796644.424    19796643.5294   19796649.6234
        -0.000          -0.000
 -29019474.589 9 -21944786.44248  19920856.570    19920856.3684   19920861.9104
        -0.000          -0.000
 -23322463.546 9 -16957708.57347  21769207.954    21769207.7714   21769213.9484
        -0.000          -0.000
 -14462303.955 9 -11209369.01846  21977198.847    21977198.2324   21977205.3014
        -0.000          -0.000
 -31501686.513 9 -24300567.54748  20230758.961    20230758.3774   20230764.8084
        -0.000          -0.000
 -33322249.145 9 -25683612.03549  19186498.342    19186498.4834   19186503.9504
        -0.000          -0.000
 97  3 12  2 56 59.9950000  0  6 10  6 24 17  5 30                  -0.004667975
 -31355070.506 9 -23438748.14648  19798651.692    19798650.7994   19798656.9074
        -0.000          -0.000
 -29098464.840 9 -22006337.28648  19905825.186    19905824.9844   19905830.5404
        -0.000          -0.000
 -23270043.189 9 -16916861.54146  21779183.325    21779183.0254   21779189.2154
        -0.000          -0.000
 -14561265.627 9 -11286481.95546  21958366.990    21958366.4094   21958373.4974
        -0.000          -0.000
 -31442479.106 9 -24254431.92548  20242025.744    20242025.1584   20242031.6214
        -0.000          -0.000
 -33313809.787 9 -25677035.92449  19188104.325    19188104.4624   19188109.9244
        -0.000          -0.000
 97  3 12  2 57 29.9950000  0  6 10  6 24 17  5 30                  -0.004682990
 -31343979.164 9 -23430105.52748  19800762.298    19800761.4184   19800767.5184
        -0.000          -0.000
 -29177322.867 9 -22067785.08548  19890818.994    19890818.7934   19890824.3774
        -0.000          -0.000
 -23217637.998 9 -16876026.33046  21789155.622    21789155.4224   21789161.5904
        -0.000          -0.000
 -14660067.079 9 -11363470.07346  21939565.678    21939565.1054   21939572.1664
        -0.000          -0.000
 -31382950.617 9 -24208046.08448  20253353.671    20253353.0564   20253359.5804
        -0.000          -0.000
 -33304819.087 9 -25670030.19949  19189815.231    19189815.3674   19189820.8054
        -0.000          -0.000
 97  3 12  2 57 59.9950000  0  6 10  6 24 17  5 30                  -0.004698034
 -31332354.731 9 -23421047.51448  19802974.346    19802973.4374   19802979.5364
        -0.000          -0.000
 -29256046.718 9 -22129128.33748  19875838.288    19875838.0944   19875843.7044
        -0.000          -0.000
 -23165238.285 9 -16835195.38046  21799126.877    21799126.7594   21799132.9344
        -0.000          -0.000
 -14758704.171 9 -11440330.12146  21920795.690    21920795.0894   21920802.1594
        -0.000          -0.000
 -31323108.856 9 -24161416.13448  20264741.175    20264740.5724   20264747.0894
        -0.000          -0.000
 -33295263.222 9 -25662584.09249  19191633.648    19191633.7884   19191639.2454
        -0.000          -0.000
 97  3 12  2 58 29.9950000  0  6 10  6 24 17  5 30                  -0.004713107
 -31320192.306 9 -23411570.28848  19805288.772    19805287.8844   19805293.9704
        -0.000          -0.000
 -29334642.643 9 -22190371.90348  19860881.981    19860881.7884   19860887.4124
        -0.000          -0.000
 -23112849.336 9 -16794372.82746  21809096.220    21809095.9774   21809102.2414
        -0.000          -0.000
 -14857179.749 9 -11517064.30346  21902056.376    21902055.8024   21902062.8474
        -0.000          -0.000
 -31262959.352 9 -24114546.39948  20276187.260    20276186.6384   20276193.1414
        -0.000          -0.000
 -33285149.821 9 -25654703.54349  19193558.201    19193558.3464   19193563.7944
        -0.000          -0.000
 97  3 12  2 58 59.9950000  0  6 10  6 24 17  5 30                  -0.004728197
 -31307489.012 9 -23401671.60948  19807706.120    19807705.2114   19807711.3074
        -0.000          -0.000
 -29413087.964 9 -22251498.12048  19845954.317    19845954.1324   19845959.7594
        -0.000          -0.000
 -23060465.556 9 -16753554.29446  21819064.545    21819064.2964   21819070.5304
        -0.000          -0.000
 -14955474.262 9 -11593657.37746  21883351.502    21883350.9724   21883358.0374
        -0.000          -0.000
 -31202499.663 9 -24067434.96848  20287692.331    20287691.7034   20287698.2334
        -0.000          -0.000
 -33274490.604 9 -25646397.67749  19195586.568    19195586.7224   19195592.1714
        -0.000          -0.000
 97  3 12  2 59 29.9950000  0  6 10  6 24 17  5 30                  -0.004743280
 -31294242.709 9 -23391349.80248  19810226.779    19810225.9064   19810231.9824
        -0.000          -0.000
 -29491367.193 9 -22312494.90948  19831058.262    19831058.0644   19831063.7124
        -0.000          -0.000
 -23008079.861 9 -16712734.27546  21829033.171    21829032.9354   21829039.2114
        -0.000          -0.000
 -15053555.914 9 -11670084.60746  21864687.178    21864686.6024   21864693.6814
        -0.000          -0.000
 -31141725.509 9 -24020078.49948  20299257.244    20299256.6474   20299263.1664
        -0.000          -0.000
 -33263285.504 9 -25637666.44449  19197718.868    19197719.0064   19197724.4604
        -0.000          -0.000
 97  3 12  2 59 59.9950000  0  6 10  6 24 17  5 30                  -0.004758355
 -31280464.679 9 -23380613.66148  19812848.630    19812847.7314   19812853.8154
        -0.000          -0.000
 -29569482.622 9 -22373364.05248  19816193.388    19816193.1654   19816198.8364
        -0.000          -0.000
 -22955707.327 9 -16671924.50346  21838999.351    21838999.0564   21839005.3344
        -0.000          -0.000
 -15151410.873 9 -11746335.20146  21846066.034    21846065.3944   21846072.4784
        -0.000          -0.000
 -31080634.529 9 -23972475.14848  20310882.472    20310881.8994   20310888.4184
        -0.000          -0.000
 -33251533.679 9 -25628509.19049  19199955.168    19199955.2884   19199960.7624
        -0.000          -0.000
